<?xml version="1.0" encoding="UTF-8" standalone="no" ?>
<gpx xmlns="http://www.topografix.com/GPX/1/1" xmlns:xsi="http://www.w3.org/2001/XMLSchema-instance" xsi:schemaLocation="http://www.topografix.com/GPX/1/1 http://www.topografix.com/GPX/1/1/gpx.xsd" version="1.1" creator="VisuGPX - https://www.visugpx.com">
  <metadata>
    <name>Basevtt29 78 km</name>
  </metadata>
  <trk>
    <name><![CDATA[Basevtt29 78 km_1]]></name>
    <desc><![CDATA[]]></desc>
    <trkseg>
      <trkpt lat="47.90731" lon="-3.83897">
        <ele>93.5</ele>
        <time>2019-06-14T14:32:39.000Z</time>
      </trkpt>
      <trkpt lat="47.90718" lon="-3.83906">
        <ele>94</ele>
        <time>2019-06-14T15:07:36.889Z</time>
        <extensions>
          <visugpx:TrkExtension xmlns:visugpx="https://www.visugpx.com/editgpx/">
            <visugpx:node>1</visugpx:node>
            </visugpx:TrkExtension>
        </extensions>
      </trkpt>
      <trkpt lat="47.90691" lon="-3.8391">
        <ele>95.1</ele>
        <time>2019-06-14T15:07:33.891Z</time>
      </trkpt>
      <trkpt lat="47.90683" lon="-3.8393">
        <ele>95.2</ele>
        <time>2019-06-14T15:07:32.116Z</time>
      </trkpt>
      <trkpt lat="47.9067" lon="-3.83941">
        <ele>95.6</ele>
        <time>2019-06-14T15:07:30.471Z</time>
      </trkpt>
      <trkpt lat="47.90664" lon="-3.8395">
        <ele>95.7</ele>
        <time>2019-06-14T15:07:29.545Z</time>
      </trkpt>
      <trkpt lat="47.90642" lon="-3.83952">
        <ele>96.3</ele>
        <time>2019-06-14T15:07:27.083Z</time>
      </trkpt>
      <trkpt lat="47.90622" lon="-3.83953">
        <ele>96.9</ele>
        <time>2019-06-14T15:07:24.823Z</time>
      </trkpt>
      <trkpt lat="47.90627" lon="-3.84003">
        <ele>96.3</ele>
        <time>2019-06-14T15:07:21.059Z</time>
      </trkpt>
      <trkpt lat="47.90644" lon="-3.84098">
        <ele>93.6</ele>
        <time>2019-06-14T15:07:13.705Z</time>
      </trkpt>
      <trkpt lat="47.90653" lon="-3.84147">
        <ele>92.6</ele>
        <time>2019-06-14T15:07:09.965Z</time>
      </trkpt>
      <trkpt lat="47.90657" lon="-3.84176">
        <ele>92</ele>
        <time>2019-06-14T15:07:07.755Z</time>
      </trkpt>
      <trkpt lat="47.90667" lon="-3.84328">
        <ele>89</ele>
        <time>2019-06-14T15:06:56.358Z</time>
      </trkpt>
      <trkpt lat="47.90668" lon="-3.84364">
        <ele>88.6</ele>
        <time>2019-06-14T15:06:53.694Z</time>
      </trkpt>
      <trkpt lat="47.9066" lon="-3.84406">
        <ele>88.2</ele>
        <time>2019-06-14T15:06:50.390Z</time>
      </trkpt>
      <trkpt lat="47.90644" lon="-3.84512">
        <ele>88.7</ele>
        <time>2019-06-14T15:06:42.296Z</time>
      </trkpt>
      <trkpt lat="47.90632" lon="-3.84575">
        <ele>90.1</ele>
        <time>2019-06-14T15:06:37.430Z</time>
      </trkpt>
      <trkpt lat="47.90627" lon="-3.8469">
        <ele>90.8</ele>
        <time>2019-06-14T15:06:28.873Z</time>
      </trkpt>
      <trkpt lat="47.90617" lon="-3.84744">
        <ele>90.6</ele>
        <time>2019-06-14T15:06:24.672Z</time>
      </trkpt>
      <trkpt lat="47.90623" lon="-3.84787">
        <ele>90.3</ele>
        <time>2019-06-14T15:06:21.411Z</time>
      </trkpt>
      <trkpt lat="47.9063" lon="-3.84898">
        <ele>89.6</ele>
        <time>2019-06-14T15:06:13.098Z</time>
      </trkpt>
      <trkpt lat="47.90632" lon="-3.84922">
        <ele>89.4</ele>
        <time>2019-06-14T15:06:11.293Z</time>
      </trkpt>
      <trkpt lat="47.90634" lon="-3.84941">
        <ele>89.2</ele>
        <time>2019-06-14T15:06:09.879Z</time>
      </trkpt>
      <trkpt lat="47.90648" lon="-3.84978">
        <ele>88.6</ele>
        <time>2019-06-14T15:06:06.704Z</time>
      </trkpt>
      <trkpt lat="47.90656" lon="-3.84999">
        <ele>88.3</ele>
        <time>2019-06-14T15:06:04.950Z</time>
      </trkpt>
      <trkpt lat="47.90704" lon="-3.85113">
        <ele>82.7</ele>
        <time>2019-06-14T15:05:54.856Z</time>
      </trkpt>
      <trkpt lat="47.90725" lon="-3.85164">
        <ele>81.6</ele>
        <time>2019-06-14T15:05:50.394Z</time>
      </trkpt>
      <trkpt lat="47.90764" lon="-3.85276">
        <ele>76.1</ele>
        <time>2019-06-14T15:05:40.959Z</time>
      </trkpt>
      <trkpt lat="47.90783" lon="-3.85353">
        <ele>75.9</ele>
        <time>2019-06-14T15:05:34.833Z</time>
      </trkpt>
      <trkpt lat="47.90798" lon="-3.85467">
        <ele>78.6</ele>
        <time>2019-06-14T15:05:26.208Z</time>
      </trkpt>
      <trkpt lat="47.90804" lon="-3.85491">
        <ele>78.4</ele>
        <time>2019-06-14T15:05:24.277Z</time>
      </trkpt>
      <trkpt lat="47.90822" lon="-3.85561">
        <ele>77.5</ele>
        <time>2019-06-14T15:05:18.662Z</time>
      </trkpt>
      <trkpt lat="47.90843" lon="-3.85654">
        <ele>74.4</ele>
        <time>2019-06-14T15:05:11.404Z</time>
      </trkpt>
      <trkpt lat="47.90844" lon="-3.85657">
        <ele>74.2</ele>
        <time>2019-06-14T15:05:11.124Z</time>
      </trkpt>
      <trkpt lat="47.90871" lon="-3.85795">
        <ele>70.9</ele>
        <time>2019-06-14T15:05:00.451Z</time>
      </trkpt>
      <trkpt lat="47.90895" lon="-3.8591">
        <ele>69.4</ele>
        <time>2019-06-14T15:04:51.478Z</time>
      </trkpt>
      <trkpt lat="47.90927" lon="-3.86049">
        <ele>64.3</ele>
        <time>2019-06-14T15:04:40.444Z</time>
      </trkpt>
      <trkpt lat="47.9094" lon="-3.86104">
        <ele>63</ele>
        <time>2019-06-14T15:04:36.140Z</time>
      </trkpt>
      <trkpt lat="47.90965" lon="-3.86187">
        <ele>60.4</ele>
        <time>2019-06-14T15:04:29.306Z</time>
      </trkpt>
      <trkpt lat="47.91002" lon="-3.86305">
        <ele>55.4</ele>
        <time>2019-06-14T15:04:19.654Z</time>
      </trkpt>
      <trkpt lat="47.91027" lon="-3.86369">
        <ele>55.6</ele>
        <time>2019-06-14T15:04:14.119Z</time>
      </trkpt>
      <trkpt lat="47.91039" lon="-3.86403">
        <ele>55.9</ele>
        <time>2019-06-14T15:04:11.268Z</time>
      </trkpt>
      <trkpt lat="47.91046" lon="-3.86401">
        <ele>56.1</ele>
        <time>2019-06-14T15:04:10.446Z</time>
      </trkpt>
      <trkpt lat="47.91068" lon="-3.86385">
        <ele>56.6</ele>
        <time>2019-06-14T15:04:07.692Z</time>
      </trkpt>
      <trkpt lat="47.91101" lon="-3.86359">
        <ele>59</ele>
        <time>2019-06-14T15:04:03.515Z</time>
      </trkpt>
      <trkpt lat="47.91112" lon="-3.86344">
        <ele>60.4</ele>
        <time>2019-06-14T15:04:01.833Z</time>
      </trkpt>
      <trkpt lat="47.91139" lon="-3.8634">
        <ele>63.5</ele>
        <time>2019-06-14T15:03:58.881Z</time>
      </trkpt>
      <trkpt lat="47.91176" lon="-3.86325">
        <ele>67.9</ele>
        <time>2019-06-14T15:03:54.602Z</time>
      </trkpt>
      <trkpt lat="47.91239" lon="-3.86327">
        <ele>73.2</ele>
        <time>2019-06-14T15:03:47.495Z</time>
      </trkpt>
      <trkpt lat="47.91278" lon="-3.86326">
        <ele>75.1</ele>
        <time>2019-06-14T15:03:43.198Z</time>
      </trkpt>
      <trkpt lat="47.91335" lon="-3.86336">
        <ele>77</ele>
        <time>2019-06-14T15:03:36.856Z</time>
      </trkpt>
      <trkpt lat="47.91343" lon="-3.86202">
        <ele>78.1</ele>
        <time>2019-06-14T15:03:26.770Z</time>
      </trkpt>
      <trkpt lat="47.91339" lon="-3.86144">
        <ele>78.4</ele>
        <time>2019-06-14T15:03:22.424Z</time>
      </trkpt>
      <trkpt lat="47.91339" lon="-3.86032">
        <ele>77</ele>
        <time>2019-06-14T15:03:14.112Z</time>
      </trkpt>
      <trkpt lat="47.9135" lon="-3.85828">
        <ele>81.4</ele>
        <time>2019-06-14T15:02:58.821Z</time>
      </trkpt>
      <trkpt lat="47.91356" lon="-3.85699">
        <ele>86.4</ele>
        <time>2019-06-14T15:02:49.208Z</time>
      </trkpt>
      <trkpt lat="47.91356" lon="-3.85654">
        <ele>88</ele>
        <time>2019-06-14T15:02:45.806Z</time>
      </trkpt>
      <trkpt lat="47.91357" lon="-3.85591">
        <ele>89.1</ele>
        <time>2019-06-14T15:02:41.146Z</time>
      </trkpt>
      <trkpt lat="47.91361" lon="-3.85546">
        <ele>89.9</ele>
        <time>2019-06-14T15:02:37.764Z</time>
      </trkpt>
      <trkpt lat="47.91386" lon="-3.85399">
        <ele>92.2</ele>
        <time>2019-06-14T15:02:26.423Z</time>
      </trkpt>
      <trkpt lat="47.91386" lon="-3.85398">
        <ele>92.2</ele>
        <time>2019-06-14T15:02:26.367Z</time>
      </trkpt>
      <trkpt lat="47.91405" lon="-3.8529">
        <ele>92</ele>
        <time>2019-06-14T15:02:18.063Z</time>
      </trkpt>
      <trkpt lat="47.91423" lon="-3.85215">
        <ele>90.6</ele>
        <time>2019-06-14T15:02:12.092Z</time>
      </trkpt>
      <trkpt lat="47.91453" lon="-3.851">
        <ele>90.8</ele>
        <time>2019-06-14T15:02:02.900Z</time>
      </trkpt>
      <trkpt lat="47.9147" lon="-3.85039">
        <ele>92</ele>
        <time>2019-06-14T15:01:57.962Z</time>
      </trkpt>
      <trkpt lat="47.91508" lon="-3.84951">
        <ele>95.9</ele>
        <time>2019-06-14T15:01:50.126Z</time>
      </trkpt>
      <trkpt lat="47.91519" lon="-3.84924">
        <ele>97.4</ele>
        <time>2019-06-14T15:01:47.785Z</time>
      </trkpt>
      <trkpt lat="47.91521" lon="-3.84902">
        <ele>97.9</ele>
        <time>2019-06-14T15:01:46.164Z</time>
      </trkpt>
      <trkpt lat="47.91519" lon="-3.84894">
        <ele>98</ele>
        <time>2019-06-14T15:01:45.513Z</time>
      </trkpt>
      <trkpt lat="47.91519" lon="-3.84891">
        <ele>98</ele>
        <time>2019-06-14T15:01:45.310Z</time>
      </trkpt>
      <trkpt lat="47.9152" lon="-3.84888">
        <ele>98</ele>
        <time>2019-06-14T15:01:45.060Z</time>
      </trkpt>
      <trkpt lat="47.91526" lon="-3.84885">
        <ele>97.9</ele>
        <time>2019-06-14T15:01:44.321Z</time>
      </trkpt>
      <trkpt lat="47.91542" lon="-3.84888">
        <ele>97.7</ele>
        <time>2019-06-14T15:01:42.581Z</time>
      </trkpt>
      <trkpt lat="47.91562" lon="-3.84893">
        <ele>97.3</ele>
        <time>2019-06-14T15:01:40.252Z</time>
      </trkpt>
      <trkpt lat="47.91595" lon="-3.84902">
        <ele>97</ele>
        <time>2019-06-14T15:01:36.584Z</time>
      </trkpt>
      <trkpt lat="47.91623" lon="-3.84912">
        <ele>97</ele>
        <time>2019-06-14T15:01:33.314Z</time>
      </trkpt>
      <trkpt lat="47.91652" lon="-3.84924">
        <ele>97</ele>
        <time>2019-06-14T15:01:30.028Z</time>
      </trkpt>
      <trkpt lat="47.91682" lon="-3.84939">
        <ele>96.9</ele>
        <time>2019-06-14T15:01:26.448Z</time>
      </trkpt>
      <trkpt lat="47.91706" lon="-3.84947">
        <ele>96.7</ele>
        <time>2019-06-14T15:01:23.716Z</time>
      </trkpt>
      <trkpt lat="47.91744" lon="-3.84962">
        <ele>96.6</ele>
        <time>2019-06-14T15:01:19.322Z</time>
      </trkpt>
      <trkpt lat="47.91772" lon="-3.84968">
        <ele>96.4</ele>
        <time>2019-06-14T15:01:16.277Z</time>
      </trkpt>
      <trkpt lat="47.91788" lon="-3.84967">
        <ele>96.2</ele>
        <time>2019-06-14T15:01:14.494Z</time>
      </trkpt>
      <trkpt lat="47.91809" lon="-3.84958">
        <ele>95.8</ele>
        <time>2019-06-14T15:01:11.997Z</time>
      </trkpt>
      <trkpt lat="47.91831" lon="-3.84948">
        <ele>95.4</ele>
        <time>2019-06-14T15:01:09.476Z</time>
      </trkpt>
      <trkpt lat="47.91848" lon="-3.84937">
        <ele>96.1</ele>
        <time>2019-06-14T15:01:07.371Z</time>
      </trkpt>
      <trkpt lat="47.91868" lon="-3.84924">
        <ele>97.1</ele>
        <time>2019-06-14T15:01:05.025Z</time>
      </trkpt>
      <trkpt lat="47.91884" lon="-3.8492">
        <ele>98.1</ele>
        <time>2019-06-14T15:01:03.129Z</time>
      </trkpt>
      <trkpt lat="47.91896" lon="-3.84923">
        <ele>98.8</ele>
        <time>2019-06-14T15:01:01.800Z</time>
      </trkpt>
      <trkpt lat="47.9191" lon="-3.8494">
        <ele>99.6</ele>
        <time>2019-06-14T15:00:59.801Z</time>
      </trkpt>
      <trkpt lat="47.91925" lon="-3.84959">
        <ele>100.4</ele>
        <time>2019-06-14T15:00:57.627Z</time>
      </trkpt>
      <trkpt lat="47.91935" lon="-3.84979">
        <ele>100.9</ele>
        <time>2019-06-14T15:00:55.757Z</time>
      </trkpt>
      <trkpt lat="47.91947" lon="-3.8501">
        <ele>101.2</ele>
        <time>2019-06-14T15:00:53.050Z</time>
      </trkpt>
      <trkpt lat="47.91954" lon="-3.85022">
        <ele>101.3</ele>
        <time>2019-06-14T15:00:51.909Z</time>
      </trkpt>
      <trkpt lat="47.91962" lon="-3.85018">
        <ele>101.7</ele>
        <time>2019-06-14T15:00:51.046Z</time>
      </trkpt>
      <trkpt lat="47.91977" lon="-3.85014">
        <ele>102.5</ele>
        <time>2019-06-14T15:00:49.340Z</time>
      </trkpt>
      <trkpt lat="47.91997" lon="-3.85016">
        <ele>103.4</ele>
        <time>2019-06-14T15:00:47.132Z</time>
      </trkpt>
      <trkpt lat="47.92076" lon="-3.85031">
        <ele>102.1</ele>
        <time>2019-06-14T15:00:38.214Z</time>
      </trkpt>
      <trkpt lat="47.92081" lon="-3.85028">
        <ele>102</ele>
        <time>2019-06-14T15:00:37.646Z</time>
      </trkpt>
      <trkpt lat="47.92083" lon="-3.85027">
        <ele>102</ele>
        <time>2019-06-14T15:00:37.439Z</time>
      </trkpt>
      <trkpt lat="47.92086" lon="-3.85026">
        <ele>102</ele>
        <time>2019-06-14T15:00:37.061Z</time>
      </trkpt>
      <trkpt lat="47.92089" lon="-3.85027">
        <ele>101.9</ele>
        <time>2019-06-14T15:00:36.710Z</time>
      </trkpt>
      <trkpt lat="47.92093" lon="-3.85012">
        <ele>101.9</ele>
        <time>2019-06-14T15:00:35.481Z</time>
      </trkpt>
      <trkpt lat="47.92096" lon="-3.84996">
        <ele>101.8</ele>
        <time>2019-06-14T15:00:34.306Z</time>
      </trkpt>
      <trkpt lat="47.92101" lon="-3.84976">
        <ele>101.4</ele>
        <time>2019-06-14T15:00:32.668Z</time>
      </trkpt>
      <trkpt lat="47.92117" lon="-3.84938">
        <ele>100.6</ele>
        <time>2019-06-14T15:00:29.353Z</time>
      </trkpt>
      <trkpt lat="47.92125" lon="-3.8491">
        <ele>100.1</ele>
        <time>2019-06-14T15:00:27.112Z</time>
      </trkpt>
      <trkpt lat="47.92133" lon="-3.84884">
        <ele>100.2</ele>
        <time>2019-06-14T15:00:24.914Z</time>
      </trkpt>
      <trkpt lat="47.92157" lon="-3.84817">
        <ele>100.4</ele>
        <time>2019-06-14T15:00:19.289Z</time>
      </trkpt>
      <trkpt lat="47.92167" lon="-3.84785">
        <ele>100.6</ele>
        <time>2019-06-14T15:00:16.660Z</time>
      </trkpt>
      <trkpt lat="47.92175" lon="-3.84761">
        <ele>101</ele>
        <time>2019-06-14T15:00:14.671Z</time>
      </trkpt>
      <trkpt lat="47.92181" lon="-3.84759">
        <ele>101.2</ele>
        <time>2019-06-14T15:00:13.980Z</time>
      </trkpt>
      <trkpt lat="47.92195" lon="-3.8476">
        <ele>101.5</ele>
        <time>2019-06-14T15:00:12.355Z</time>
      </trkpt>
      <trkpt lat="47.92228" lon="-3.84765">
        <ele>102.1</ele>
        <time>2019-06-14T15:00:08.715Z</time>
      </trkpt>
      <trkpt lat="47.92245" lon="-3.84763">
        <ele>102.6</ele>
        <time>2019-06-14T15:00:06.785Z</time>
      </trkpt>
      <trkpt lat="47.92266" lon="-3.84763">
        <ele>103.1</ele>
        <time>2019-06-14T15:00:04.505Z</time>
      </trkpt>
      <trkpt lat="47.92282" lon="-3.84766">
        <ele>103.4</ele>
        <time>2019-06-14T15:00:02.662Z</time>
        <extensions>
          <visugpx:TrkExtension xmlns:visugpx="https://www.visugpx.com/editgpx/">
            <visugpx:node>2</visugpx:node>
            </visugpx:TrkExtension>
        </extensions>
      </trkpt>
      <trkpt lat="47.92292" lon="-3.84778">
        <ele>99.9</ele>
        <time>2019-02-02T17:12:11.270Z</time>
        <extensions>
          <visugpx:TrkExtension xmlns:visugpx="https://www.visugpx.com/editgpx/">
            <visugpx:node>3</visugpx:node>
            </visugpx:TrkExtension>
        </extensions>
      </trkpt>
      <trkpt lat="47.92291" lon="-3.84778">
        <ele>99.8</ele>
        <time>2019-02-02T17:12:11.270Z</time>
      </trkpt>
      <trkpt lat="47.92291" lon="-3.84778">
        <ele>99.8</ele>
        <time>2019-02-02T17:12:11.300Z</time>
      </trkpt>
      <trkpt lat="47.92287" lon="-3.84842">
        <ele>98.8</ele>
        <time>2019-02-02T17:12:16.076Z</time>
      </trkpt>
      <trkpt lat="47.92283" lon="-3.84919">
        <ele>98.8</ele>
        <time>2019-02-02T17:12:21.820Z</time>
      </trkpt>
      <trkpt lat="47.9228" lon="-3.8498">
        <ele>98.9</ele>
        <time>2019-02-02T17:12:26.354Z</time>
      </trkpt>
      <trkpt lat="47.92279" lon="-3.85003">
        <ele>98.9</ele>
        <time>2019-02-02T17:12:28.082Z</time>
      </trkpt>
      <trkpt lat="47.9228" lon="-3.85024">
        <ele>98.4</ele>
        <time>2019-02-02T17:12:29.666Z</time>
      </trkpt>
      <trkpt lat="47.92275" lon="-3.85075">
        <ele>98</ele>
        <time>2019-02-02T17:12:33.453Z</time>
      </trkpt>
      <trkpt lat="47.92281" lon="-3.85137">
        <ele>97</ele>
        <time>2019-02-02T17:12:38.124Z</time>
      </trkpt>
      <trkpt lat="47.92285" lon="-3.85182">
        <ele>96.8</ele>
        <time>2019-02-02T17:12:41.564Z</time>
      </trkpt>
      <trkpt lat="47.92287" lon="-3.85195">
        <ele>96.5</ele>
        <time>2019-02-02T17:12:42.578Z</time>
      </trkpt>
      <trkpt lat="47.92312" lon="-3.85306">
        <ele>95.3</ele>
        <time>2019-02-02T17:12:51.272Z</time>
      </trkpt>
      <trkpt lat="47.92319" lon="-3.85368">
        <ele>95.2</ele>
        <time>2019-02-02T17:12:55.970Z</time>
      </trkpt>
      <trkpt lat="47.92325" lon="-3.85437">
        <ele>93.5</ele>
        <time>2019-02-02T17:13:01.169Z</time>
      </trkpt>
      <trkpt lat="47.92327" lon="-3.85454">
        <ele>93.3</ele>
        <time>2019-02-02T17:13:02.427Z</time>
      </trkpt>
      <trkpt lat="47.92334" lon="-3.85486">
        <ele>93.5</ele>
        <time>2019-02-02T17:13:04.918Z</time>
      </trkpt>
      <trkpt lat="47.92335" lon="-3.85493">
        <ele>93.4</ele>
        <time>2019-02-02T17:13:05.514Z</time>
      </trkpt>
      <trkpt lat="47.92336" lon="-3.85525">
        <ele>93</ele>
        <time>2019-02-02T17:13:07.857Z</time>
      </trkpt>
      <trkpt lat="47.92338" lon="-3.85562">
        <ele>92.6</ele>
        <time>2019-02-02T17:13:10.594Z</time>
      </trkpt>
      <trkpt lat="47.92345" lon="-3.85584">
        <ele>92.6</ele>
        <time>2019-02-02T17:13:12.477Z</time>
      </trkpt>
      <trkpt lat="47.92352" lon="-3.85597">
        <ele>93</ele>
        <time>2019-02-02T17:13:13.694Z</time>
      </trkpt>
      <trkpt lat="47.92356" lon="-3.8563">
        <ele>92.5</ele>
        <time>2019-02-02T17:13:16.170Z</time>
      </trkpt>
      <trkpt lat="47.92377" lon="-3.85646">
        <ele>93.1</ele>
        <time>2019-02-02T17:13:18.825Z</time>
      </trkpt>
      <trkpt lat="47.92388" lon="-3.85651">
        <ele>93.5</ele>
        <time>2019-02-02T17:13:20.059Z</time>
      </trkpt>
      <trkpt lat="47.92415" lon="-3.8566">
        <ele>94.5</ele>
        <time>2019-02-02T17:13:23.096Z</time>
      </trkpt>
      <trkpt lat="47.92442" lon="-3.85678">
        <ele>95.8</ele>
        <time>2019-02-02T17:13:26.403Z</time>
      </trkpt>
      <trkpt lat="47.92498" lon="-3.85684">
        <ele>93.7</ele>
        <time>2019-02-02T17:13:32.709Z</time>
      </trkpt>
      <trkpt lat="47.92518" lon="-3.85692">
        <ele>93.1</ele>
        <time>2019-02-02T17:13:35.022Z</time>
      </trkpt>
      <trkpt lat="47.92528" lon="-3.85704">
        <ele>93.1</ele>
        <time>2019-02-02T17:13:36.429Z</time>
      </trkpt>
      <trkpt lat="47.92536" lon="-3.85722">
        <ele>92.8</ele>
        <time>2019-02-02T17:13:38.022Z</time>
      </trkpt>
      <trkpt lat="47.92551" lon="-3.85796">
        <ele>91.9</ele>
        <time>2019-02-02T17:13:43.761Z</time>
      </trkpt>
      <trkpt lat="47.92582" lon="-3.85893">
        <ele>92.9</ele>
        <time>2019-02-02T17:13:51.784Z</time>
      </trkpt>
      <trkpt lat="47.92594" lon="-3.85908">
        <ele>93.9</ele>
        <time>2019-02-02T17:13:53.534Z</time>
      </trkpt>
      <trkpt lat="47.92616" lon="-3.85925">
        <ele>95</ele>
        <time>2019-02-02T17:13:56.269Z</time>
      </trkpt>
      <trkpt lat="47.9263" lon="-3.85938">
        <ele>95.7</ele>
        <time>2019-02-02T17:13:58.122Z</time>
      </trkpt>
      <trkpt lat="47.92644" lon="-3.85959">
        <ele>95.9</ele>
        <time>2019-02-02T17:14:00.287Z</time>
      </trkpt>
      <trkpt lat="47.92671" lon="-3.8599">
        <ele>97</ele>
        <time>2019-02-02T17:14:04.098Z</time>
      </trkpt>
      <trkpt lat="47.92718" lon="-3.86019">
        <ele>100.3</ele>
        <time>2019-02-02T17:14:09.791Z</time>
      </trkpt>
      <trkpt lat="47.92754" lon="-3.86038">
        <ele>102.2</ele>
        <time>2019-02-02T17:14:14.013Z</time>
      </trkpt>
      <trkpt lat="47.92778" lon="-3.86055">
        <ele>104.4</ele>
        <time>2019-02-02T17:14:17.026Z</time>
      </trkpt>
      <trkpt lat="47.92784" lon="-3.86066">
        <ele>105</ele>
        <time>2019-02-02T17:14:18.093Z</time>
      </trkpt>
      <trkpt lat="47.92801" lon="-3.86101">
        <ele>106.6</ele>
        <time>2019-02-02T17:14:21.293Z</time>
      </trkpt>
      <trkpt lat="47.92812" lon="-3.86121">
        <ele>107.4</ele>
        <time>2019-02-02T17:14:23.253Z</time>
      </trkpt>
      <trkpt lat="47.92828" lon="-3.86135">
        <ele>108.1</ele>
        <time>2019-02-02T17:14:25.274Z</time>
      </trkpt>
      <trkpt lat="47.92843" lon="-3.86147">
        <ele>108.8</ele>
        <time>2019-02-02T17:14:27.224Z</time>
      </trkpt>
      <trkpt lat="47.92863" lon="-3.86159">
        <ele>109</ele>
        <time>2019-02-02T17:14:29.591Z</time>
      </trkpt>
      <trkpt lat="47.92869" lon="-3.86168">
        <ele>109</ele>
        <time>2019-02-02T17:14:30.538Z</time>
      </trkpt>
      <trkpt lat="47.92884" lon="-3.86218">
        <ele>108.2</ele>
        <time>2019-02-02T17:14:34.557Z</time>
      </trkpt>
      <trkpt lat="47.9291" lon="-3.86253">
        <ele>107.2</ele>
        <time>2019-02-02T17:14:38.497Z</time>
      </trkpt>
      <trkpt lat="47.92932" lon="-3.86263">
        <ele>107</ele>
        <time>2019-02-02T17:14:41.099Z</time>
      </trkpt>
      <trkpt lat="47.9297" lon="-3.86299">
        <ele>106</ele>
        <time>2019-02-02T17:14:46.060Z</time>
      </trkpt>
      <trkpt lat="47.93032" lon="-3.86356">
        <ele>105.6</ele>
        <time>2019-02-02T17:14:54.182Z</time>
      </trkpt>
      <trkpt lat="47.93103" lon="-3.86412">
        <ele>104.7</ele>
        <time>2019-02-02T17:15:03.127Z</time>
      </trkpt>
      <trkpt lat="47.9315" lon="-3.865">
        <ele>101.1</ele>
        <time>2019-02-02T17:15:11.536Z</time>
      </trkpt>
      <trkpt lat="47.93172" lon="-3.86543">
        <ele>99.3</ele>
        <time>2019-02-02T17:15:15.542Z</time>
      </trkpt>
      <trkpt lat="47.93172" lon="-3.86556">
        <ele>96.7</ele>
        <time>2019-02-02T17:15:16.604Z</time>
      </trkpt>
      <trkpt lat="47.93227" lon="-3.86646">
        <ele>96.6</ele>
        <time>2019-02-02T17:15:25.697Z</time>
      </trkpt>
      <trkpt lat="47.93238" lon="-3.86656">
        <ele>96.6</ele>
        <time>2019-02-02T17:15:27.138Z</time>
      </trkpt>
      <trkpt lat="47.93257" lon="-3.86675">
        <ele>96.5</ele>
        <time>2019-02-02T17:15:29.637Z</time>
      </trkpt>
      <trkpt lat="47.93314" lon="-3.86741">
        <ele>97.1</ele>
        <time>2019-02-02T17:15:37.712Z</time>
      </trkpt>
      <trkpt lat="47.93338" lon="-3.86768">
        <ele>99</ele>
        <time>2019-02-02T17:15:41.025Z</time>
      </trkpt>
      <trkpt lat="47.93352" lon="-3.86777">
        <ele>100</ele>
        <time>2019-02-02T17:15:42.689Z</time>
      </trkpt>
      <trkpt lat="47.93359" lon="-3.86781">
        <ele>100.6</ele>
        <time>2019-02-02T17:15:43.587Z</time>
      </trkpt>
      <trkpt lat="47.93377" lon="-3.86782">
        <ele>101.2</ele>
        <time>2019-02-02T17:15:45.571Z</time>
      </trkpt>
      <trkpt lat="47.93394" lon="-3.86792">
        <ele>101.9</ele>
        <time>2019-02-02T17:15:47.633Z</time>
      </trkpt>
      <trkpt lat="47.93408" lon="-3.86815">
        <ele>104.6</ele>
        <time>2019-02-02T17:15:49.922Z</time>
      </trkpt>
      <trkpt lat="47.93413" lon="-3.86831">
        <ele>106.1</ele>
        <time>2019-02-02T17:15:51.276Z</time>
      </trkpt>
      <trkpt lat="47.93305" lon="-3.86861">
        <ele>112.3</ele>
        <time>2019-02-02T17:16:03.554Z</time>
      </trkpt>
      <trkpt lat="47.9325" lon="-3.86883">
        <ele>110.9</ele>
        <time>2019-02-02T17:16:09.806Z</time>
      </trkpt>
      <trkpt lat="47.93204" lon="-3.86918">
        <ele>109.1</ele>
        <time>2019-02-02T17:16:15.605Z</time>
      </trkpt>
      <trkpt lat="47.93171" lon="-3.86948">
        <ele>108.2</ele>
        <time>2019-02-02T17:16:19.867Z</time>
      </trkpt>
      <trkpt lat="47.93105" lon="-3.87034">
        <ele>103.6</ele>
        <time>2019-02-02T17:16:29.647Z</time>
      </trkpt>
      <trkpt lat="47.93085" lon="-3.87055">
        <ele>102.7</ele>
        <time>2019-02-02T17:16:32.373Z</time>
      </trkpt>
      <trkpt lat="47.93049" lon="-3.87086">
        <ele>101.8</ele>
        <time>2019-02-02T17:16:36.925Z</time>
      </trkpt>
      <trkpt lat="47.92939" lon="-3.87132">
        <ele>99.3</ele>
        <time>2019-02-02T17:16:49.640Z</time>
      </trkpt>
      <trkpt lat="47.92913" lon="-3.87144">
        <ele>99</ele>
        <time>2019-02-02T17:16:52.735Z</time>
      </trkpt>
      <trkpt lat="47.92858" lon="-3.87185">
        <ele>98.7</ele>
        <time>2019-02-02T17:16:59.534Z</time>
      </trkpt>
      <trkpt lat="47.92861" lon="-3.87218">
        <ele>99.7</ele>
        <time>2019-02-02T17:17:02.078Z</time>
      </trkpt>
      <trkpt lat="47.92866" lon="-3.87345">
        <ele>102.5</ele>
        <time>2019-02-02T17:17:11.529Z</time>
      </trkpt>
      <trkpt lat="47.9286" lon="-3.87529">
        <ele>100.5</ele>
        <time>2019-02-02T17:17:25.261Z</time>
      </trkpt>
      <trkpt lat="47.92861" lon="-3.87582">
        <ele>99.1</ele>
        <time>2019-02-02T17:17:29.207Z</time>
      </trkpt>
      <trkpt lat="47.92867" lon="-3.8765">
        <ele>97.2</ele>
        <time>2019-02-02T17:17:34.359Z</time>
      </trkpt>
      <trkpt lat="47.92872" lon="-3.87685">
        <ele>96.8</ele>
        <time>2019-02-02T17:17:36.980Z</time>
      </trkpt>
      <trkpt lat="47.92878" lon="-3.87719">
        <ele>96.8</ele>
        <time>2019-02-02T17:17:39.623Z</time>
      </trkpt>
      <trkpt lat="47.92875" lon="-3.87754">
        <ele>96.4</ele>
        <time>2019-02-02T17:17:42.210Z</time>
      </trkpt>
      <trkpt lat="47.92866" lon="-3.87768">
        <ele>95.2</ele>
        <time>2019-02-02T17:17:43.696Z</time>
      </trkpt>
      <trkpt lat="47.92844" lon="-3.87804">
        <ele>93.3</ele>
        <time>2019-02-02T17:17:47.335Z</time>
      </trkpt>
      <trkpt lat="47.9285" lon="-3.87813">
        <ele>94</ele>
        <time>2019-02-02T17:17:48.284Z</time>
      </trkpt>
      <trkpt lat="47.92855" lon="-3.87813">
        <ele>94.9</ele>
        <time>2019-02-02T17:17:48.897Z</time>
      </trkpt>
      <trkpt lat="47.92859" lon="-3.87812">
        <ele>95.5</ele>
        <time>2019-02-02T17:17:49.397Z</time>
      </trkpt>
      <trkpt lat="47.92864" lon="-3.87832">
        <ele>96.2</ele>
        <time>2019-02-02T17:17:51.022Z</time>
      </trkpt>
      <trkpt lat="47.92876" lon="-3.87891">
        <ele>96.2</ele>
        <time>2019-02-02T17:17:55.571Z</time>
      </trkpt>
      <trkpt lat="47.92908" lon="-3.88021">
        <ele>95.4</ele>
        <time>2019-02-02T17:18:05.903Z</time>
      </trkpt>
      <trkpt lat="47.92914" lon="-3.88047">
        <ele>95.7</ele>
        <time>2019-02-02T17:18:07.964Z</time>
      </trkpt>
      <trkpt lat="47.9292" lon="-3.88116">
        <ele>96.3</ele>
        <time>2019-02-02T17:18:13.125Z</time>
      </trkpt>
      <trkpt lat="47.92928" lon="-3.88157">
        <ele>96.9</ele>
        <time>2019-02-02T17:18:16.356Z</time>
      </trkpt>
      <trkpt lat="47.92938" lon="-3.8816">
        <ele>97.5</ele>
        <time>2019-02-02T17:18:17.543Z</time>
      </trkpt>
      <trkpt lat="47.92969" lon="-3.8816">
        <ele>100.5</ele>
        <time>2019-02-02T17:18:21.031Z</time>
      </trkpt>
      <trkpt lat="47.92975" lon="-3.88167">
        <ele>100.8</ele>
        <time>2019-02-02T17:18:21.840Z</time>
      </trkpt>
      <trkpt lat="47.9301" lon="-3.88229">
        <ele>102.7</ele>
        <time>2019-02-02T17:18:27.917Z</time>
      </trkpt>
      <trkpt lat="47.93031" lon="-3.8825">
        <ele>103.9</ele>
        <time>2019-02-02T17:18:30.729Z</time>
      </trkpt>
      <trkpt lat="47.93047" lon="-3.88279">
        <ele>103.8</ele>
        <time>2019-02-02T17:18:33.504Z</time>
      </trkpt>
      <trkpt lat="47.93025" lon="-3.88355">
        <ele>103.1</ele>
        <time>2019-02-02T17:18:39.661Z</time>
      </trkpt>
      <trkpt lat="47.93008" lon="-3.88407">
        <ele>103</ele>
        <time>2019-02-02T17:18:43.951Z</time>
      </trkpt>
      <trkpt lat="47.92998" lon="-3.885">
        <ele>103.5</ele>
        <time>2019-02-02T17:18:50.967Z</time>
      </trkpt>
      <trkpt lat="47.92993" lon="-3.88545">
        <ele>102.7</ele>
        <time>2019-02-02T17:18:54.404Z</time>
      </trkpt>
      <trkpt lat="47.92985" lon="-3.88598">
        <ele>102.2</ele>
        <time>2019-02-02T17:18:58.480Z</time>
      </trkpt>
      <trkpt lat="47.92971" lon="-3.8864">
        <ele>100.9</ele>
        <time>2019-02-02T17:19:01.903Z</time>
      </trkpt>
      <trkpt lat="47.9296" lon="-3.88653">
        <ele>100</ele>
        <time>2019-02-02T17:19:03.525Z</time>
      </trkpt>
      <trkpt lat="47.92944" lon="-3.8866">
        <ele>98.5</ele>
        <time>2019-02-02T17:19:05.380Z</time>
      </trkpt>
      <trkpt lat="47.92954" lon="-3.88678">
        <ele>98.8</ele>
        <time>2019-02-02T17:19:07.209Z</time>
      </trkpt>
      <trkpt lat="47.92978" lon="-3.88708">
        <ele>99.9</ele>
        <time>2019-02-02T17:19:10.682Z</time>
      </trkpt>
      <trkpt lat="47.92974" lon="-3.88736">
        <ele>99.1</ele>
        <time>2019-02-02T17:19:12.797Z</time>
      </trkpt>
      <trkpt lat="47.93" lon="-3.88742">
        <ele>100.2</ele>
        <time>2019-02-02T17:19:15.698Z</time>
      </trkpt>
      <trkpt lat="47.93022" lon="-3.88764">
        <ele>100.5</ele>
        <time>2019-02-02T17:19:18.690Z</time>
      </trkpt>
      <trkpt lat="47.93031" lon="-3.88804">
        <ele>99.8</ele>
        <time>2019-02-02T17:19:21.804Z</time>
      </trkpt>
      <trkpt lat="47.93046" lon="-3.8883">
        <ele>99.1</ele>
        <time>2019-02-02T17:19:24.325Z</time>
      </trkpt>
      <trkpt lat="47.93062" lon="-3.88809">
        <ele>100.2</ele>
        <time>2019-02-02T17:19:26.654Z</time>
      </trkpt>
      <trkpt lat="47.93076" lon="-3.88805">
        <ele>100</ele>
        <time>2019-02-02T17:19:28.297Z</time>
      </trkpt>
      <trkpt lat="47.93118" lon="-3.88814">
        <ele>101</ele>
        <time>2019-02-02T17:19:33.056Z</time>
      </trkpt>
      <trkpt lat="47.93132" lon="-3.88805">
        <ele>101.6</ele>
        <time>2019-02-02T17:19:34.710Z</time>
      </trkpt>
      <trkpt lat="47.93154" lon="-3.88784">
        <ele>102</ele>
        <time>2019-02-02T17:19:37.573Z</time>
      </trkpt>
      <trkpt lat="47.93204" lon="-3.88674">
        <ele>101.1</ele>
        <time>2019-02-02T17:19:47.581Z</time>
      </trkpt>
      <trkpt lat="47.93228" lon="-3.88649">
        <ele>100.5</ele>
        <time>2019-02-02T17:19:50.814Z</time>
      </trkpt>
      <trkpt lat="47.93276" lon="-3.88619">
        <ele>99.7</ele>
        <time>2019-02-02T17:19:56.591Z</time>
      </trkpt>
      <trkpt lat="47.93306" lon="-3.88598">
        <ele>100</ele>
        <time>2019-02-02T17:20:00.296Z</time>
      </trkpt>
      <trkpt lat="47.93397" lon="-3.88534">
        <ele>104.2</ele>
        <time>2019-02-02T17:20:11.378Z</time>
      </trkpt>
      <trkpt lat="47.93475" lon="-3.88473">
        <ele>105.2</ele>
        <time>2019-02-02T17:20:21.234Z</time>
      </trkpt>
      <trkpt lat="47.93517" lon="-3.8847">
        <ele>103.3</ele>
        <time>2019-02-02T17:20:25.920Z</time>
      </trkpt>
      <trkpt lat="47.93628" lon="-3.88488">
        <ele>95.2</ele>
        <time>2019-02-02T17:20:38.326Z</time>
      </trkpt>
      <trkpt lat="47.93647" lon="-3.88475">
        <ele>95.5</ele>
        <time>2019-02-02T17:20:40.685Z</time>
      </trkpt>
      <trkpt lat="47.93761" lon="-3.88408">
        <ele>102.6</ele>
        <time>2019-02-02T17:20:54.286Z</time>
      </trkpt>
      <trkpt lat="47.93839" lon="-3.88331">
        <ele>104.4</ele>
        <time>2019-02-02T17:21:04.742Z</time>
      </trkpt>
      <trkpt lat="47.93854" lon="-3.88327">
        <ele>104</ele>
        <time>2019-02-02T17:21:06.366Z</time>
      </trkpt>
      <trkpt lat="47.93855" lon="-3.88335">
        <ele>103.6</ele>
        <time>2019-02-02T17:21:06.997Z</time>
      </trkpt>
      <trkpt lat="47.93923" lon="-3.88552">
        <ele>95.1</ele>
        <time>2019-02-02T17:21:24.844Z</time>
      </trkpt>
      <trkpt lat="47.93958" lon="-3.88706">
        <ele>95.9</ele>
        <time>2019-02-02T17:21:36.929Z</time>
      </trkpt>
      <trkpt lat="47.93988" lon="-3.88805">
        <ele>97.6</ele>
        <time>2019-02-02T17:21:45.124Z</time>
      </trkpt>
      <trkpt lat="47.94003" lon="-3.88852">
        <ele>97.5</ele>
        <time>2019-02-02T17:21:48.936Z</time>
      </trkpt>
      <trkpt lat="47.94018" lon="-3.88915">
        <ele>98.3</ele>
        <time>2019-02-02T17:21:53.925Z</time>
      </trkpt>
      <trkpt lat="47.94018" lon="-3.88989">
        <ele>100.1</ele>
        <time>2019-02-02T17:21:59.411Z</time>
      </trkpt>
      <trkpt lat="47.94015" lon="-3.89067">
        <ele>100.7</ele>
        <time>2019-02-02T17:22:05.276Z</time>
      </trkpt>
      <trkpt lat="47.94011" lon="-3.89145">
        <ele>101.1</ele>
        <time>2019-02-02T17:22:11.116Z</time>
      </trkpt>
      <trkpt lat="47.94011" lon="-3.89212">
        <ele>101</ele>
        <time>2019-02-02T17:22:16.073Z</time>
      </trkpt>
      <trkpt lat="47.94019" lon="-3.89263">
        <ele>98</ele>
        <time>2019-02-02T17:22:20.035Z</time>
      </trkpt>
      <trkpt lat="47.94026" lon="-3.89283">
        <ele>98.2</ele>
        <time>2019-02-02T17:22:21.658Z</time>
      </trkpt>
      <trkpt lat="47.94048" lon="-3.89335">
        <ele>96.3</ele>
        <time>2019-02-02T17:22:26.302Z</time>
        <extensions>
          <visugpx:TrkExtension xmlns:visugpx="https://www.visugpx.com/editgpx/">
            <visugpx:node>4</visugpx:node>
            </visugpx:TrkExtension>
        </extensions>
      </trkpt>
      <trkpt lat="47.94077" lon="-3.89411">
        <ele>93</ele>
        <time>2021-04-05T10:55:55.694Z</time>
        <extensions>
          <visugpx:TrkExtension xmlns:visugpx="https://www.visugpx.com/editgpx/">
            <visugpx:node>5</visugpx:node>
            </visugpx:TrkExtension>
        </extensions>
      </trkpt>
      <trkpt lat="47.94085" lon="-3.89454">
        <ele>90.7</ele>
        <time>2021-04-05T10:55:52.351Z</time>
      </trkpt>
      <trkpt lat="47.94087" lon="-3.89464">
        <ele>90.2</ele>
        <time>2021-04-05T10:55:51.568Z</time>
      </trkpt>
      <trkpt lat="47.94109" lon="-3.89559">
        <ele>86</ele>
        <time>2021-04-05T10:55:44.123Z</time>
      </trkpt>
      <trkpt lat="47.94117" lon="-3.8959">
        <ele>86</ele>
        <time>2021-04-05T10:55:41.568Z</time>
      </trkpt>
      <trkpt lat="47.94125" lon="-3.89621">
        <ele>86</ele>
        <time>2021-04-05T10:55:39.118Z</time>
      </trkpt>
      <trkpt lat="47.94127" lon="-3.89652">
        <ele>86.1</ele>
        <time>2021-04-05T10:55:36.798Z</time>
      </trkpt>
      <trkpt lat="47.94127" lon="-3.89661">
        <ele>86.3</ele>
        <time>2021-04-05T10:55:36.109Z</time>
      </trkpt>
      <trkpt lat="47.94127" lon="-3.89715">
        <ele>86.8</ele>
        <time>2021-04-05T10:55:32.138Z</time>
      </trkpt>
      <trkpt lat="47.94131" lon="-3.89736">
        <ele>88</ele>
        <time>2021-04-05T10:55:30.486Z</time>
      </trkpt>
      <trkpt lat="47.94134" lon="-3.89749">
        <ele>88.7</ele>
        <time>2021-04-05T10:55:29.447Z</time>
      </trkpt>
      <trkpt lat="47.94136" lon="-3.89768">
        <ele>89.8</ele>
        <time>2021-04-05T10:55:27.989Z</time>
      </trkpt>
      <trkpt lat="47.94125" lon="-3.89852">
        <ele>91.8</ele>
        <time>2021-04-05T10:55:21.656Z</time>
      </trkpt>
      <trkpt lat="47.94125" lon="-3.89885">
        <ele>92.6</ele>
        <time>2021-04-05T10:55:19.155Z</time>
      </trkpt>
      <trkpt lat="47.94138" lon="-3.90024">
        <ele>91.2</ele>
        <time>2021-04-05T10:55:08.737Z</time>
      </trkpt>
      <trkpt lat="47.94154" lon="-3.9019">
        <ele>87.8</ele>
        <time>2021-04-05T10:54:56.235Z</time>
      </trkpt>
      <trkpt lat="47.94168" lon="-3.90349">
        <ele>93.3</ele>
        <time>2021-04-05T10:54:44.291Z</time>
      </trkpt>
      <trkpt lat="47.94183" lon="-3.90502">
        <ele>94.5</ele>
        <time>2021-04-05T10:54:32.750Z</time>
      </trkpt>
      <trkpt lat="47.942" lon="-3.90648">
        <ele>92.9</ele>
        <time>2021-04-05T10:54:21.763Z</time>
      </trkpt>
      <trkpt lat="47.94223" lon="-3.90791">
        <ele>88</ele>
        <time>2021-04-05T10:54:10.748Z</time>
      </trkpt>
      <trkpt lat="47.9425" lon="-3.90895">
        <ele>82.9</ele>
        <time>2021-04-05T10:54:02.460Z</time>
      </trkpt>
      <trkpt lat="47.94262" lon="-3.90939">
        <ele>84.8</ele>
        <time>2021-04-05T10:53:58.625Z</time>
      </trkpt>
      <trkpt lat="47.94262" lon="-3.90939">
        <ele>84.8</ele>
        <time>2021-04-05T10:53:58.625Z</time>
      </trkpt>
      <trkpt lat="47.94294" lon="-3.90921">
        <ele>83.3</ele>
        <time>2021-04-05T10:53:56.492Z</time>
      </trkpt>
      <trkpt lat="47.94325" lon="-3.90899">
        <ele>83.8</ele>
        <time>2021-04-05T10:53:50.590Z</time>
      </trkpt>
      <trkpt lat="47.94367" lon="-3.90897">
        <ele>87.7</ele>
        <time>2021-04-05T10:53:45.854Z</time>
      </trkpt>
      <trkpt lat="47.94397" lon="-3.90879">
        <ele>92.2</ele>
        <time>2021-04-05T10:53:42.319Z</time>
      </trkpt>
      <trkpt lat="47.94423" lon="-3.90833">
        <ele>95.5</ele>
        <time>2021-04-05T10:53:37.866Z</time>
      </trkpt>
      <trkpt lat="47.9447" lon="-3.90759">
        <ele>99.6</ele>
        <time>2021-04-05T10:53:30.218Z</time>
      </trkpt>
      <trkpt lat="47.94503" lon="-3.90725">
        <ele>101.9</ele>
        <time>2021-04-05T10:53:25.809Z</time>
      </trkpt>
      <trkpt lat="47.94623" lon="-3.90703">
        <ele>116.6</ele>
        <time>2021-04-05T10:53:12.244Z</time>
      </trkpt>
      <trkpt lat="47.94705" lon="-3.90711">
        <ele>125.2</ele>
        <time>2021-04-05T10:53:03.055Z</time>
      </trkpt>
      <trkpt lat="47.94728" lon="-3.907">
        <ele>126.5</ele>
        <time>2021-04-05T10:53:00.379Z</time>
      </trkpt>
      <trkpt lat="47.94728" lon="-3.907">
        <ele>126.5</ele>
        <time>2021-04-05T10:53:00.379Z</time>
      </trkpt>
      <trkpt lat="47.94839" lon="-3.90609">
        <ele>129.7</ele>
        <time>2021-04-05T10:52:46.319Z</time>
      </trkpt>
      <trkpt lat="47.94909" lon="-3.90537">
        <ele>128.4</ele>
        <time>2021-04-05T10:52:36.873Z</time>
      </trkpt>
      <trkpt lat="47.94909" lon="-3.90537">
        <ele>128.4</ele>
        <time>2021-04-05T10:52:36.847Z</time>
      </trkpt>
      <trkpt lat="47.94964" lon="-3.90477">
        <ele>129</ele>
        <time>2021-04-05T10:52:32.687Z</time>
      </trkpt>
      <trkpt lat="47.94986" lon="-3.90446">
        <ele>128.8</ele>
        <time>2021-04-05T10:52:30.802Z</time>
      </trkpt>
      <trkpt lat="47.94986" lon="-3.90446">
        <ele>128.8</ele>
        <time>2021-04-05T10:52:30.802Z</time>
      </trkpt>
      <trkpt lat="47.95" lon="-3.90452">
        <ele>130.1</ele>
        <time>2021-04-05T10:52:29.899Z</time>
      </trkpt>
      <trkpt lat="47.95043" lon="-3.90453">
        <ele>132.1</ele>
        <time>2021-04-05T10:52:27.288Z</time>
      </trkpt>
      <trkpt lat="47.95125" lon="-3.90455">
        <ele>131.7</ele>
        <time>2021-04-05T10:52:22.263Z</time>
      </trkpt>
      <trkpt lat="47.95147" lon="-3.90456">
        <ele>131.3</ele>
        <time>2021-04-05T10:52:20.884Z</time>
      </trkpt>
      <trkpt lat="47.95178" lon="-3.90457">
        <ele>132.7</ele>
        <time>2021-04-05T10:52:18.982Z</time>
      </trkpt>
      <trkpt lat="47.95299" lon="-3.90457">
        <ele>142.4</ele>
        <time>2021-04-05T10:52:11.548Z</time>
      </trkpt>
      <trkpt lat="47.95339" lon="-3.90458">
        <ele>143.5</ele>
        <time>2021-04-05T10:52:09.107Z</time>
      </trkpt>
      <trkpt lat="47.95439" lon="-3.90462">
        <ele>143.2</ele>
        <time>2021-04-05T10:52:02.992Z</time>
      </trkpt>
      <trkpt lat="47.95439" lon="-3.90462">
        <ele>143.2</ele>
        <time>2021-04-05T10:52:02.992Z</time>
      </trkpt>
      <trkpt lat="47.9552" lon="-3.90464">
        <ele>143</ele>
        <time>2021-04-05T10:51:57.984Z</time>
      </trkpt>
      <trkpt lat="47.95594" lon="-3.90464">
        <ele>143.7</ele>
        <time>2021-04-05T10:51:53.477Z</time>
      </trkpt>
      <trkpt lat="47.95678" lon="-3.90466">
        <ele>142.6</ele>
        <time>2021-04-05T10:51:48.326Z</time>
      </trkpt>
      <trkpt lat="47.95678" lon="-3.90434">
        <ele>142.5</ele>
        <time>2021-04-05T10:51:47.013Z</time>
      </trkpt>
      <trkpt lat="47.95679" lon="-3.90396">
        <ele>142.6</ele>
        <time>2021-04-05T10:51:45.424Z</time>
      </trkpt>
      <trkpt lat="47.9568" lon="-3.90306">
        <ele>142</ele>
        <time>2021-04-05T10:51:41.726Z</time>
      </trkpt>
      <trkpt lat="47.95672" lon="-3.90291">
        <ele>142</ele>
        <time>2021-04-05T10:51:41.202Z</time>
      </trkpt>
      <trkpt lat="47.95676" lon="-3.90191">
        <ele>138.7</ele>
        <time>2021-04-05T10:51:38.291Z</time>
      </trkpt>
      <trkpt lat="47.95676" lon="-3.90191">
        <ele>138.7</ele>
        <time>2021-04-05T10:51:38.291Z</time>
      </trkpt>
      <trkpt lat="47.95685" lon="-3.90126">
        <ele>134.5</ele>
        <time>2021-04-05T10:51:34.742Z</time>
      </trkpt>
      <trkpt lat="47.95701" lon="-3.90035">
        <ele>131.5</ele>
        <time>2021-04-05T10:51:29.743Z</time>
      </trkpt>
      <trkpt lat="47.95716" lon="-3.89942">
        <ele>128.4</ele>
        <time>2021-04-05T10:51:28.533Z</time>
      </trkpt>
      <trkpt lat="47.95716" lon="-3.89942">
        <ele>128.4</ele>
        <time>2021-04-05T10:51:28.533Z</time>
      </trkpt>
      <trkpt lat="47.95734" lon="-3.89855">
        <ele>128.2</ele>
        <time>2021-04-05T10:51:26.565Z</time>
      </trkpt>
      <trkpt lat="47.9574" lon="-3.89763">
        <ele>125.7</ele>
        <time>2021-04-05T10:51:25.993Z</time>
      </trkpt>
      <trkpt lat="47.9574" lon="-3.89763">
        <ele>125.7</ele>
        <time>2021-04-05T10:51:25.993Z</time>
      </trkpt>
      <trkpt lat="47.95741" lon="-3.89738">
        <ele>125.8</ele>
        <time>2021-04-05T10:51:25.841Z</time>
      </trkpt>
      <trkpt lat="47.95746" lon="-3.89741">
        <ele>125.6</ele>
        <time>2021-04-05T10:51:25.784Z</time>
      </trkpt>
      <trkpt lat="47.9575" lon="-3.89809">
        <ele>125.6</ele>
        <time>2021-04-05T10:51:25.365Z</time>
      </trkpt>
      <trkpt lat="47.95765" lon="-3.8981">
        <ele>125.6</ele>
        <time>2021-04-05T10:51:25.224Z</time>
      </trkpt>
      <trkpt lat="47.95778" lon="-3.8979">
        <ele>125</ele>
        <time>2021-04-05T10:51:25.051Z</time>
      </trkpt>
      <trkpt lat="47.95798" lon="-3.89768">
        <ele>124.2</ele>
        <time>2021-04-05T10:51:24.826Z</time>
      </trkpt>
      <trkpt lat="47.95827" lon="-3.89764">
        <ele>123.7</ele>
        <time>2021-04-05T10:51:24.555Z</time>
      </trkpt>
      <trkpt lat="47.9584" lon="-3.89765">
        <ele>123.1</ele>
        <time>2021-04-05T10:51:24.439Z</time>
      </trkpt>
      <trkpt lat="47.95854" lon="-3.89762">
        <ele>123</ele>
        <time>2021-04-05T10:51:24.309Z</time>
      </trkpt>
      <trkpt lat="47.95865" lon="-3.89764">
        <ele>123</ele>
        <time>2021-04-05T10:51:24.209Z</time>
      </trkpt>
      <trkpt lat="47.95865" lon="-3.89782">
        <ele>124.4</ele>
        <time>2021-04-05T10:51:24.097Z</time>
      </trkpt>
      <trkpt lat="47.95851" lon="-3.89787">
        <ele>124.6</ele>
        <time>2021-04-05T10:51:23.965Z</time>
      </trkpt>
      <trkpt lat="47.95835" lon="-3.8979">
        <ele>124.5</ele>
        <time>2021-04-05T10:51:23.816Z</time>
      </trkpt>
      <trkpt lat="47.9582" lon="-3.89804">
        <ele>125.3</ele>
        <time>2021-04-05T10:51:23.652Z</time>
      </trkpt>
      <trkpt lat="47.9581" lon="-3.89802">
        <ele>125.3</ele>
        <time>2021-04-05T10:51:23.558Z</time>
      </trkpt>
      <trkpt lat="47.95801" lon="-3.89799">
        <ele>125.1</ele>
        <time>2021-04-05T10:51:23.475Z</time>
      </trkpt>
      <trkpt lat="47.95792" lon="-3.89804">
        <ele>125.3</ele>
        <time>2021-04-05T10:51:23.386Z</time>
      </trkpt>
      <trkpt lat="47.95788" lon="-3.8982">
        <ele>125.8</ele>
        <time>2021-04-05T10:51:23.281Z</time>
      </trkpt>
      <trkpt lat="47.95782" lon="-3.89838">
        <ele>126.5</ele>
        <time>2021-04-05T10:51:23.158Z</time>
      </trkpt>
      <trkpt lat="47.95781" lon="-3.89869">
        <ele>127.6</ele>
        <time>2021-04-05T10:51:22.967Z</time>
      </trkpt>
      <trkpt lat="47.95779" lon="-3.89909">
        <ele>127.6</ele>
        <time>2021-04-05T10:51:22.722Z</time>
      </trkpt>
      <trkpt lat="47.95791" lon="-3.89936">
        <ele>128.3</ele>
        <time>2021-04-05T10:51:22.518Z</time>
      </trkpt>
      <trkpt lat="47.958" lon="-3.89953">
        <ele>128.8</ele>
        <time>2021-04-05T10:51:22.387Z</time>
      </trkpt>
      <trkpt lat="47.95808" lon="-3.89963">
        <ele>129.1</ele>
        <time>2021-04-05T10:51:22.294Z</time>
      </trkpt>
      <trkpt lat="47.95814" lon="-3.89963">
        <ele>129.6</ele>
        <time>2021-04-05T10:51:22.238Z</time>
      </trkpt>
      <trkpt lat="47.95835" lon="-3.89956">
        <ele>131.3</ele>
        <time>2021-04-05T10:51:22.035Z</time>
      </trkpt>
      <trkpt lat="47.95842" lon="-3.89955">
        <ele>131.7</ele>
        <time>2021-04-05T10:51:21.977Z</time>
      </trkpt>
      <trkpt lat="47.95845" lon="-3.89958">
        <ele>131.9</ele>
        <time>2021-04-05T10:51:21.942Z</time>
      </trkpt>
      <trkpt lat="47.95847" lon="-3.89966">
        <ele>131.8</ele>
        <time>2021-04-05T10:51:21.887Z</time>
      </trkpt>
      <trkpt lat="47.95809" lon="-3.89983">
        <ele>129.6</ele>
        <time>2021-04-05T10:51:21.523Z</time>
      </trkpt>
      <trkpt lat="47.95814" lon="-3.90005">
        <ele>130.1</ele>
        <time>2021-04-05T10:51:21.376Z</time>
      </trkpt>
      <trkpt lat="47.95818" lon="-3.90019">
        <ele>130.3</ele>
        <time>2021-04-05T10:51:21.283Z</time>
      </trkpt>
      <trkpt lat="47.95827" lon="-3.90043">
        <ele>131.3</ele>
        <time>2021-04-05T10:51:21.113Z</time>
      </trkpt>
      <trkpt lat="47.95839" lon="-3.90058">
        <ele>131.9</ele>
        <time>2021-04-05T10:51:20.972Z</time>
      </trkpt>
      <trkpt lat="47.95856" lon="-3.90081">
        <ele>132.9</ele>
        <time>2021-04-05T10:51:20.757Z</time>
      </trkpt>
      <trkpt lat="47.9586" lon="-3.90085">
        <ele>133.2</ele>
        <time>2021-04-05T10:51:20.717Z</time>
      </trkpt>
      <trkpt lat="47.95879" lon="-3.90134">
        <ele>133.6</ele>
        <time>2021-04-05T10:51:20.362Z</time>
      </trkpt>
      <trkpt lat="47.95883" lon="-3.90129">
        <ele>133.7</ele>
        <time>2021-04-05T10:51:20.318Z</time>
      </trkpt>
      <trkpt lat="47.95888" lon="-3.9012">
        <ele>133.9</ele>
        <time>2021-04-05T10:51:20.248Z</time>
      </trkpt>
      <trkpt lat="47.95889" lon="-3.901">
        <ele>134.2</ele>
        <time>2021-04-05T10:51:20.121Z</time>
      </trkpt>
      <trkpt lat="47.95884" lon="-3.9009">
        <ele>134.3</ele>
        <time>2021-04-05T10:51:20.045Z</time>
      </trkpt>
      <trkpt lat="47.95888" lon="-3.90082">
        <ele>134.7</ele>
        <time>2021-04-05T10:51:19.982Z</time>
      </trkpt>
      <trkpt lat="47.9589" lon="-3.90041">
        <ele>134.7</ele>
        <time>2021-04-05T10:51:19.731Z</time>
      </trkpt>
      <trkpt lat="47.95884" lon="-3.90008">
        <ele>134.5</ele>
        <time>2021-04-05T10:51:19.516Z</time>
      </trkpt>
      <trkpt lat="47.9588" lon="-3.89972">
        <ele>134.2</ele>
        <time>2021-04-05T10:51:19.295Z</time>
      </trkpt>
      <trkpt lat="47.95873" lon="-3.89963">
        <ele>133.8</ele>
        <time>2021-04-05T10:51:19.207Z</time>
      </trkpt>
      <trkpt lat="47.95854" lon="-3.8996">
        <ele>132.4</ele>
        <time>2021-04-05T10:51:19.034Z</time>
      </trkpt>
      <trkpt lat="47.95851" lon="-3.8995">
        <ele>132.4</ele>
        <time>2021-04-05T10:51:18.968Z</time>
      </trkpt>
      <trkpt lat="47.95864" lon="-3.89936">
        <ele>133.4</ele>
        <time>2021-04-05T10:51:18.819Z</time>
      </trkpt>
      <trkpt lat="47.95859" lon="-3.8991">
        <ele>133.1</ele>
        <time>2021-04-05T10:51:18.648Z</time>
      </trkpt>
      <trkpt lat="47.95862" lon="-3.89881">
        <ele>132.5</ele>
        <time>2021-04-05T10:51:18.470Z</time>
      </trkpt>
      <trkpt lat="47.95859" lon="-3.89862">
        <ele>131.4</ele>
        <time>2021-04-05T10:51:18.344Z</time>
      </trkpt>
      <trkpt lat="47.9585" lon="-3.89845">
        <ele>129.7</ele>
        <time>2021-04-05T10:51:18.215Z</time>
      </trkpt>
      <trkpt lat="47.95849" lon="-3.89821">
        <ele>127.6</ele>
        <time>2021-04-05T10:51:18.065Z</time>
      </trkpt>
      <trkpt lat="47.9587" lon="-3.8978">
        <ele>124.3</ele>
        <time>2021-04-05T10:51:17.747Z</time>
      </trkpt>
      <trkpt lat="47.95873" lon="-3.89753">
        <ele>123.1</ele>
        <time>2021-04-05T10:51:17.577Z</time>
      </trkpt>
      <trkpt lat="47.95873" lon="-3.89738">
        <ele>123</ele>
        <time>2021-04-05T10:51:17.486Z</time>
      </trkpt>
      <trkpt lat="47.95889" lon="-3.89731">
        <ele>123.6</ele>
        <time>2021-04-05T10:51:17.330Z</time>
      </trkpt>
      <trkpt lat="47.95984" lon="-3.8972">
        <ele>121.8</ele>
        <time>2021-04-05T10:51:16.453Z</time>
      </trkpt>
      <trkpt lat="47.96032" lon="-3.89695">
        <ele>120.2</ele>
        <time>2021-04-05T10:51:15.984Z</time>
      </trkpt>
      <trkpt lat="47.96076" lon="-3.89685">
        <ele>118.3</ele>
        <time>2021-04-05T10:51:15.579Z</time>
      </trkpt>
      <trkpt lat="47.96101" lon="-3.89686">
        <ele>117.3</ele>
        <time>2021-04-05T10:51:15.349Z</time>
      </trkpt>
      <trkpt lat="47.96116" lon="-3.89685">
        <ele>117.5</ele>
        <time>2021-04-05T10:51:15.210Z</time>
      </trkpt>
      <trkpt lat="47.96204" lon="-3.89703">
        <ele>114.8</ele>
        <time>2021-04-05T10:51:14.390Z</time>
      </trkpt>
      <trkpt lat="47.96223" lon="-3.89704">
        <ele>114.5</ele>
        <time>2021-04-05T10:51:14.211Z</time>
      </trkpt>
      <trkpt lat="47.96243" lon="-3.89702">
        <ele>114.7</ele>
        <time>2021-04-05T10:51:14.034Z</time>
      </trkpt>
      <trkpt lat="47.96255" lon="-3.89696">
        <ele>115</ele>
        <time>2021-04-05T10:51:13.911Z</time>
      </trkpt>
      <trkpt lat="47.96264" lon="-3.89685">
        <ele>114.9</ele>
        <time>2021-04-05T10:51:13.804Z</time>
      </trkpt>
      <trkpt lat="47.96253" lon="-3.89666">
        <ele>118</ele>
        <time>2021-04-05T10:51:13.647Z</time>
      </trkpt>
      <trkpt lat="47.96246" lon="-3.89659">
        <ele>119.1</ele>
        <time>2021-04-05T10:51:13.575Z</time>
      </trkpt>
      <trkpt lat="47.9624" lon="-3.89662">
        <ele>119.1</ele>
        <time>2021-04-05T10:51:13.512Z</time>
      </trkpt>
      <trkpt lat="47.96228" lon="-3.89667">
        <ele>119.2</ele>
        <time>2021-04-05T10:51:13.400Z</time>
      </trkpt>
      <trkpt lat="47.96201" lon="-3.89658">
        <ele>120.6</ele>
        <time>2021-04-05T10:51:13.144Z</time>
      </trkpt>
      <trkpt lat="47.96157" lon="-3.89653">
        <ele>121.2</ele>
        <time>2021-04-05T10:51:12.737Z</time>
      </trkpt>
      <trkpt lat="47.96112" lon="-3.89652">
        <ele>121.1</ele>
        <time>2021-04-05T10:51:12.329Z</time>
      </trkpt>
      <trkpt lat="47.96071" lon="-3.89655">
        <ele>122.5</ele>
        <time>2021-04-05T10:51:11.950Z</time>
      </trkpt>
      <trkpt lat="47.96032" lon="-3.89641">
        <ele>128.3</ele>
        <time>2021-04-05T10:51:11.579Z</time>
      </trkpt>
      <trkpt lat="47.96014" lon="-3.89619">
        <ele>132.7</ele>
        <time>2021-04-05T10:51:11.360Z</time>
      </trkpt>
      <trkpt lat="47.96014" lon="-3.89619">
        <ele>132.7</ele>
        <time>2021-04-05T10:51:11.360Z</time>
      </trkpt>
      <trkpt lat="47.96025" lon="-3.89612">
        <ele>132.3</ele>
        <time>2021-04-05T10:51:11.251Z</time>
      </trkpt>
      <trkpt lat="47.96046" lon="-3.89587">
        <ele>132</ele>
        <time>2021-04-05T10:51:11.001Z</time>
      </trkpt>
      <trkpt lat="47.96056" lon="-3.89555">
        <ele>132.1</ele>
        <time>2021-04-05T10:51:10.782Z</time>
      </trkpt>
      <trkpt lat="47.96056" lon="-3.89555">
        <ele>132.1</ele>
        <time>2021-04-05T10:51:10.782Z</time>
      </trkpt>
      <trkpt lat="47.96088" lon="-3.89548">
        <ele>131.3</ele>
        <time>2021-04-05T10:51:10.489Z</time>
      </trkpt>
      <trkpt lat="47.96105" lon="-3.89548">
        <ele>131</ele>
        <time>2021-04-05T10:51:09.244Z</time>
      </trkpt>
      <trkpt lat="47.96167" lon="-3.89557">
        <ele>129.2</ele>
        <time>2021-04-05T10:51:04.717Z</time>
      </trkpt>
      <trkpt lat="47.96213" lon="-3.89569">
        <ele>126.2</ele>
        <time>2021-04-05T10:51:03.552Z</time>
      </trkpt>
      <trkpt lat="47.96245" lon="-3.89587">
        <ele>123.6</ele>
        <time>2021-04-05T10:51:02.713Z</time>
      </trkpt>
      <trkpt lat="47.96241" lon="-3.89643">
        <ele>120.8</ele>
        <time>2021-04-05T10:51:02.401Z</time>
      </trkpt>
      <trkpt lat="47.96262" lon="-3.89662">
        <ele>117.3</ele>
        <time>2021-04-05T10:51:02.201Z</time>
      </trkpt>
      <trkpt lat="47.96271" lon="-3.89681">
        <ele>114.4</ele>
        <time>2021-04-05T10:51:02.072Z</time>
      </trkpt>
      <trkpt lat="47.9629" lon="-3.89676">
        <ele>113.2</ele>
        <time>2021-04-05T10:51:01.915Z</time>
      </trkpt>
      <trkpt lat="47.9632" lon="-3.8965">
        <ele>112.4</ele>
        <time>2021-04-05T10:51:01.635Z</time>
      </trkpt>
      <trkpt lat="47.96332" lon="-3.89707">
        <ele>115</ele>
        <time>2021-04-05T10:51:01.308Z</time>
      </trkpt>
      <trkpt lat="47.96313" lon="-3.89744">
        <ele>117.3</ele>
        <time>2021-04-05T10:51:01.051Z</time>
      </trkpt>
      <trkpt lat="47.96275" lon="-3.8979">
        <ele>116.7</ele>
        <time>2021-04-05T10:51:00.651Z</time>
      </trkpt>
      <trkpt lat="47.96275" lon="-3.8979">
        <ele>116.7</ele>
        <time>2021-04-05T10:51:00.651Z</time>
      </trkpt>
      <trkpt lat="47.96339" lon="-3.89948">
        <ele>124.2</ele>
        <time>2021-04-05T10:50:58.111Z</time>
      </trkpt>
      <trkpt lat="47.96342" lon="-3.90098">
        <ele>129.8</ele>
        <time>2021-04-05T10:50:57.076Z</time>
      </trkpt>
      <trkpt lat="47.96344" lon="-3.90217">
        <ele>135.8</ele>
        <time>2021-04-05T10:50:56.256Z</time>
      </trkpt>
      <trkpt lat="47.96347" lon="-3.90265">
        <ele>137.8</ele>
        <time>2021-04-05T10:50:54.257Z</time>
      </trkpt>
      <trkpt lat="47.96353" lon="-3.90311">
        <ele>139.2</ele>
        <time>2021-04-05T10:50:52.345Z</time>
      </trkpt>
      <trkpt lat="47.96363" lon="-3.90377">
        <ele>141.1</ele>
        <time>2021-04-05T10:50:49.555Z</time>
      </trkpt>
      <trkpt lat="47.96373" lon="-3.90434">
        <ele>142</ele>
        <time>2021-04-05T10:50:47.111Z</time>
      </trkpt>
      <trkpt lat="47.96374" lon="-3.90443">
        <ele>142</ele>
        <time>2021-04-05T10:50:46.743Z</time>
      </trkpt>
      <trkpt lat="47.9638" lon="-3.90487">
        <ele>142.1</ele>
        <time>2021-04-05T10:50:44.881Z</time>
      </trkpt>
      <trkpt lat="47.9638" lon="-3.90519">
        <ele>142.2</ele>
        <time>2021-04-05T10:50:43.594Z</time>
      </trkpt>
      <trkpt lat="47.96378" lon="-3.90543">
        <ele>142.2</ele>
        <time>2021-04-05T10:50:42.590Z</time>
      </trkpt>
      <trkpt lat="47.96376" lon="-3.90572">
        <ele>142</ele>
        <time>2021-04-05T10:50:41.382Z</time>
      </trkpt>
      <trkpt lat="47.96376" lon="-3.90606">
        <ele>142</ele>
        <time>2021-04-05T10:50:39.993Z</time>
      </trkpt>
      <trkpt lat="47.96378" lon="-3.90649">
        <ele>142</ele>
        <time>2021-04-05T10:50:38.214Z</time>
      </trkpt>
      <trkpt lat="47.96381" lon="-3.90682">
        <ele>141.7</ele>
        <time>2021-04-05T10:50:36.854Z</time>
      </trkpt>
      <trkpt lat="47.96384" lon="-3.90714">
        <ele>141</ele>
        <time>2021-04-05T10:50:35.541Z</time>
      </trkpt>
      <trkpt lat="47.96386" lon="-3.90748">
        <ele>140</ele>
        <time>2021-04-05T10:50:34.125Z</time>
      </trkpt>
      <trkpt lat="47.96385" lon="-3.90767">
        <ele>139.6</ele>
        <time>2021-04-05T10:50:33.354Z</time>
      </trkpt>
      <trkpt lat="47.96383" lon="-3.90791">
        <ele>139.3</ele>
        <time>2021-04-05T10:50:32.368Z</time>
      </trkpt>
      <trkpt lat="47.96377" lon="-3.90816">
        <ele>139</ele>
        <time>2021-04-05T10:50:31.302Z</time>
      </trkpt>
      <trkpt lat="47.9635" lon="-3.9091">
        <ele>134.5</ele>
        <time>2021-04-05T10:50:28.586Z</time>
      </trkpt>
      <trkpt lat="47.96331" lon="-3.90905">
        <ele>135.5</ele>
        <time>2021-04-05T10:50:27.805Z</time>
      </trkpt>
      <trkpt lat="47.96312" lon="-3.90911">
        <ele>136.7</ele>
        <time>2021-04-05T10:50:25.797Z</time>
      </trkpt>
      <trkpt lat="47.96305" lon="-3.90913">
        <ele>137.2</ele>
        <time>2021-04-05T10:50:25.329Z</time>
      </trkpt>
      <trkpt lat="47.96261" lon="-3.90932">
        <ele>140</ele>
        <time>2021-04-05T10:50:22.517Z</time>
      </trkpt>
      <trkpt lat="47.96261" lon="-3.90932">
        <ele>140</ele>
        <time>2021-04-05T10:50:22.517Z</time>
      </trkpt>
      <trkpt lat="47.9625" lon="-3.90958">
        <ele>141.6</ele>
        <time>2021-04-05T10:50:21.249Z</time>
      </trkpt>
      <trkpt lat="47.96236" lon="-3.90983">
        <ele>142.6</ele>
        <time>2021-04-05T10:50:19.898Z</time>
      </trkpt>
      <trkpt lat="47.96201" lon="-3.9112">
        <ele>145.9</ele>
        <time>2021-04-05T10:50:13.897Z</time>
      </trkpt>
      <trkpt lat="47.96162" lon="-3.91229">
        <ele>147.2</ele>
        <time>2021-04-05T10:50:08.807Z</time>
      </trkpt>
      <trkpt lat="47.9614" lon="-3.91289">
        <ele>149</ele>
        <time>2021-04-05T10:50:05.986Z</time>
      </trkpt>
      <trkpt lat="47.96106" lon="-3.91409">
        <ele>151</ele>
        <time>2021-04-05T10:50:00.619Z</time>
      </trkpt>
      <trkpt lat="47.96076" lon="-3.91485">
        <ele>153</ele>
        <time>2021-04-05T10:49:57.006Z</time>
      </trkpt>
      <trkpt lat="47.96063" lon="-3.91518">
        <ele>153.2</ele>
        <time>2021-04-05T10:49:55.448Z</time>
      </trkpt>
      <trkpt lat="47.96053" lon="-3.91533">
        <ele>153.7</ele>
        <time>2021-04-05T10:49:54.562Z</time>
      </trkpt>
      <trkpt lat="47.96053" lon="-3.91533">
        <ele>153.7</ele>
        <time>2021-04-05T10:49:54.562Z</time>
      </trkpt>
      <trkpt lat="47.96074" lon="-3.91654">
        <ele>155</ele>
        <time>2021-04-05T10:49:49.430Z</time>
      </trkpt>
      <trkpt lat="47.9608" lon="-3.91707">
        <ele>155.4</ele>
        <time>2021-04-05T10:49:47.229Z</time>
      </trkpt>
      <trkpt lat="47.96083" lon="-3.91761">
        <ele>155</ele>
        <time>2021-04-05T10:49:44.972Z</time>
      </trkpt>
      <trkpt lat="47.96085" lon="-3.91822">
        <ele>155.1</ele>
        <time>2021-04-05T10:49:42.477Z</time>
      </trkpt>
      <trkpt lat="47.96081" lon="-3.91889">
        <ele>155.1</ele>
        <time>2021-04-05T10:49:39.729Z</time>
      </trkpt>
      <trkpt lat="47.96074" lon="-3.91974">
        <ele>155.1</ele>
        <time>2021-04-05T10:49:36.194Z</time>
      </trkpt>
      <trkpt lat="47.96074" lon="-3.91974">
        <ele>155.1</ele>
        <time>2021-04-05T10:49:36.194Z</time>
      </trkpt>
      <trkpt lat="47.96002" lon="-3.91975">
        <ele>151.9</ele>
        <time>2021-04-05T10:49:31.736Z</time>
      </trkpt>
      <trkpt lat="47.95952" lon="-3.91989">
        <ele>150.6</ele>
        <time>2021-04-05T10:49:28.655Z</time>
      </trkpt>
      <trkpt lat="47.95908" lon="-3.92008">
        <ele>148.8</ele>
        <time>2021-04-05T10:49:25.819Z</time>
      </trkpt>
      <trkpt lat="47.95892" lon="-3.92025">
        <ele>147.3</ele>
        <time>2021-04-05T10:49:24.610Z</time>
      </trkpt>
      <trkpt lat="47.95866" lon="-3.92056">
        <ele>145.1</ele>
        <time>2021-04-05T10:49:22.541Z</time>
      </trkpt>
      <trkpt lat="47.95832" lon="-3.9209">
        <ele>143.7</ele>
        <time>2021-04-05T10:49:20.048Z</time>
      </trkpt>
      <trkpt lat="47.95795" lon="-3.92114">
        <ele>141.2</ele>
        <time>2021-04-05T10:49:17.599Z</time>
      </trkpt>
      <trkpt lat="47.95742" lon="-3.92156">
        <ele>138.2</ele>
        <time>2021-04-05T10:49:13.911Z</time>
      </trkpt>
      <trkpt lat="47.95708" lon="-3.92202">
        <ele>136.5</ele>
        <time>2021-04-05T10:49:11.093Z</time>
      </trkpt>
      <trkpt lat="47.95684" lon="-3.92225">
        <ele>135.3</ele>
        <time>2021-04-05T10:49:09.333Z</time>
      </trkpt>
      <trkpt lat="47.95654" lon="-3.92247">
        <ele>134.5</ele>
        <time>2021-04-05T10:49:07.263Z</time>
      </trkpt>
      <trkpt lat="47.95626" lon="-3.92264">
        <ele>134</ele>
        <time>2021-04-05T10:49:05.407Z</time>
      </trkpt>
      <trkpt lat="47.95626" lon="-3.92264">
        <ele>134</ele>
        <time>2021-04-05T10:49:05.407Z</time>
      </trkpt>
      <trkpt lat="47.95571" lon="-3.92319">
        <ele>131</ele>
        <time>2021-04-05T10:49:01.389Z</time>
      </trkpt>
      <trkpt lat="47.95522" lon="-3.92366">
        <ele>130.2</ele>
        <time>2021-04-05T10:48:57.791Z</time>
      </trkpt>
      <trkpt lat="47.95522" lon="-3.92366">
        <ele>130.2</ele>
        <time>2021-04-05T10:48:57.791Z</time>
        <extensions>
          <visugpx:TrkExtension xmlns:visugpx="https://www.visugpx.com/editgpx/">
            <visugpx:node>6</visugpx:node>
            </visugpx:TrkExtension>
        </extensions>
      </trkpt>
      <trkpt lat="47.95491" lon="-3.92395">
        <ele>129.3</ele>
        <time>2021-10-23T08:36:05.017Z</time>
        <extensions>
          <visugpx:TrkExtension xmlns:visugpx="https://www.visugpx.com/editgpx/">
            <visugpx:node>7</visugpx:node>
            </visugpx:TrkExtension>
        </extensions>
      </trkpt>
      <trkpt lat="47.95444" lon="-3.92423">
        <ele>129.6</ele>
        <time>2021-10-23T08:36:10.587Z</time>
      </trkpt>
      <trkpt lat="47.95424" lon="-3.92417">
        <ele>127.9</ele>
        <time>2021-10-23T08:36:12.918Z</time>
      </trkpt>
      <trkpt lat="47.95375" lon="-3.92425">
        <ele>125.1</ele>
        <time>2021-10-23T08:36:18.382Z</time>
      </trkpt>
      <trkpt lat="47.95368" lon="-3.92428">
        <ele>124.9</ele>
        <time>2021-10-23T08:36:19.190Z</time>
      </trkpt>
      <trkpt lat="47.95344" lon="-3.92424">
        <ele>124</ele>
        <time>2021-10-23T08:36:21.885Z</time>
      </trkpt>
      <trkpt lat="47.9532" lon="-3.92427">
        <ele>123.8</ele>
        <time>2021-10-23T08:36:24.528Z</time>
      </trkpt>
      <trkpt lat="47.95275" lon="-3.92438">
        <ele>119.4</ele>
        <time>2021-10-23T08:36:29.565Z</time>
      </trkpt>
      <trkpt lat="47.95232" lon="-3.92457">
        <ele>114.2</ele>
        <time>2021-10-23T08:36:34.562Z</time>
      </trkpt>
      <trkpt lat="47.95225" lon="-3.92458">
        <ele>113.7</ele>
        <time>2021-10-23T08:36:35.425Z</time>
      </trkpt>
      <trkpt lat="47.95211" lon="-3.92453">
        <ele>112.8</ele>
        <time>2021-10-23T08:36:36.951Z</time>
      </trkpt>
      <trkpt lat="47.95208" lon="-3.92445">
        <ele>112.9</ele>
        <time>2021-10-23T08:36:37.671Z</time>
      </trkpt>
      <trkpt lat="47.95204" lon="-3.92439">
        <ele>113.3</ele>
        <time>2021-10-23T08:36:38.293Z</time>
      </trkpt>
      <trkpt lat="47.9518" lon="-3.92445">
        <ele>112.5</ele>
        <time>2021-10-23T08:36:40.980Z</time>
      </trkpt>
      <trkpt lat="47.95147" lon="-3.92445">
        <ele>111.2</ele>
        <time>2021-10-23T08:36:44.671Z</time>
      </trkpt>
      <trkpt lat="47.9512" lon="-3.92446">
        <ele>109.6</ele>
        <time>2021-10-23T08:36:47.689Z</time>
      </trkpt>
      <trkpt lat="47.95104" lon="-3.92455">
        <ele>107.9</ele>
        <time>2021-10-23T08:36:49.582Z</time>
      </trkpt>
      <trkpt lat="47.95065" lon="-3.92488">
        <ele>103.9</ele>
        <time>2021-10-23T08:36:54.589Z</time>
      </trkpt>
      <trkpt lat="47.95056" lon="-3.92494">
        <ele>103.1</ele>
        <time>2021-10-23T08:36:55.710Z</time>
      </trkpt>
      <trkpt lat="47.95037" lon="-3.92511">
        <ele>100.8</ele>
        <time>2021-10-23T08:36:58.167Z</time>
      </trkpt>
      <trkpt lat="47.95023" lon="-3.92527">
        <ele>98.7</ele>
        <time>2021-10-23T08:37:00.166Z</time>
      </trkpt>
      <trkpt lat="47.95021" lon="-3.9253">
        <ele>98.6</ele>
        <time>2021-10-23T08:37:00.457Z</time>
      </trkpt>
      <trkpt lat="47.95038" lon="-3.92555">
        <ele>98.6</ele>
        <time>2021-10-23T08:37:03.129Z</time>
      </trkpt>
      <trkpt lat="47.95062" lon="-3.92614">
        <ele>99.2</ele>
        <time>2021-10-23T08:37:08.255Z</time>
      </trkpt>
      <trkpt lat="47.9506" lon="-3.92616">
        <ele>99</ele>
        <time>2021-10-23T08:37:08.480Z</time>
      </trkpt>
      <trkpt lat="47.95015" lon="-3.92648">
        <ele>98.8</ele>
        <time>2021-10-23T08:37:14.025Z</time>
      </trkpt>
      <trkpt lat="47.94998" lon="-3.92658">
        <ele>99.7</ele>
        <time>2021-10-23T08:37:16.107Z</time>
      </trkpt>
      <trkpt lat="47.94982" lon="-3.92664">
        <ele>101.3</ele>
        <time>2021-10-23T08:37:17.926Z</time>
      </trkpt>
      <trkpt lat="47.94954" lon="-3.92663">
        <ele>102</ele>
        <time>2021-10-23T08:37:21.104Z</time>
      </trkpt>
      <trkpt lat="47.9491" lon="-3.92661">
        <ele>100</ele>
        <time>2021-10-23T08:37:25.980Z</time>
      </trkpt>
      <trkpt lat="47.94868" lon="-3.92657">
        <ele>100.7</ele>
        <time>2021-10-23T08:37:30.625Z</time>
      </trkpt>
      <trkpt lat="47.9485" lon="-3.92653">
        <ele>101.8</ele>
        <time>2021-10-23T08:37:32.702Z</time>
      </trkpt>
      <trkpt lat="47.94828" lon="-3.92644">
        <ele>102.7</ele>
        <time>2021-10-23T08:37:35.195Z</time>
      </trkpt>
      <trkpt lat="47.94817" lon="-3.92658">
        <ele>103.9</ele>
        <time>2021-10-23T08:37:36.838Z</time>
      </trkpt>
      <trkpt lat="47.94808" lon="-3.92665">
        <ele>103.8</ele>
        <time>2021-10-23T08:37:37.957Z</time>
      </trkpt>
      <trkpt lat="47.94813" lon="-3.92691">
        <ele>104</ele>
        <time>2021-10-23T08:37:39.957Z</time>
      </trkpt>
      <trkpt lat="47.94817" lon="-3.92775">
        <ele>104.9</ele>
        <time>2021-10-23T08:37:46.257Z</time>
      </trkpt>
      <trkpt lat="47.94826" lon="-3.92816">
        <ele>106</ele>
        <time>2021-10-23T08:37:49.444Z</time>
      </trkpt>
      <trkpt lat="47.94829" lon="-3.92825">
        <ele>106.1</ele>
        <time>2021-10-23T08:37:50.178Z</time>
      </trkpt>
      <trkpt lat="47.94835" lon="-3.92842">
        <ele>106.6</ele>
        <time>2021-10-23T08:37:51.645Z</time>
      </trkpt>
      <trkpt lat="47.94852" lon="-3.92887">
        <ele>107.9</ele>
        <time>2021-10-23T08:37:55.466Z</time>
      </trkpt>
      <trkpt lat="47.94857" lon="-3.92923">
        <ele>109.1</ele>
        <time>2021-10-23T08:37:58.236Z</time>
      </trkpt>
      <trkpt lat="47.94865" lon="-3.92973">
        <ele>109</ele>
        <time>2021-10-23T08:38:02.023Z</time>
      </trkpt>
      <trkpt lat="47.94877" lon="-3.93019">
        <ele>109</ele>
        <time>2021-10-23T08:38:05.753Z</time>
      </trkpt>
      <trkpt lat="47.94883" lon="-3.93054">
        <ele>109.1</ele>
        <time>2021-10-23T08:38:08.448Z</time>
      </trkpt>
      <trkpt lat="47.94884" lon="-3.9307">
        <ele>109.2</ele>
        <time>2021-10-23T08:38:09.624Z</time>
      </trkpt>
      <trkpt lat="47.94864" lon="-3.93074">
        <ele>109.1</ele>
        <time>2021-10-23T08:38:11.864Z</time>
      </trkpt>
      <trkpt lat="47.94807" lon="-3.93092">
        <ele>107.7</ele>
        <time>2021-10-23T08:38:18.350Z</time>
      </trkpt>
      <trkpt lat="47.94781" lon="-3.93099">
        <ele>106.1</ele>
        <time>2021-10-23T08:38:21.216Z</time>
      </trkpt>
      <trkpt lat="47.94753" lon="-3.931">
        <ele>104.8</ele>
        <time>2021-10-23T08:38:24.371Z</time>
      </trkpt>
      <trkpt lat="47.94734" lon="-3.931">
        <ele>103.6</ele>
        <time>2021-10-23T08:38:26.500Z</time>
      </trkpt>
      <trkpt lat="47.94744" lon="-3.93249">
        <ele>105.5</ele>
        <time>2021-10-23T08:38:37.619Z</time>
      </trkpt>
      <trkpt lat="47.9475" lon="-3.93344">
        <ele>105.4</ele>
        <time>2021-10-23T08:38:44.710Z</time>
      </trkpt>
      <trkpt lat="47.94751" lon="-3.93387">
        <ele>105.2</ele>
        <time>2021-10-23T08:38:47.932Z</time>
      </trkpt>
      <trkpt lat="47.94749" lon="-3.93404">
        <ele>104.8</ele>
        <time>2021-10-23T08:38:49.234Z</time>
      </trkpt>
      <trkpt lat="47.94736" lon="-3.93432">
        <ele>103.8</ele>
        <time>2021-10-23T08:38:51.790Z</time>
      </trkpt>
      <trkpt lat="47.94648" lon="-3.93566">
        <ele>99.2</ele>
        <time>2021-10-23T08:39:05.814Z</time>
      </trkpt>
      <trkpt lat="47.94621" lon="-3.93608">
        <ele>101.8</ele>
        <time>2021-10-23T08:39:10.096Z</time>
      </trkpt>
      <trkpt lat="47.94555" lon="-3.93709">
        <ele>96.3</ele>
        <time>2021-10-23T08:39:20.686Z</time>
      </trkpt>
      <trkpt lat="47.94542" lon="-3.93734">
        <ele>96</ele>
        <time>2021-10-23T08:39:22.986Z</time>
      </trkpt>
      <trkpt lat="47.94531" lon="-3.93773">
        <ele>96.7</ele>
        <time>2021-10-23T08:39:26.116Z</time>
      </trkpt>
      <trkpt lat="47.94525" lon="-3.93829">
        <ele>97</ele>
        <time>2021-10-23T08:39:30.356Z</time>
      </trkpt>
      <trkpt lat="47.9452" lon="-3.93869">
        <ele>96.3</ele>
        <time>2021-10-23T08:39:33.397Z</time>
      </trkpt>
      <trkpt lat="47.94501" lon="-3.93883">
        <ele>96.9</ele>
        <time>2021-10-23T08:39:35.800Z</time>
      </trkpt>
      <trkpt lat="47.9438" lon="-3.93916">
        <ele>96</ele>
        <time>2021-10-23T08:39:49.446Z</time>
      </trkpt>
      <trkpt lat="47.94366" lon="-3.93924">
        <ele>96</ele>
        <time>2021-10-23T08:39:51.119Z</time>
      </trkpt>
      <trkpt lat="47.94356" lon="-3.93957">
        <ele>95.7</ele>
        <time>2021-10-23T08:39:53.854Z</time>
      </trkpt>
      <trkpt lat="47.94347" lon="-3.94006">
        <ele>94.9</ele>
        <time>2021-10-23T08:39:57.619Z</time>
      </trkpt>
      <trkpt lat="47.94332" lon="-3.94111">
        <ele>92.5</ele>
        <time>2021-10-23T08:40:05.611Z</time>
      </trkpt>
      <trkpt lat="47.94317" lon="-3.94127">
        <ele>91.9</ele>
        <time>2021-10-23T08:40:07.604Z</time>
      </trkpt>
      <trkpt lat="47.94297" lon="-3.94135">
        <ele>91.1</ele>
        <time>2021-10-23T08:40:09.966Z</time>
      </trkpt>
      <trkpt lat="47.94244" lon="-3.94146">
        <ele>89.6</ele>
        <time>2021-10-23T08:40:15.840Z</time>
      </trkpt>
      <trkpt lat="47.9423" lon="-3.94156">
        <ele>88.4</ele>
        <time>2021-10-23T08:40:17.589Z</time>
      </trkpt>
      <trkpt lat="47.94222" lon="-3.94164">
        <ele>87.8</ele>
        <time>2021-10-23T08:40:18.703Z</time>
      </trkpt>
      <trkpt lat="47.94216" lon="-3.94234">
        <ele>86.6</ele>
        <time>2021-10-23T08:40:23.933Z</time>
      </trkpt>
      <trkpt lat="47.9421" lon="-3.94288">
        <ele>85.2</ele>
        <time>2021-10-23T08:40:28.012Z</time>
      </trkpt>
      <trkpt lat="47.94202" lon="-3.94315">
        <ele>85.2</ele>
        <time>2021-10-23T08:40:30.179Z</time>
      </trkpt>
      <trkpt lat="47.94173" lon="-3.94429">
        <ele>84</ele>
        <time>2021-10-23T08:40:39.310Z</time>
      </trkpt>
      <trkpt lat="47.94151" lon="-3.94523">
        <ele>85.9</ele>
        <time>2021-10-23T08:40:46.728Z</time>
      </trkpt>
      <trkpt lat="47.94128" lon="-3.94619">
        <ele>87.6</ele>
        <time>2021-10-23T08:40:54.304Z</time>
      </trkpt>
      <trkpt lat="47.9411" lon="-3.94668">
        <ele>84.7</ele>
        <time>2021-10-23T08:40:58.497Z</time>
      </trkpt>
      <trkpt lat="47.94105" lon="-3.94682">
        <ele>83.6</ele>
        <time>2021-10-23T08:40:59.652Z</time>
      </trkpt>
      <trkpt lat="47.94098" lon="-3.947">
        <ele>83.1</ele>
        <time>2021-10-23T08:41:01.242Z</time>
      </trkpt>
      <trkpt lat="47.94096" lon="-3.9471">
        <ele>82.5</ele>
        <time>2021-10-23T08:41:01.978Z</time>
      </trkpt>
      <trkpt lat="47.94094" lon="-3.94724">
        <ele>82.3</ele>
        <time>2021-10-23T08:41:03.035Z</time>
      </trkpt>
      <trkpt lat="47.94094" lon="-3.94731">
        <ele>82.6</ele>
        <time>2021-10-23T08:41:03.603Z</time>
      </trkpt>
      <trkpt lat="47.94092" lon="-3.94738">
        <ele>82.7</ele>
        <time>2021-10-23T08:41:04.159Z</time>
      </trkpt>
      <trkpt lat="47.94081" lon="-3.94772">
        <ele>83.5</ele>
        <time>2021-10-23T08:41:06.959Z</time>
      </trkpt>
      <trkpt lat="47.94075" lon="-3.94795">
        <ele>84.7</ele>
        <time>2021-10-23T08:41:08.834Z</time>
      </trkpt>
      <trkpt lat="47.94077" lon="-3.94822">
        <ele>86.5</ele>
        <time>2021-10-23T08:41:10.844Z</time>
      </trkpt>
      <trkpt lat="47.94087" lon="-3.94849">
        <ele>88.7</ele>
        <time>2021-10-23T08:41:13.091Z</time>
      </trkpt>
      <trkpt lat="47.94091" lon="-3.94863">
        <ele>89.4</ele>
        <time>2021-10-23T08:41:14.258Z</time>
      </trkpt>
      <trkpt lat="47.94096" lon="-3.94892">
        <ele>90.3</ele>
        <time>2021-10-23T08:41:16.472Z</time>
      </trkpt>
      <trkpt lat="47.94102" lon="-3.94936">
        <ele>91</ele>
        <time>2021-10-23T08:41:19.857Z</time>
      </trkpt>
      <trkpt lat="47.94108" lon="-3.94967">
        <ele>91.5</ele>
        <time>2021-10-23T08:41:22.244Z</time>
      </trkpt>
      <trkpt lat="47.94117" lon="-3.95006">
        <ele>92.4</ele>
        <time>2021-10-23T08:41:25.287Z</time>
      </trkpt>
      <trkpt lat="47.94121" lon="-3.95045">
        <ele>92.8</ele>
        <time>2021-10-23T08:41:28.236Z</time>
      </trkpt>
      <trkpt lat="47.94125" lon="-3.95061">
        <ele>93.3</ele>
        <time>2021-10-23T08:41:29.544Z</time>
      </trkpt>
      <trkpt lat="47.94131" lon="-3.95079">
        <ele>94.1</ele>
        <time>2021-10-23T08:41:31.051Z</time>
      </trkpt>
      <trkpt lat="47.94139" lon="-3.95096">
        <ele>94</ele>
        <time>2021-10-23T08:41:32.536Z</time>
      </trkpt>
      <trkpt lat="47.94141" lon="-3.9511">
        <ele>93.7</ele>
        <time>2021-10-23T08:41:33.675Z</time>
      </trkpt>
      <trkpt lat="47.94141" lon="-3.95131">
        <ele>93.6</ele>
        <time>2021-10-23T08:41:35.202Z</time>
      </trkpt>
      <trkpt lat="47.94138" lon="-3.95161">
        <ele>93.7</ele>
        <time>2021-10-23T08:41:37.448Z</time>
      </trkpt>
      <trkpt lat="47.94139" lon="-3.95215">
        <ele>93.3</ele>
        <time>2021-10-23T08:41:41.497Z</time>
      </trkpt>
      <trkpt lat="47.94139" lon="-3.95245">
        <ele>93.1</ele>
        <time>2021-10-23T08:41:43.723Z</time>
      </trkpt>
      <trkpt lat="47.9414" lon="-3.95289">
        <ele>92.9</ele>
        <time>2021-10-23T08:41:46.984Z</time>
      </trkpt>
      <trkpt lat="47.94145" lon="-3.95319">
        <ele>92.6</ele>
        <time>2021-10-23T08:41:49.319Z</time>
      </trkpt>
      <trkpt lat="47.94155" lon="-3.95359">
        <ele>92.9</ele>
        <time>2021-10-23T08:41:52.493Z</time>
      </trkpt>
      <trkpt lat="47.94188" lon="-3.95462">
        <ele>90.7</ele>
        <time>2021-10-23T08:42:01.038Z</time>
      </trkpt>
      <trkpt lat="47.94209" lon="-3.9553">
        <ele>89.4</ele>
        <time>2021-10-23T08:42:06.619Z</time>
      </trkpt>
      <trkpt lat="47.94225" lon="-3.95604">
        <ele>87.7</ele>
        <time>2021-10-23T08:42:12.347Z</time>
      </trkpt>
      <trkpt lat="47.94233" lon="-3.9564">
        <ele>86.7</ele>
        <time>2021-10-23T08:42:15.237Z</time>
      </trkpt>
      <trkpt lat="47.94239" lon="-3.95652">
        <ele>86.3</ele>
        <time>2021-10-23T08:42:16.336Z</time>
      </trkpt>
      <trkpt lat="47.94263" lon="-3.9568">
        <ele>84.4</ele>
        <time>2021-10-23T08:42:19.696Z</time>
      </trkpt>
      <trkpt lat="47.94271" lon="-3.95686">
        <ele>83.9</ele>
        <time>2021-10-23T08:42:20.766Z</time>
      </trkpt>
      <trkpt lat="47.94338" lon="-3.95689">
        <ele>79.2</ele>
        <time>2021-10-23T08:42:28.220Z</time>
      </trkpt>
      <trkpt lat="47.94345" lon="-3.95697">
        <ele>78.5</ele>
        <time>2021-10-23T08:42:29.161Z</time>
      </trkpt>
      <trkpt lat="47.94356" lon="-3.95724">
        <ele>76.7</ele>
        <time>2021-10-23T08:42:31.517Z</time>
      </trkpt>
      <trkpt lat="47.94361" lon="-3.95755">
        <ele>74.3</ele>
        <time>2021-10-23T08:42:33.925Z</time>
      </trkpt>
      <trkpt lat="47.94362" lon="-3.95784">
        <ele>72.6</ele>
        <time>2021-10-23T08:42:36.046Z</time>
      </trkpt>
      <trkpt lat="47.94359" lon="-3.95804">
        <ele>71.4</ele>
        <time>2021-10-23T08:42:37.569Z</time>
      </trkpt>
      <trkpt lat="47.94361" lon="-3.95833">
        <ele>70.2</ele>
        <time>2021-10-23T08:42:39.751Z</time>
      </trkpt>
      <trkpt lat="47.94362" lon="-3.95853">
        <ele>70.1</ele>
        <time>2021-10-23T08:42:41.213Z</time>
      </trkpt>
      <trkpt lat="47.94366" lon="-3.95871">
        <ele>70.6</ele>
        <time>2021-10-23T08:42:42.668Z</time>
      </trkpt>
      <trkpt lat="47.94383" lon="-3.9592">
        <ele>72.4</ele>
        <time>2021-10-23T08:42:46.733Z</time>
      </trkpt>
      <trkpt lat="47.94403" lon="-3.95995">
        <ele>73.7</ele>
        <time>2021-10-23T08:42:52.806Z</time>
      </trkpt>
      <trkpt lat="47.94426" lon="-3.96057">
        <ele>74.9</ele>
        <time>2021-10-23T08:42:58.071Z</time>
      </trkpt>
      <trkpt lat="47.94442" lon="-3.96105">
        <ele>77.3</ele>
        <time>2021-10-23T08:43:02.072Z</time>
      </trkpt>
      <trkpt lat="47.94447" lon="-3.96129">
        <ele>78.4</ele>
        <time>2021-10-23T08:43:03.887Z</time>
      </trkpt>
      <trkpt lat="47.94455" lon="-3.9617">
        <ele>78.5</ele>
        <time>2021-10-23T08:43:07.140Z</time>
      </trkpt>
      <trkpt lat="47.94473" lon="-3.96262">
        <ele>80.9</ele>
        <time>2021-10-23T08:43:14.251Z</time>
      </trkpt>
      <trkpt lat="47.945" lon="-3.96374">
        <ele>83.5</ele>
        <time>2021-10-23T08:43:23.112Z</time>
      </trkpt>
      <trkpt lat="47.94506" lon="-3.96408">
        <ele>84.2</ele>
        <time>2021-10-23T08:43:25.766Z</time>
      </trkpt>
      <trkpt lat="47.94514" lon="-3.96443">
        <ele>84.9</ele>
        <time>2021-10-23T08:43:28.500Z</time>
      </trkpt>
      <trkpt lat="47.94522" lon="-3.96479">
        <ele>85.5</ele>
        <time>2021-10-23T08:43:31.322Z</time>
      </trkpt>
      <trkpt lat="47.94541" lon="-3.96497">
        <ele>84.5</ele>
        <time>2021-10-23T08:43:33.842Z</time>
      </trkpt>
      <trkpt lat="47.94549" lon="-3.96506">
        <ele>84.5</ele>
        <time>2021-10-23T08:43:34.960Z</time>
      </trkpt>
      <trkpt lat="47.94563" lon="-3.96527">
        <ele>85</ele>
        <time>2021-10-23T08:43:37.085Z</time>
      </trkpt>
      <trkpt lat="47.94573" lon="-3.96549">
        <ele>85.6</ele>
        <time>2021-10-23T08:43:39.070Z</time>
      </trkpt>
      <trkpt lat="47.94579" lon="-3.96564">
        <ele>85.4</ele>
        <time>2021-10-23T08:43:40.386Z</time>
      </trkpt>
      <trkpt lat="47.94603" lon="-3.96616">
        <ele>86.5</ele>
        <time>2021-10-23T08:43:45.083Z</time>
      </trkpt>
      <trkpt lat="47.94606" lon="-3.9661">
        <ele>86.5</ele>
        <time>2021-10-23T08:43:45.668Z</time>
      </trkpt>
      <trkpt lat="47.94629" lon="-3.96572">
        <ele>87.1</ele>
        <time>2021-10-23T08:43:49.466Z</time>
      </trkpt>
      <trkpt lat="47.94661" lon="-3.96523">
        <ele>89.8</ele>
        <time>2021-10-23T08:43:54.479Z</time>
      </trkpt>
      <trkpt lat="47.94662" lon="-3.9652">
        <ele>90</ele>
        <time>2021-10-23T08:43:54.783Z</time>
      </trkpt>
      <trkpt lat="47.94711" lon="-3.96451">
        <ele>93.2</ele>
        <time>2021-10-23T08:44:02.275Z</time>
      </trkpt>
      <trkpt lat="47.9476" lon="-3.96381">
        <ele>96.4</ele>
        <time>2021-10-23T08:44:09.868Z</time>
      </trkpt>
      <trkpt lat="47.94805" lon="-3.96318">
        <ele>99.2</ele>
        <time>2021-10-23T08:44:16.651Z</time>
      </trkpt>
      <trkpt lat="47.94858" lon="-3.96243">
        <ele>101.4</ele>
        <time>2021-10-23T08:44:24.850Z</time>
      </trkpt>
      <trkpt lat="47.94897" lon="-3.96187">
        <ele>103</ele>
        <time>2021-10-23T08:44:30.846Z</time>
      </trkpt>
      <trkpt lat="47.9496" lon="-3.96097">
        <ele>105</ele>
        <time>2021-10-23T08:44:40.560Z</time>
      </trkpt>
      <trkpt lat="47.94965" lon="-3.9609">
        <ele>105</ele>
        <time>2021-10-23T08:44:41.265Z</time>
      </trkpt>
      <trkpt lat="47.94969" lon="-3.96082">
        <ele>105</ele>
        <time>2021-10-23T08:44:42.018Z</time>
      </trkpt>
      <trkpt lat="47.94969" lon="-3.96074">
        <ele>105</ele>
        <time>2021-10-23T08:44:42.633Z</time>
      </trkpt>
      <trkpt lat="47.94971" lon="-3.96067">
        <ele>105</ele>
        <time>2021-10-23T08:44:43.182Z</time>
      </trkpt>
      <trkpt lat="47.94975" lon="-3.96063">
        <ele>105</ele>
        <time>2021-10-23T08:44:43.730Z</time>
      </trkpt>
      <trkpt lat="47.9498" lon="-3.96062">
        <ele>105</ele>
        <time>2021-10-23T08:44:44.314Z</time>
      </trkpt>
      <trkpt lat="47.94984" lon="-3.96063">
        <ele>105</ele>
        <time>2021-10-23T08:44:44.751Z</time>
      </trkpt>
      <trkpt lat="47.94988" lon="-3.96059">
        <ele>105</ele>
        <time>2021-10-23T08:44:45.323Z</time>
      </trkpt>
      <trkpt lat="47.95" lon="-3.96052">
        <ele>105.1</ele>
        <time>2021-10-23T08:44:46.698Z</time>
      </trkpt>
      <trkpt lat="47.95003" lon="-3.96053">
        <ele>105.2</ele>
        <time>2021-10-23T08:44:47.055Z</time>
      </trkpt>
      <trkpt lat="47.95003" lon="-3.96053">
        <ele>105.2</ele>
        <time>2021-10-23T08:44:47.070Z</time>
      </trkpt>
      <trkpt lat="47.95007" lon="-3.96046">
        <ele>105.5</ele>
        <time>2021-10-23T08:44:47.771Z</time>
      </trkpt>
      <trkpt lat="47.95099" lon="-3.95955">
        <ele>106</ele>
        <time>2021-10-23T08:45:00.067Z</time>
      </trkpt>
      <trkpt lat="47.95147" lon="-3.95904">
        <ele>104.4</ele>
        <time>2021-10-23T08:45:06.595Z</time>
      </trkpt>
      <trkpt lat="47.95221" lon="-3.95828">
        <ele>102.2</ele>
        <time>2021-10-23T08:45:16.517Z</time>
      </trkpt>
      <trkpt lat="47.95222" lon="-3.95834">
        <ele>102.1</ele>
        <time>2021-10-23T08:45:16.989Z</time>
      </trkpt>
      <trkpt lat="47.95228" lon="-3.95857">
        <ele>101.5</ele>
        <time>2021-10-23T08:45:18.813Z</time>
      </trkpt>
      <trkpt lat="47.95235" lon="-3.95887">
        <ele>101.1</ele>
        <time>2021-10-23T08:45:21.161Z</time>
      </trkpt>
      <trkpt lat="47.95244" lon="-3.95919">
        <ele>100.7</ele>
        <time>2021-10-23T08:45:23.775Z</time>
      </trkpt>
      <trkpt lat="47.95256" lon="-3.95954">
        <ele>100</ele>
        <time>2021-10-23T08:45:26.628Z</time>
      </trkpt>
      <trkpt lat="47.95263" lon="-3.95959">
        <ele>100.2</ele>
        <time>2021-10-23T08:45:27.573Z</time>
      </trkpt>
      <trkpt lat="47.9528" lon="-3.95974">
        <ele>100.6</ele>
        <time>2021-10-23T08:45:29.754Z</time>
      </trkpt>
      <trkpt lat="47.95293" lon="-3.9599">
        <ele>100.8</ele>
        <time>2021-10-23T08:45:31.645Z</time>
      </trkpt>
      <trkpt lat="47.95294" lon="-3.96002">
        <ele>100.5</ele>
        <time>2021-10-23T08:45:32.564Z</time>
      </trkpt>
      <trkpt lat="47.95291" lon="-3.96015">
        <ele>100</ele>
        <time>2021-10-23T08:45:33.619Z</time>
      </trkpt>
      <trkpt lat="47.95288" lon="-3.96035">
        <ele>99.3</ele>
        <time>2021-10-23T08:45:35.137Z</time>
      </trkpt>
      <trkpt lat="47.95289" lon="-3.96066">
        <ele>98.5</ele>
        <time>2021-10-23T08:45:37.445Z</time>
      </trkpt>
      <trkpt lat="47.95288" lon="-3.96088">
        <ele>97.9</ele>
        <time>2021-10-23T08:45:39.101Z</time>
      </trkpt>
      <trkpt lat="47.95285" lon="-3.96106">
        <ele>97.3</ele>
        <time>2021-10-23T08:45:40.448Z</time>
      </trkpt>
      <trkpt lat="47.95282" lon="-3.96122">
        <ele>97</ele>
        <time>2021-10-23T08:45:41.668Z</time>
      </trkpt>
      <trkpt lat="47.95278" lon="-3.96134">
        <ele>97.2</ele>
        <time>2021-10-23T08:45:42.681Z</time>
      </trkpt>
      <trkpt lat="47.9529" lon="-3.96167">
        <ele>96.9</ele>
        <time>2021-10-23T08:45:45.439Z</time>
      </trkpt>
      <trkpt lat="47.95312" lon="-3.96208">
        <ele>95.4</ele>
        <time>2021-10-23T08:45:49.376Z</time>
      </trkpt>
      <trkpt lat="47.95318" lon="-3.9622">
        <ele>94.6</ele>
        <time>2021-10-23T08:45:50.511Z</time>
      </trkpt>
      <trkpt lat="47.95334" lon="-3.96227">
        <ele>93.5</ele>
        <time>2021-10-23T08:45:52.354Z</time>
      </trkpt>
      <trkpt lat="47.95397" lon="-3.9627">
        <ele>91</ele>
        <time>2021-10-23T08:46:00.028Z</time>
      </trkpt>
      <trkpt lat="47.95425" lon="-3.96274">
        <ele>90.8</ele>
        <time>2021-10-23T08:46:03.215Z</time>
      </trkpt>
      <trkpt lat="47.9545" lon="-3.9628">
        <ele>89.9</ele>
        <time>2021-10-23T08:46:05.955Z</time>
      </trkpt>
      <trkpt lat="47.95458" lon="-3.96285">
        <ele>89.4</ele>
        <time>2021-10-23T08:46:06.947Z</time>
      </trkpt>
      <trkpt lat="47.95458" lon="-3.96285">
        <ele>89.4</ele>
        <time>2021-10-23T08:46:06.947Z</time>
      </trkpt>
      <trkpt lat="47.95458" lon="-3.96284">
        <ele>89.5</ele>
        <time>2021-10-23T08:46:07.032Z</time>
      </trkpt>
      <trkpt lat="47.95458" lon="-3.96291">
        <ele>89.1</ele>
        <time>2021-10-23T08:46:07.513Z</time>
      </trkpt>
      <trkpt lat="47.95455" lon="-3.96301">
        <ele>88.4</ele>
        <time>2021-10-23T08:46:08.347Z</time>
      </trkpt>
      <trkpt lat="47.95449" lon="-3.96316">
        <ele>88</ele>
        <time>2021-10-23T08:46:09.626Z</time>
      </trkpt>
      <trkpt lat="47.95448" lon="-3.96333">
        <ele>87.5</ele>
        <time>2021-10-23T08:46:10.936Z</time>
      </trkpt>
      <trkpt lat="47.95448" lon="-3.96346">
        <ele>87.1</ele>
        <time>2021-10-23T08:46:11.852Z</time>
      </trkpt>
      <trkpt lat="47.95445" lon="-3.96389">
        <ele>86</ele>
        <time>2021-10-23T08:46:15.092Z</time>
      </trkpt>
      <trkpt lat="47.95444" lon="-3.96424">
        <ele>85.4</ele>
        <time>2021-10-23T08:46:17.707Z</time>
      </trkpt>
      <trkpt lat="47.95443" lon="-3.96451">
        <ele>85</ele>
        <time>2021-10-23T08:46:19.711Z</time>
      </trkpt>
      <trkpt lat="47.95448" lon="-3.96486">
        <ele>84.2</ele>
        <time>2021-10-23T08:46:22.367Z</time>
      </trkpt>
      <trkpt lat="47.95448" lon="-3.9652">
        <ele>84.1</ele>
        <time>2021-10-23T08:46:24.894Z</time>
      </trkpt>
      <trkpt lat="47.95445" lon="-3.96537">
        <ele>84</ele>
        <time>2021-10-23T08:46:26.188Z</time>
      </trkpt>
      <trkpt lat="47.95441" lon="-3.96546">
        <ele>83.7</ele>
        <time>2021-10-23T08:46:27.035Z</time>
      </trkpt>
      <trkpt lat="47.95441" lon="-3.96546">
        <ele>83.7</ele>
        <time>2021-10-23T08:46:27.085Z</time>
      </trkpt>
      <trkpt lat="47.95436" lon="-3.96552">
        <ele>83.3</ele>
        <time>2021-10-23T08:46:27.802Z</time>
      </trkpt>
      <trkpt lat="47.95432" lon="-3.96557">
        <ele>83</ele>
        <time>2021-10-23T08:46:28.355Z</time>
      </trkpt>
      <trkpt lat="47.9543" lon="-3.96565">
        <ele>82.4</ele>
        <time>2021-10-23T08:46:29.029Z</time>
      </trkpt>
      <trkpt lat="47.95429" lon="-3.96575">
        <ele>82.1</ele>
        <time>2021-10-23T08:46:29.728Z</time>
      </trkpt>
      <trkpt lat="47.95429" lon="-3.96582">
        <ele>82.4</ele>
        <time>2021-10-23T08:46:30.296Z</time>
      </trkpt>
      <trkpt lat="47.95427" lon="-3.96588">
        <ele>82.7</ele>
        <time>2021-10-23T08:46:30.759Z</time>
      </trkpt>
      <trkpt lat="47.95434" lon="-3.96634">
        <ele>82.3</ele>
        <time>2021-10-23T08:46:34.237Z</time>
      </trkpt>
      <trkpt lat="47.95438" lon="-3.96648">
        <ele>82.2</ele>
        <time>2021-10-23T08:46:35.349Z</time>
      </trkpt>
      <trkpt lat="47.95442" lon="-3.96659">
        <ele>82.3</ele>
        <time>2021-10-23T08:46:36.342Z</time>
      </trkpt>
      <trkpt lat="47.95449" lon="-3.96673">
        <ele>82.3</ele>
        <time>2021-10-23T08:46:37.626Z</time>
      </trkpt>
      <trkpt lat="47.95459" lon="-3.96681">
        <ele>82.1</ele>
        <time>2021-10-23T08:46:38.901Z</time>
      </trkpt>
      <trkpt lat="47.95466" lon="-3.96689">
        <ele>82.2</ele>
        <time>2021-10-23T08:46:39.876Z</time>
      </trkpt>
      <trkpt lat="47.95473" lon="-3.96672">
        <ele>82.6</ele>
        <time>2021-10-23T08:46:41.388Z</time>
      </trkpt>
      <trkpt lat="47.95487" lon="-3.96639">
        <ele>82.8</ele>
        <time>2021-10-23T08:46:44.258Z</time>
      </trkpt>
      <trkpt lat="47.95503" lon="-3.96612">
        <ele>83.4</ele>
        <time>2021-10-23T08:46:46.987Z</time>
      </trkpt>
      <trkpt lat="47.9552" lon="-3.9658">
        <ele>85.6</ele>
        <time>2021-10-23T08:46:49.991Z</time>
      </trkpt>
      <trkpt lat="47.95536" lon="-3.96533">
        <ele>87.8</ele>
        <time>2021-10-23T08:46:53.923Z</time>
      </trkpt>
      <trkpt lat="47.95542" lon="-3.96517">
        <ele>88.7</ele>
        <time>2021-10-23T08:46:55.276Z</time>
      </trkpt>
      <trkpt lat="47.95551" lon="-3.96503">
        <ele>88.8</ele>
        <time>2021-10-23T08:46:56.724Z</time>
      </trkpt>
      <trkpt lat="47.95562" lon="-3.96493">
        <ele>89.1</ele>
        <time>2021-10-23T08:46:58.152Z</time>
      </trkpt>
      <trkpt lat="47.95574" lon="-3.9648">
        <ele>90.2</ele>
        <time>2021-10-23T08:46:59.835Z</time>
      </trkpt>
      <trkpt lat="47.95611" lon="-3.96447">
        <ele>91.3</ele>
        <time>2021-10-23T08:47:04.570Z</time>
      </trkpt>
      <trkpt lat="47.95624" lon="-3.96436">
        <ele>91.7</ele>
        <time>2021-10-23T08:47:06.267Z</time>
      </trkpt>
      <trkpt lat="47.95635" lon="-3.96424">
        <ele>91.8</ele>
        <time>2021-10-23T08:47:07.733Z</time>
      </trkpt>
      <trkpt lat="47.95644" lon="-3.96401">
        <ele>92.3</ele>
        <time>2021-10-23T08:47:09.755Z</time>
      </trkpt>
      <trkpt lat="47.95664" lon="-3.96344">
        <ele>92.4</ele>
        <time>2021-10-23T08:47:14.532Z</time>
      </trkpt>
      <trkpt lat="47.95669" lon="-3.96327">
        <ele>92.7</ele>
        <time>2021-10-23T08:47:15.900Z</time>
      </trkpt>
      <trkpt lat="47.9568" lon="-3.9632">
        <ele>92.5</ele>
        <time>2021-10-23T08:47:17.178Z</time>
      </trkpt>
      <trkpt lat="47.95707" lon="-3.96309">
        <ele>91.8</ele>
        <time>2021-10-23T08:47:20.299Z</time>
      </trkpt>
      <trkpt lat="47.95744" lon="-3.96298">
        <ele>91.4</ele>
        <time>2021-10-23T08:47:24.490Z</time>
      </trkpt>
      <trkpt lat="47.95796" lon="-3.96279">
        <ele>92.3</ele>
        <time>2021-10-23T08:47:30.438Z</time>
      </trkpt>
      <trkpt lat="47.9583" lon="-3.96262">
        <ele>93.7</ele>
        <time>2021-10-23T08:47:34.511Z</time>
      </trkpt>
      <trkpt lat="47.95856" lon="-3.96242">
        <ele>94.3</ele>
        <time>2021-10-23T08:47:37.717Z</time>
      </trkpt>
      <trkpt lat="47.95879" lon="-3.96214">
        <ele>95.4</ele>
        <time>2021-10-23T08:47:41.047Z</time>
      </trkpt>
      <trkpt lat="47.95896" lon="-3.96185">
        <ele>96.5</ele>
        <time>2021-10-23T08:47:43.847Z</time>
      </trkpt>
      <trkpt lat="47.95913" lon="-3.96149">
        <ele>98.3</ele>
        <time>2021-10-23T08:47:47.189Z</time>
      </trkpt>
      <trkpt lat="47.95958" lon="-3.96074">
        <ele>102.2</ele>
        <time>2021-10-23T08:47:54.700Z</time>
      </trkpt>
      <trkpt lat="47.96006" lon="-3.96001">
        <ele>106</ele>
        <time>2021-10-23T08:48:02.279Z</time>
      </trkpt>
      <trkpt lat="47.96019" lon="-3.95982">
        <ele>105.9</ele>
        <time>2021-10-23T08:48:04.318Z</time>
      </trkpt>
      <trkpt lat="47.96025" lon="-3.95995">
        <ele>105.8</ele>
        <time>2021-10-23T08:48:05.472Z</time>
      </trkpt>
      <trkpt lat="47.96066" lon="-3.96088">
        <ele>105.5</ele>
        <time>2021-10-23T08:48:13.836Z</time>
      </trkpt>
      <trkpt lat="47.96114" lon="-3.96201">
        <ele>105</ele>
        <time>2021-10-23T08:48:23.797Z</time>
      </trkpt>
      <trkpt lat="47.96117" lon="-3.96213">
        <ele>104.9</ele>
        <time>2021-10-23T08:48:24.729Z</time>
      </trkpt>
      <trkpt lat="47.96117" lon="-3.96224">
        <ele>104.9</ele>
        <time>2021-10-23T08:48:25.556Z</time>
      </trkpt>
      <trkpt lat="47.96104" lon="-3.96281">
        <ele>102.9</ele>
        <time>2021-10-23T08:48:30.086Z</time>
      </trkpt>
      <trkpt lat="47.96058" lon="-3.96468">
        <ele>96.2</ele>
        <time>2021-10-23T08:48:44.869Z</time>
      </trkpt>
      <trkpt lat="47.96034" lon="-3.96593">
        <ele>92.4</ele>
        <time>2021-10-23T08:48:54.563Z</time>
      </trkpt>
      <trkpt lat="47.96032" lon="-3.96611">
        <ele>91.9</ele>
        <time>2021-10-23T08:48:55.928Z</time>
      </trkpt>
      <trkpt lat="47.96036" lon="-3.96626">
        <ele>91.4</ele>
        <time>2021-10-23T08:48:57.138Z</time>
      </trkpt>
      <trkpt lat="47.96086" lon="-3.96764">
        <ele>90.8</ele>
        <time>2021-10-23T08:49:08.865Z</time>
      </trkpt>
      <trkpt lat="47.96124" lon="-3.96868">
        <ele>87</ele>
        <time>2021-10-23T08:49:17.682Z</time>
      </trkpt>
      <trkpt lat="47.96129" lon="-3.96882">
        <ele>86.7</ele>
        <time>2021-10-23T08:49:18.785Z</time>
      </trkpt>
      <trkpt lat="47.96155" lon="-3.96886">
        <ele>87.5</ele>
        <time>2021-10-23T08:49:21.708Z</time>
      </trkpt>
      <trkpt lat="47.96169" lon="-3.96897">
        <ele>87.7</ele>
        <time>2021-10-23T08:49:23.469Z</time>
      </trkpt>
      <trkpt lat="47.96251" lon="-3.96967">
        <ele>89.9</ele>
        <time>2021-10-23T08:49:34.004Z</time>
      </trkpt>
      <trkpt lat="47.96329" lon="-3.97034">
        <ele>92.9</ele>
        <time>2021-10-23T08:49:44.019Z</time>
      </trkpt>
      <trkpt lat="47.96361" lon="-3.97063">
        <ele>93.2</ele>
        <time>2021-10-23T08:49:48.210Z</time>
      </trkpt>
      <trkpt lat="47.96383" lon="-3.97085">
        <ele>93.6</ele>
        <time>2021-10-23T08:49:51.108Z</time>
      </trkpt>
      <trkpt lat="47.964" lon="-3.97078">
        <ele>94.6</ele>
        <time>2021-10-23T08:49:53.096Z</time>
      </trkpt>
      <trkpt lat="47.96436" lon="-3.97051">
        <ele>97.7</ele>
        <time>2021-10-23T08:49:57.601Z</time>
      </trkpt>
      <trkpt lat="47.96461" lon="-3.97033">
        <ele>98.3</ele>
        <time>2021-10-23T08:50:00.665Z</time>
      </trkpt>
      <trkpt lat="47.96542" lon="-3.96974">
        <ele>101.8</ele>
        <time>2021-10-23T08:50:10.618Z</time>
      </trkpt>
      <trkpt lat="47.96561" lon="-3.97047">
        <ele>101.9</ele>
        <time>2021-10-23T08:50:16.479Z</time>
      </trkpt>
      <trkpt lat="47.96597" lon="-3.97171">
        <ele>103.8</ele>
        <time>2021-10-23T08:50:26.523Z</time>
      </trkpt>
      <trkpt lat="47.96627" lon="-3.97266">
        <ele>104</ele>
        <time>2021-10-23T08:50:34.328Z</time>
      </trkpt>
      <trkpt lat="47.96662" lon="-3.97358">
        <ele>103.8</ele>
        <time>2021-10-23T08:50:42.201Z</time>
      </trkpt>
      <trkpt lat="47.96698" lon="-3.97436">
        <ele>102</ele>
        <time>2021-10-23T08:50:49.256Z</time>
      </trkpt>
      <trkpt lat="47.96721" lon="-3.9748">
        <ele>99.9</ele>
        <time>2021-10-23T08:50:53.453Z</time>
      </trkpt>
      <trkpt lat="47.9673" lon="-3.97494">
        <ele>99.3</ele>
        <time>2021-10-23T08:50:54.862Z</time>
      </trkpt>
      <trkpt lat="47.96718" lon="-3.97512">
        <ele>99.9</ele>
        <time>2021-10-23T08:50:56.769Z</time>
      </trkpt>
      <trkpt lat="47.96711" lon="-3.97528">
        <ele>100.7</ele>
        <time>2021-10-23T08:50:58.146Z</time>
      </trkpt>
      <trkpt lat="47.9671" lon="-3.97536">
        <ele>100.9</ele>
        <time>2021-10-23T08:50:58.756Z</time>
      </trkpt>
      <trkpt lat="47.96707" lon="-3.97569">
        <ele>101.2</ele>
        <time>2021-10-23T08:51:01.221Z</time>
      </trkpt>
      <trkpt lat="47.96709" lon="-3.97605">
        <ele>101.8</ele>
        <time>2021-10-23T08:51:03.922Z</time>
      </trkpt>
      <trkpt lat="47.96709" lon="-3.97611">
        <ele>101.9</ele>
        <time>2021-10-23T08:51:04.317Z</time>
      </trkpt>
      <trkpt lat="47.96713" lon="-3.97645">
        <ele>101.6</ele>
        <time>2021-10-23T08:51:06.919Z</time>
      </trkpt>
      <trkpt lat="47.96734" lon="-3.97794">
        <ele>98.9</ele>
        <time>2021-10-23T08:51:18.266Z</time>
      </trkpt>
      <trkpt lat="47.96741" lon="-3.9784">
        <ele>97.7</ele>
        <time>2021-10-23T08:51:21.787Z</time>
      </trkpt>
      <trkpt lat="47.96761" lon="-3.97982">
        <ele>96</ele>
        <time>2021-10-23T08:51:32.597Z</time>
      </trkpt>
      <trkpt lat="47.96771" lon="-3.98048">
        <ele>95.2</ele>
        <time>2021-10-23T08:51:37.633Z</time>
      </trkpt>
      <trkpt lat="47.96785" lon="-3.98133">
        <ele>94.3</ele>
        <time>2021-10-23T08:51:44.123Z</time>
      </trkpt>
      <trkpt lat="47.96795" lon="-3.98203">
        <ele>94</ele>
        <time>2021-10-23T08:51:49.469Z</time>
      </trkpt>
      <trkpt lat="47.96801" lon="-3.98206">
        <ele>94</ele>
        <time>2021-10-23T08:51:50.085Z</time>
      </trkpt>
      <trkpt lat="47.96808" lon="-3.98208">
        <ele>94</ele>
        <time>2021-10-23T08:51:50.915Z</time>
      </trkpt>
      <trkpt lat="47.96817" lon="-3.98257">
        <ele>93.6</ele>
        <time>2021-10-23T08:51:54.675Z</time>
      </trkpt>
      <trkpt lat="47.96855" lon="-3.98372">
        <ele>92.6</ele>
        <time>2021-10-23T08:52:04.222Z</time>
      </trkpt>
      <trkpt lat="47.96865" lon="-3.98432">
        <ele>93</ele>
        <time>2021-10-23T08:52:08.825Z</time>
      </trkpt>
      <trkpt lat="47.96886" lon="-3.98506">
        <ele>91.2</ele>
        <time>2021-10-23T08:52:14.862Z</time>
      </trkpt>
      <trkpt lat="47.96887" lon="-3.98509">
        <ele>90.9</ele>
        <time>2021-10-23T08:52:15.098Z</time>
      </trkpt>
      <trkpt lat="47.96893" lon="-3.98523">
        <ele>89.5</ele>
        <time>2021-10-23T08:52:16.342Z</time>
      </trkpt>
      <trkpt lat="47.969" lon="-3.98537">
        <ele>88.1</ele>
        <time>2021-10-23T08:52:17.634Z</time>
      </trkpt>
      <trkpt lat="47.96905" lon="-3.98544">
        <ele>87.3</ele>
        <time>2021-10-23T08:52:18.344Z</time>
      </trkpt>
      <trkpt lat="47.96906" lon="-3.98547">
        <ele>86.9</ele>
        <time>2021-10-23T08:52:18.667Z</time>
      </trkpt>
      <trkpt lat="47.96921" lon="-3.98569">
        <ele>84.3</ele>
        <time>2021-10-23T08:52:20.991Z</time>
      </trkpt>
      <trkpt lat="47.96928" lon="-3.98583">
        <ele>82.8</ele>
        <time>2021-10-23T08:52:22.285Z</time>
      </trkpt>
      <trkpt lat="47.96933" lon="-3.98594">
        <ele>81.8</ele>
        <time>2021-10-23T08:52:23.290Z</time>
      </trkpt>
      <trkpt lat="47.96938" lon="-3.98607">
        <ele>80.6</ele>
        <time>2021-10-23T08:52:24.383Z</time>
      </trkpt>
      <trkpt lat="47.96943" lon="-3.98623">
        <ele>79.1</ele>
        <time>2021-10-23T08:52:25.689Z</time>
      </trkpt>
      <trkpt lat="47.96951" lon="-3.98648">
        <ele>78.9</ele>
        <time>2021-10-23T08:52:27.787Z</time>
      </trkpt>
      <trkpt lat="47.96955" lon="-3.98661">
        <ele>78.9</ele>
        <time>2021-10-23T08:52:28.830Z</time>
      </trkpt>
      <trkpt lat="47.96956" lon="-3.98665">
        <ele>78.8</ele>
        <time>2021-10-23T08:52:29.132Z</time>
      </trkpt>
      <trkpt lat="47.96967" lon="-3.987">
        <ele>78.9</ele>
        <time>2021-10-23T08:52:32.067Z</time>
      </trkpt>
      <trkpt lat="47.96988" lon="-3.9877">
        <ele>82.6</ele>
        <time>2021-10-23T08:52:37.751Z</time>
      </trkpt>
      <trkpt lat="47.97004" lon="-3.98824">
        <ele>84.8</ele>
        <time>2021-10-23T08:52:42.186Z</time>
      </trkpt>
      <trkpt lat="47.97019" lon="-3.98871">
        <ele>86</ele>
        <time>2021-10-23T08:52:46.054Z</time>
      </trkpt>
      <trkpt lat="47.97035" lon="-3.98923">
        <ele>86.3</ele>
        <time>2021-10-23T08:52:50.272Z</time>
      </trkpt>
      <trkpt lat="47.9704" lon="-3.98944">
        <ele>85.9</ele>
        <time>2021-10-23T08:52:51.938Z</time>
      </trkpt>
      <trkpt lat="47.97048" lon="-3.98986">
        <ele>85.6</ele>
        <time>2021-10-23T08:52:55.213Z</time>
      </trkpt>
      <trkpt lat="47.97054" lon="-3.9902">
        <ele>85.1</ele>
        <time>2021-10-23T08:52:57.844Z</time>
      </trkpt>
      <trkpt lat="47.97059" lon="-3.99059">
        <ele>83.8</ele>
        <time>2021-10-23T08:53:00.771Z</time>
      </trkpt>
      <trkpt lat="47.97066" lon="-3.99095">
        <ele>82.9</ele>
        <time>2021-10-23T08:53:03.601Z</time>
      </trkpt>
      <trkpt lat="47.97079" lon="-3.99144">
        <ele>81.7</ele>
        <time>2021-10-23T08:53:07.508Z</time>
      </trkpt>
      <trkpt lat="47.97082" lon="-3.99167">
        <ele>82.4</ele>
        <time>2021-10-23T08:53:09.237Z</time>
      </trkpt>
      <trkpt lat="47.97084" lon="-3.99183">
        <ele>82.7</ele>
        <time>2021-10-23T08:53:10.429Z</time>
      </trkpt>
      <trkpt lat="47.97084" lon="-3.99198">
        <ele>82.9</ele>
        <time>2021-10-23T08:53:11.564Z</time>
      </trkpt>
      <trkpt lat="47.97083" lon="-3.99211">
        <ele>83</ele>
        <time>2021-10-23T08:53:12.542Z</time>
      </trkpt>
      <trkpt lat="47.97076" lon="-3.9922">
        <ele>83.1</ele>
        <time>2021-10-23T08:53:13.514Z</time>
      </trkpt>
      <trkpt lat="47.97065" lon="-3.9923">
        <ele>83.6</ele>
        <time>2021-10-23T08:53:14.973Z</time>
      </trkpt>
      <trkpt lat="47.97068" lon="-3.99235">
        <ele>83.7</ele>
        <time>2021-10-23T08:53:15.494Z</time>
      </trkpt>
      <trkpt lat="47.9711" lon="-3.99338">
        <ele>84.1</ele>
        <time>2021-10-23T08:53:24.467Z</time>
      </trkpt>
      <trkpt lat="47.9712" lon="-3.99365">
        <ele>84.1</ele>
        <time>2021-10-23T08:53:26.750Z</time>
      </trkpt>
      <trkpt lat="47.97131" lon="-3.99397">
        <ele>84.4</ele>
        <time>2021-10-23T08:53:29.429Z</time>
      </trkpt>
      <trkpt lat="47.97142" lon="-3.99429">
        <ele>84.3</ele>
        <time>2021-10-23T08:53:32.161Z</time>
      </trkpt>
      <trkpt lat="47.97155" lon="-3.9947">
        <ele>85.5</ele>
        <time>2021-10-23T08:53:35.529Z</time>
      </trkpt>
      <trkpt lat="47.97166" lon="-3.99503">
        <ele>86.1</ele>
        <time>2021-10-23T08:53:38.244Z</time>
      </trkpt>
      <trkpt lat="47.97183" lon="-3.99567">
        <ele>87.3</ele>
        <time>2021-10-23T08:53:43.355Z</time>
      </trkpt>
      <trkpt lat="47.97199" lon="-3.99627">
        <ele>88.9</ele>
        <time>2021-10-23T08:53:48.173Z</time>
      </trkpt>
      <trkpt lat="47.97205" lon="-3.99644">
        <ele>89.2</ele>
        <time>2021-10-23T08:53:49.617Z</time>
      </trkpt>
      <trkpt lat="47.9721" lon="-3.99655">
        <ele>89.5</ele>
        <time>2021-10-23T08:53:50.587Z</time>
      </trkpt>
      <trkpt lat="47.97222" lon="-3.99642">
        <ele>90</ele>
        <time>2021-10-23T08:53:52.262Z</time>
      </trkpt>
      <trkpt lat="47.97231" lon="-3.99636">
        <ele>90.4</ele>
        <time>2021-10-23T08:53:53.418Z</time>
      </trkpt>
      <trkpt lat="47.97244" lon="-3.99628">
        <ele>90.9</ele>
        <time>2021-10-23T08:53:54.973Z</time>
      </trkpt>
      <trkpt lat="47.97258" lon="-3.9962">
        <ele>91.3</ele>
        <time>2021-10-23T08:53:56.647Z</time>
      </trkpt>
      <trkpt lat="47.97282" lon="-3.99609">
        <ele>92</ele>
        <time>2021-10-23T08:53:59.408Z</time>
      </trkpt>
      <trkpt lat="47.97371" lon="-3.99572">
        <ele>91.6</ele>
        <time>2021-10-23T08:54:09.642Z</time>
      </trkpt>
      <trkpt lat="47.97379" lon="-3.99618">
        <ele>92.1</ele>
        <time>2021-10-23T08:54:13.132Z</time>
      </trkpt>
      <trkpt lat="47.97387" lon="-3.99665">
        <ele>92</ele>
        <time>2021-10-23T08:54:16.801Z</time>
      </trkpt>
      <trkpt lat="47.97391" lon="-3.99709">
        <ele>92.2</ele>
        <time>2021-10-23T08:54:20.057Z</time>
      </trkpt>
      <trkpt lat="47.97397" lon="-3.9975">
        <ele>92</ele>
        <time>2021-10-23T08:54:23.166Z</time>
      </trkpt>
      <trkpt lat="47.97401" lon="-3.9977">
        <ele>92</ele>
        <time>2021-10-23T08:54:24.763Z</time>
      </trkpt>
      <trkpt lat="47.97405" lon="-3.99791">
        <ele>92</ele>
        <time>2021-10-23T08:54:26.409Z</time>
      </trkpt>
      <trkpt lat="47.97427" lon="-3.99788">
        <ele>91.9</ele>
        <time>2021-10-23T08:54:28.940Z</time>
      </trkpt>
      <trkpt lat="47.97441" lon="-3.99787">
        <ele>91.6</ele>
        <time>2021-10-23T08:54:30.525Z</time>
      </trkpt>
      <trkpt lat="47.97452" lon="-3.99786">
        <ele>91.3</ele>
        <time>2021-10-23T08:54:31.726Z</time>
      </trkpt>
      <trkpt lat="47.97464" lon="-3.99787">
        <ele>90.7</ele>
        <time>2021-10-23T08:54:33.019Z</time>
      </trkpt>
      <trkpt lat="47.97478" lon="-3.9979">
        <ele>88.8</ele>
        <time>2021-10-23T08:54:34.661Z</time>
      </trkpt>
      <trkpt lat="47.97486" lon="-3.99793">
        <ele>87.9</ele>
        <time>2021-10-23T08:54:35.563Z</time>
      </trkpt>
      <trkpt lat="47.97497" lon="-3.99798">
        <ele>87.3</ele>
        <time>2021-10-23T08:54:36.800Z</time>
      </trkpt>
      <trkpt lat="47.97503" lon="-3.99797">
        <ele>86.9</ele>
        <time>2021-10-23T08:54:37.498Z</time>
      </trkpt>
      <trkpt lat="47.97506" lon="-3.99797">
        <ele>86.7</ele>
        <time>2021-10-23T08:54:37.839Z</time>
      </trkpt>
      <trkpt lat="47.97507" lon="-3.99795">
        <ele>86.7</ele>
        <time>2021-10-23T08:54:37.973Z</time>
      </trkpt>
      <trkpt lat="47.97507" lon="-3.99794">
        <ele>86.6</ele>
        <time>2021-10-23T08:54:38.069Z</time>
      </trkpt>
      <trkpt lat="47.97508" lon="-3.99792">
        <ele>86.4</ele>
        <time>2021-10-23T08:54:38.306Z</time>
      </trkpt>
      <trkpt lat="47.97509" lon="-3.9979">
        <ele>86.3</ele>
        <time>2021-10-23T08:54:38.467Z</time>
      </trkpt>
      <trkpt lat="47.9751" lon="-3.99789">
        <ele>86.2</ele>
        <time>2021-10-23T08:54:38.616Z</time>
      </trkpt>
      <trkpt lat="47.97512" lon="-3.99789">
        <ele>86.1</ele>
        <time>2021-10-23T08:54:38.813Z</time>
      </trkpt>
      <trkpt lat="47.97514" lon="-3.99789">
        <ele>86</ele>
        <time>2021-10-23T08:54:38.987Z</time>
      </trkpt>
      <trkpt lat="47.97515" lon="-3.9979">
        <ele>85.9</ele>
        <time>2021-10-23T08:54:39.112Z</time>
      </trkpt>
      <trkpt lat="47.97516" lon="-3.99791">
        <ele>85.9</ele>
        <time>2021-10-23T08:54:39.279Z</time>
      </trkpt>
      <trkpt lat="47.97516" lon="-3.99793">
        <ele>85.9</ele>
        <time>2021-10-23T08:54:39.432Z</time>
      </trkpt>
      <trkpt lat="47.97517" lon="-3.99795">
        <ele>86</ele>
        <time>2021-10-23T08:54:39.592Z</time>
      </trkpt>
      <trkpt lat="47.9752" lon="-3.99793">
        <ele>85.7</ele>
        <time>2021-10-23T08:54:39.969Z</time>
      </trkpt>
      <trkpt lat="47.97523" lon="-3.99793">
        <ele>85.5</ele>
        <time>2021-10-23T08:54:40.305Z</time>
      </trkpt>
      <trkpt lat="47.97526" lon="-3.99793">
        <ele>85.3</ele>
        <time>2021-10-23T08:54:40.640Z</time>
      </trkpt>
      <trkpt lat="47.97529" lon="-3.99796">
        <ele>85.2</ele>
        <time>2021-10-23T08:54:40.993Z</time>
      </trkpt>
      <trkpt lat="47.97533" lon="-3.99806">
        <ele>84.9</ele>
        <time>2021-10-23T08:54:41.882Z</time>
      </trkpt>
      <trkpt lat="47.97536" lon="-3.99813">
        <ele>84.7</ele>
        <time>2021-10-23T08:54:42.515Z</time>
      </trkpt>
      <trkpt lat="47.9754" lon="-3.99827">
        <ele>84.2</ele>
        <time>2021-10-23T08:54:43.626Z</time>
      </trkpt>
      <trkpt lat="47.97543" lon="-3.99833">
        <ele>83.8</ele>
        <time>2021-10-23T08:54:44.147Z</time>
      </trkpt>
      <trkpt lat="47.97545" lon="-3.99838">
        <ele>83.5</ele>
        <time>2021-10-23T08:54:44.633Z</time>
      </trkpt>
      <trkpt lat="47.97546" lon="-3.99841">
        <ele>83.3</ele>
        <time>2021-10-23T08:54:44.894Z</time>
      </trkpt>
      <trkpt lat="47.97548" lon="-3.99843">
        <ele>83</ele>
        <time>2021-10-23T08:54:45.152Z</time>
      </trkpt>
      <trkpt lat="47.97551" lon="-3.99846">
        <ele>82.9</ele>
        <time>2021-10-23T08:54:45.550Z</time>
      </trkpt>
      <trkpt lat="47.97553" lon="-3.99847">
        <ele>82.9</ele>
        <time>2021-10-23T08:54:45.806Z</time>
      </trkpt>
      <trkpt lat="47.97556" lon="-3.99848">
        <ele>82.9</ele>
        <time>2021-10-23T08:54:46.060Z</time>
      </trkpt>
      <trkpt lat="47.97558" lon="-3.99849">
        <ele>82.8</ele>
        <time>2021-10-23T08:54:46.335Z</time>
      </trkpt>
      <trkpt lat="47.97566" lon="-3.9985">
        <ele>82.4</ele>
        <time>2021-10-23T08:54:47.217Z</time>
      </trkpt>
      <trkpt lat="47.97575" lon="-3.99849">
        <ele>82</ele>
        <time>2021-10-23T08:54:48.244Z</time>
      </trkpt>
      <trkpt lat="47.97581" lon="-3.99845">
        <ele>81.6</ele>
        <time>2021-10-23T08:54:48.958Z</time>
      </trkpt>
      <trkpt lat="47.97581" lon="-3.99845">
        <ele>81.6</ele>
        <time>2021-10-23T08:54:48.967Z</time>
      </trkpt>
      <trkpt lat="47.97582" lon="-3.99844">
        <ele>81.5</ele>
        <time>2021-10-23T08:54:49.154Z</time>
      </trkpt>
      <trkpt lat="47.97589" lon="-3.99841">
        <ele>81.2</ele>
        <time>2021-10-23T08:54:49.890Z</time>
      </trkpt>
      <trkpt lat="47.97631" lon="-3.99835">
        <ele>78</ele>
        <time>2021-10-23T08:54:54.590Z</time>
      </trkpt>
      <trkpt lat="47.97646" lon="-3.99834">
        <ele>77.1</ele>
        <time>2021-10-23T08:54:56.311Z</time>
      </trkpt>
      <trkpt lat="47.97663" lon="-3.99834">
        <ele>76.8</ele>
        <time>2021-10-23T08:54:58.174Z</time>
      </trkpt>
      <trkpt lat="47.97674" lon="-3.99835">
        <ele>76.6</ele>
        <time>2021-10-23T08:54:59.467Z</time>
      </trkpt>
      <trkpt lat="47.97684" lon="-3.99837">
        <ele>76.6</ele>
        <time>2021-10-23T08:55:00.574Z</time>
      </trkpt>
      <trkpt lat="47.97689" lon="-3.99844">
        <ele>77.3</ele>
        <time>2021-10-23T08:55:01.314Z</time>
      </trkpt>
      <trkpt lat="47.97688" lon="-3.99844">
        <ele>77.3</ele>
        <time>2021-10-23T08:55:01.346Z</time>
      </trkpt>
      <trkpt lat="47.97696" lon="-3.99847">
        <ele>77.7</ele>
        <time>2021-10-23T08:55:02.218Z</time>
      </trkpt>
      <trkpt lat="47.97705" lon="-3.99852">
        <ele>78.1</ele>
        <time>2021-10-23T08:55:03.262Z</time>
      </trkpt>
      <trkpt lat="47.97713" lon="-3.99856">
        <ele>78.4</ele>
        <time>2021-10-23T08:55:04.215Z</time>
      </trkpt>
      <trkpt lat="47.97728" lon="-3.99863">
        <ele>78.8</ele>
        <time>2021-10-23T08:55:05.991Z</time>
      </trkpt>
      <trkpt lat="47.97741" lon="-3.99867">
        <ele>78.9</ele>
        <time>2021-10-23T08:55:07.420Z</time>
      </trkpt>
      <trkpt lat="47.97746" lon="-3.99869">
        <ele>78.9</ele>
        <time>2021-10-23T08:55:07.999Z</time>
      </trkpt>
      <trkpt lat="47.97753" lon="-3.99869">
        <ele>78.9</ele>
        <time>2021-10-23T08:55:08.763Z</time>
      </trkpt>
      <trkpt lat="47.97759" lon="-3.99869">
        <ele>78.9</ele>
        <time>2021-10-23T08:55:09.527Z</time>
      </trkpt>
      <trkpt lat="47.9777" lon="-3.99868">
        <ele>78.8</ele>
        <time>2021-10-23T08:55:10.727Z</time>
      </trkpt>
      <trkpt lat="47.97779" lon="-3.99865">
        <ele>78.4</ele>
        <time>2021-10-23T08:55:11.744Z</time>
      </trkpt>
      <trkpt lat="47.97792" lon="-3.99862">
        <ele>77.7</ele>
        <time>2021-10-23T08:55:13.154Z</time>
      </trkpt>
      <trkpt lat="47.97811" lon="-3.99854">
        <ele>77.2</ele>
        <time>2021-10-23T08:55:15.355Z</time>
      </trkpt>
      <trkpt lat="47.97836" lon="-3.99843">
        <ele>75.8</ele>
        <time>2021-10-23T08:55:18.325Z</time>
      </trkpt>
      <trkpt lat="47.97864" lon="-3.99829">
        <ele>74.3</ele>
        <time>2021-10-23T08:55:21.592Z</time>
      </trkpt>
      <trkpt lat="47.97902" lon="-3.99816">
        <ele>74.4</ele>
        <time>2021-10-23T08:55:25.956Z</time>
      </trkpt>
      <trkpt lat="47.9793" lon="-3.99807">
        <ele>76.1</ele>
        <time>2021-10-23T08:55:29.146Z</time>
      </trkpt>
      <trkpt lat="47.97944" lon="-3.99801">
        <ele>77.2</ele>
        <time>2021-10-23T08:55:30.695Z</time>
      </trkpt>
      <trkpt lat="47.97962" lon="-3.99788">
        <ele>79</ele>
        <time>2021-10-23T08:55:32.955Z</time>
      </trkpt>
      <trkpt lat="47.98012" lon="-3.9975">
        <ele>84.8</ele>
        <time>2021-10-23T08:55:39.202Z</time>
      </trkpt>
      <trkpt lat="47.9803" lon="-3.99739">
        <ele>86.1</ele>
        <time>2021-10-23T08:55:41.347Z</time>
      </trkpt>
      <trkpt lat="47.98041" lon="-3.99797">
        <ele>87.6</ele>
        <time>2021-10-23T08:55:45.807Z</time>
      </trkpt>
      <trkpt lat="47.98045" lon="-3.99831">
        <ele>87.9</ele>
        <time>2021-10-23T08:55:48.376Z</time>
      </trkpt>
      <trkpt lat="47.98048" lon="-3.99865">
        <ele>88.4</ele>
        <time>2021-10-23T08:55:50.963Z</time>
      </trkpt>
      <trkpt lat="47.9805" lon="-3.99894">
        <ele>88.2</ele>
        <time>2021-10-23T08:55:53.102Z</time>
      </trkpt>
      <trkpt lat="47.98051" lon="-3.99929">
        <ele>87.9</ele>
        <time>2021-10-23T08:55:55.716Z</time>
      </trkpt>
      <trkpt lat="47.98052" lon="-3.99947">
        <ele>88.1</ele>
        <time>2021-10-23T08:55:57.068Z</time>
      </trkpt>
      <trkpt lat="47.98054" lon="-3.99963">
        <ele>87.9</ele>
        <time>2021-10-23T08:55:58.265Z</time>
      </trkpt>
      <trkpt lat="47.98058" lon="-3.99977">
        <ele>87.9</ele>
        <time>2021-10-23T08:55:59.395Z</time>
      </trkpt>
      <trkpt lat="47.98064" lon="-3.99991">
        <ele>88.5</ele>
        <time>2021-10-23T08:56:00.671Z</time>
      </trkpt>
      <trkpt lat="47.98066" lon="-3.99996">
        <ele>88.8</ele>
        <time>2021-10-23T08:56:01.057Z</time>
      </trkpt>
      <trkpt lat="47.98073" lon="-4.00007">
        <ele>89.5</ele>
        <time>2021-10-23T08:56:02.249Z</time>
      </trkpt>
      <trkpt lat="47.98083" lon="-4.00017">
        <ele>90.1</ele>
        <time>2021-10-23T08:56:03.573Z</time>
      </trkpt>
      <trkpt lat="47.98095" lon="-4.00028">
        <ele>90.4</ele>
        <time>2021-10-23T08:56:05.122Z</time>
      </trkpt>
      <trkpt lat="47.98112" lon="-4.00038">
        <ele>91.2</ele>
        <time>2021-10-23T08:56:07.142Z</time>
      </trkpt>
      <trkpt lat="47.98135" lon="-4.00049">
        <ele>92</ele>
        <time>2021-10-23T08:56:09.803Z</time>
      </trkpt>
      <trkpt lat="47.98161" lon="-4.00065">
        <ele>92.6</ele>
        <time>2021-10-23T08:56:12.972Z</time>
      </trkpt>
      <trkpt lat="47.982" lon="-4.00084">
        <ele>92.5</ele>
        <time>2021-10-23T08:56:17.470Z</time>
      </trkpt>
      <trkpt lat="47.9821" lon="-4.00088">
        <ele>92.4</ele>
        <time>2021-10-23T08:56:18.646Z</time>
      </trkpt>
      <trkpt lat="47.9822" lon="-4.00089">
        <ele>92.2</ele>
        <time>2021-10-23T08:56:19.748Z</time>
      </trkpt>
      <trkpt lat="47.98262" lon="-4.00087">
        <ele>92.8</ele>
        <time>2021-10-23T08:56:24.429Z</time>
      </trkpt>
      <trkpt lat="47.98282" lon="-4.00088">
        <ele>93.4</ele>
        <time>2021-10-23T08:56:26.673Z</time>
      </trkpt>
      <trkpt lat="47.98332" lon="-4.00098">
        <ele>94.7</ele>
        <time>2021-10-23T08:56:32.256Z</time>
      </trkpt>
      <trkpt lat="47.9835" lon="-4.00103">
        <ele>95</ele>
        <time>2021-10-23T08:56:34.367Z</time>
      </trkpt>
      <trkpt lat="47.98359" lon="-4.00109">
        <ele>95</ele>
        <time>2021-10-23T08:56:35.467Z</time>
      </trkpt>
      <trkpt lat="47.98364" lon="-4.00097">
        <ele>95</ele>
        <time>2021-10-23T08:56:36.499Z</time>
      </trkpt>
      <trkpt lat="47.98368" lon="-4.00077">
        <ele>95.4</ele>
        <time>2021-10-23T08:56:38.090Z</time>
      </trkpt>
      <trkpt lat="47.98393" lon="-4.00056">
        <ele>94.1</ele>
        <time>2021-10-23T08:56:41.314Z</time>
      </trkpt>
      <trkpt lat="47.9841" lon="-4.00035">
        <ele>92.7</ele>
        <time>2021-10-23T08:56:43.846Z</time>
      </trkpt>
      <trkpt lat="47.98427" lon="-4.00009">
        <ele>90</ele>
        <time>2021-10-23T08:56:46.536Z</time>
      </trkpt>
      <trkpt lat="47.98431" lon="-3.99996">
        <ele>88.7</ele>
        <time>2021-10-23T08:56:47.661Z</time>
      </trkpt>
      <trkpt lat="47.98432" lon="-3.99991">
        <ele>88.4</ele>
        <time>2021-10-23T08:56:48.043Z</time>
      </trkpt>
      <trkpt lat="47.98444" lon="-3.99947">
        <ele>84.9</ele>
        <time>2021-10-23T08:56:51.639Z</time>
      </trkpt>
      <trkpt lat="47.98467" lon="-3.99831">
        <ele>77.8</ele>
        <time>2021-10-23T08:57:00.649Z</time>
      </trkpt>
      <trkpt lat="47.98529" lon="-3.99712">
        <ele>65.2</ele>
        <time>2021-10-23T08:57:11.906Z</time>
      </trkpt>
      <trkpt lat="47.98583" lon="-3.99588">
        <ele>59.5</ele>
        <time>2021-10-23T08:57:22.929Z</time>
      </trkpt>
      <trkpt lat="47.9859" lon="-3.99604">
        <ele>58</ele>
        <time>2021-10-23T08:57:24.406Z</time>
      </trkpt>
      <trkpt lat="47.98604" lon="-3.99629">
        <ele>54.8</ele>
        <time>2021-10-23T08:57:26.855Z</time>
      </trkpt>
      <trkpt lat="47.98612" lon="-3.99639">
        <ele>53.3</ele>
        <time>2021-10-23T08:57:27.969Z</time>
      </trkpt>
      <trkpt lat="47.98627" lon="-3.99647">
        <ele>50.9</ele>
        <time>2021-10-23T08:57:29.765Z</time>
      </trkpt>
      <trkpt lat="47.98637" lon="-3.99655">
        <ele>48.9</ele>
        <time>2021-10-23T08:57:31.076Z</time>
      </trkpt>
      <trkpt lat="47.9865" lon="-3.99662">
        <ele>47.4</ele>
        <time>2021-10-23T08:57:32.618Z</time>
      </trkpt>
      <trkpt lat="47.98661" lon="-3.99667">
        <ele>46.4</ele>
        <time>2021-10-23T08:57:33.930Z</time>
      </trkpt>
      <trkpt lat="47.98665" lon="-3.99669">
        <ele>46</ele>
        <time>2021-10-23T08:57:34.383Z</time>
      </trkpt>
      <trkpt lat="47.98684" lon="-3.99673">
        <ele>43.8</ele>
        <time>2021-10-23T08:57:36.515Z</time>
      </trkpt>
      <trkpt lat="47.98704" lon="-3.99678">
        <ele>40.9</ele>
        <time>2021-10-23T08:57:38.798Z</time>
      </trkpt>
      <trkpt lat="47.98725" lon="-3.99679">
        <ele>38.5</ele>
        <time>2021-10-23T08:57:41.143Z</time>
      </trkpt>
      <trkpt lat="47.98758" lon="-3.99684">
        <ele>32.9</ele>
        <time>2021-10-23T08:57:44.835Z</time>
      </trkpt>
      <trkpt lat="47.98792" lon="-3.99694">
        <ele>27.6</ele>
        <time>2021-10-23T08:57:48.726Z</time>
      </trkpt>
      <trkpt lat="47.98795" lon="-3.99695">
        <ele>27.3</ele>
        <time>2021-10-23T08:57:49.119Z</time>
      </trkpt>
      <trkpt lat="47.98813" lon="-3.99703">
        <ele>26.3</ele>
        <time>2021-10-23T08:57:51.272Z</time>
      </trkpt>
      <trkpt lat="47.9882" lon="-3.99706">
        <ele>25.9</ele>
        <time>2021-10-23T08:57:52.140Z</time>
      </trkpt>
      <trkpt lat="47.98829" lon="-3.99709">
        <ele>25.6</ele>
        <time>2021-10-23T08:57:53.209Z</time>
      </trkpt>
      <trkpt lat="47.9884" lon="-3.9971">
        <ele>25.2</ele>
        <time>2021-10-23T08:57:54.439Z</time>
      </trkpt>
      <trkpt lat="47.98856" lon="-3.99709">
        <ele>24.5</ele>
        <time>2021-10-23T08:57:56.210Z</time>
      </trkpt>
      <trkpt lat="47.98868" lon="-3.99706">
        <ele>24.1</ele>
        <time>2021-10-23T08:57:57.647Z</time>
      </trkpt>
      <trkpt lat="47.9888" lon="-3.99697">
        <ele>25.1</ele>
        <time>2021-10-23T08:57:59.138Z</time>
      </trkpt>
      <trkpt lat="47.98889" lon="-3.99687">
        <ele>25.9</ele>
        <time>2021-10-23T08:58:00.476Z</time>
      </trkpt>
      <trkpt lat="47.98898" lon="-3.99676">
        <ele>28.1</ele>
        <time>2021-10-23T08:58:01.711Z</time>
      </trkpt>
      <trkpt lat="47.98902" lon="-3.99663">
        <ele>29.3</ele>
        <time>2021-10-23T08:58:02.803Z</time>
      </trkpt>
      <trkpt lat="47.98916" lon="-3.99574">
        <ele>29.3</ele>
        <time>2021-10-23T08:58:09.587Z</time>
      </trkpt>
      <trkpt lat="47.98919" lon="-3.99543">
        <ele>30</ele>
        <time>2021-10-23T08:58:11.923Z</time>
      </trkpt>
      <trkpt lat="47.98921" lon="-3.99513">
        <ele>30.9</ele>
        <time>2021-10-23T08:58:14.191Z</time>
      </trkpt>
      <trkpt lat="47.98919" lon="-3.9949">
        <ele>31.2</ele>
        <time>2021-10-23T08:58:15.937Z</time>
      </trkpt>
      <trkpt lat="47.98918" lon="-3.99449">
        <ele>34.8</ele>
        <time>2021-10-23T08:58:18.943Z</time>
      </trkpt>
      <trkpt lat="47.98914" lon="-3.99393">
        <ele>36</ele>
        <time>2021-10-23T08:58:23.140Z</time>
      </trkpt>
      <trkpt lat="47.98913" lon="-3.99363">
        <ele>37.1</ele>
        <time>2021-10-23T08:58:25.416Z</time>
      </trkpt>
      <trkpt lat="47.98912" lon="-3.99334">
        <ele>37.6</ele>
        <time>2021-10-23T08:58:27.598Z</time>
      </trkpt>
      <trkpt lat="47.98913" lon="-3.99311">
        <ele>38.4</ele>
        <time>2021-10-23T08:58:29.304Z</time>
      </trkpt>
      <trkpt lat="47.98917" lon="-3.99289">
        <ele>39.9</ele>
        <time>2021-10-23T08:58:31.012Z</time>
      </trkpt>
      <trkpt lat="47.98919" lon="-3.99279">
        <ele>40.6</ele>
        <time>2021-10-23T08:58:31.757Z</time>
      </trkpt>
      <trkpt lat="47.9889" lon="-3.99262">
        <ele>38.5</ele>
        <time>2021-10-23T08:58:35.251Z</time>
      </trkpt>
      <trkpt lat="47.98857" lon="-3.99246">
        <ele>37.2</ele>
        <time>2021-10-23T08:58:39.189Z</time>
      </trkpt>
      <trkpt lat="47.98833" lon="-3.99231">
        <ele>34.3</ele>
        <time>2021-10-23T08:58:42.036Z</time>
      </trkpt>
      <trkpt lat="47.98803" lon="-3.99204">
        <ele>30.4</ele>
        <time>2021-10-23T08:58:45.932Z</time>
      </trkpt>
      <trkpt lat="47.98791" lon="-3.99182">
        <ele>30.4</ele>
        <time>2021-10-23T08:58:48.092Z</time>
      </trkpt>
      <trkpt lat="47.98781" lon="-3.99164">
        <ele>29.6</ele>
        <time>2021-10-23T08:58:49.833Z</time>
      </trkpt>
      <trkpt lat="47.98771" lon="-3.99145">
        <ele>28.9</ele>
        <time>2021-10-23T08:58:51.575Z</time>
      </trkpt>
      <trkpt lat="47.98762" lon="-3.99119">
        <ele>28.5</ele>
        <time>2021-10-23T08:58:53.866Z</time>
      </trkpt>
      <trkpt lat="47.98755" lon="-3.99103">
        <ele>28.1</ele>
        <time>2021-10-23T08:58:55.185Z</time>
      </trkpt>
      <trkpt lat="47.98751" lon="-3.99082">
        <ele>28.2</ele>
        <time>2021-10-23T08:58:56.890Z</time>
      </trkpt>
      <trkpt lat="47.98735" lon="-3.99008">
        <ele>28.7</ele>
        <time>2021-10-23T08:59:02.649Z</time>
      </trkpt>
      <trkpt lat="47.98725" lon="-3.98918">
        <ele>31.3</ele>
        <time>2021-10-23T08:59:09.451Z</time>
      </trkpt>
      <trkpt lat="47.98699" lon="-3.98812">
        <ele>30.2</ele>
        <time>2021-10-23T08:59:17.828Z</time>
      </trkpt>
      <trkpt lat="47.98674" lon="-3.98737">
        <ele>30.8</ele>
        <time>2021-10-23T08:59:24.099Z</time>
      </trkpt>
      <trkpt lat="47.98661" lon="-3.98689">
        <ele>31.3</ele>
        <time>2021-10-23T08:59:27.982Z</time>
      </trkpt>
      <trkpt lat="47.98641" lon="-3.9861">
        <ele>33.8</ele>
        <time>2021-10-23T08:59:34.208Z</time>
      </trkpt>
      <trkpt lat="47.98625" lon="-3.98527">
        <ele>37.1</ele>
        <time>2021-10-23T08:59:40.661Z</time>
      </trkpt>
      <trkpt lat="47.98623" lon="-3.98502">
        <ele>38.6</ele>
        <time>2021-10-23T08:59:42.590Z</time>
      </trkpt>
      <trkpt lat="47.98628" lon="-3.98472">
        <ele>42</ele>
        <time>2021-10-23T08:59:44.838Z</time>
      </trkpt>
      <trkpt lat="47.98631" lon="-3.98431">
        <ele>40.5</ele>
        <time>2021-10-23T08:59:47.916Z</time>
      </trkpt>
      <trkpt lat="47.98629" lon="-3.98421">
        <ele>39.2</ele>
        <time>2021-10-23T08:59:48.723Z</time>
      </trkpt>
      <trkpt lat="47.98624" lon="-3.98417">
        <ele>38.2</ele>
        <time>2021-10-23T08:59:49.418Z</time>
      </trkpt>
      <trkpt lat="47.98617" lon="-3.98423">
        <ele>37.6</ele>
        <time>2021-10-23T08:59:50.334Z</time>
      </trkpt>
      <trkpt lat="47.98604" lon="-3.9843">
        <ele>35.4</ele>
        <time>2021-10-23T08:59:51.883Z</time>
      </trkpt>
      <trkpt lat="47.98582" lon="-3.98442">
        <ele>31.9</ele>
        <time>2021-10-23T08:59:54.554Z</time>
      </trkpt>
      <trkpt lat="47.98576" lon="-3.98436">
        <ele>31.4</ele>
        <time>2021-10-23T08:59:55.358Z</time>
      </trkpt>
      <trkpt lat="47.9857" lon="-3.98415">
        <ele>32.9</ele>
        <time>2021-10-23T08:59:57.099Z</time>
      </trkpt>
      <trkpt lat="47.98562" lon="-3.98389">
        <ele>33.7</ele>
        <time>2021-10-23T08:59:59.179Z</time>
      </trkpt>
      <trkpt lat="47.98543" lon="-3.98296">
        <ele>36.3</ele>
        <time>2021-10-23T09:00:06.394Z</time>
      </trkpt>
      <trkpt lat="47.98523" lon="-3.9822">
        <ele>35.9</ele>
        <time>2021-10-23T09:00:12.508Z</time>
      </trkpt>
      <trkpt lat="47.98503" lon="-3.98148">
        <ele>32.2</ele>
        <time>2021-10-23T09:00:18.330Z</time>
      </trkpt>
      <trkpt lat="47.98486" lon="-3.98074">
        <ele>31.2</ele>
        <time>2021-10-23T09:00:24.135Z</time>
      </trkpt>
      <trkpt lat="47.9848" lon="-3.98052">
        <ele>32.5</ele>
        <time>2021-10-23T09:00:25.881Z</time>
      </trkpt>
      <trkpt lat="47.98467" lon="-3.97992">
        <ele>30.9</ele>
        <time>2021-10-23T09:00:30.602Z</time>
      </trkpt>
      <trkpt lat="47.98455" lon="-3.97927">
        <ele>30.7</ele>
        <time>2021-10-23T09:00:35.654Z</time>
      </trkpt>
      <trkpt lat="47.98451" lon="-3.97893">
        <ele>30.6</ele>
        <time>2021-10-23T09:00:38.168Z</time>
      </trkpt>
      <trkpt lat="47.98452" lon="-3.97864">
        <ele>31.3</ele>
        <time>2021-10-23T09:00:40.393Z</time>
      </trkpt>
      <trkpt lat="47.98453" lon="-3.97848">
        <ele>31.5</ele>
        <time>2021-10-23T09:00:41.571Z</time>
      </trkpt>
      <trkpt lat="47.98452" lon="-3.97799">
        <ele>31.6</ele>
        <time>2021-10-23T09:00:45.186Z</time>
      </trkpt>
      <trkpt lat="47.98461" lon="-3.97738">
        <ele>35.1</ele>
        <time>2021-10-23T09:00:49.851Z</time>
      </trkpt>
      <trkpt lat="47.98467" lon="-3.97706">
        <ele>35.8</ele>
        <time>2021-10-23T09:00:52.339Z</time>
      </trkpt>
      <trkpt lat="47.9847" lon="-3.97677">
        <ele>35.2</ele>
        <time>2021-10-23T09:00:54.550Z</time>
      </trkpt>
      <trkpt lat="47.98472" lon="-3.97621">
        <ele>34.3</ele>
        <time>2021-10-23T09:00:58.702Z</time>
      </trkpt>
      <trkpt lat="47.98472" lon="-3.97605">
        <ele>34.2</ele>
        <time>2021-10-23T09:00:59.882Z</time>
      </trkpt>
      <trkpt lat="47.98472" lon="-3.9757">
        <ele>35</ele>
        <time>2021-10-23T09:01:02.550Z</time>
      </trkpt>
      <trkpt lat="47.9847" lon="-3.97533">
        <ele>35.5</ele>
        <time>2021-10-23T09:01:05.317Z</time>
      </trkpt>
      <trkpt lat="47.98468" lon="-3.97479">
        <ele>36.1</ele>
        <time>2021-10-23T09:01:09.337Z</time>
      </trkpt>
      <trkpt lat="47.98458" lon="-3.97414">
        <ele>37.6</ele>
        <time>2021-10-23T09:01:14.331Z</time>
      </trkpt>
      <trkpt lat="47.98452" lon="-3.97383">
        <ele>38.3</ele>
        <time>2021-10-23T09:01:16.730Z</time>
      </trkpt>
      <trkpt lat="47.98435" lon="-3.97349">
        <ele>36.1</ele>
        <time>2021-10-23T09:01:19.879Z</time>
      </trkpt>
      <trkpt lat="47.98428" lon="-3.97321">
        <ele>35.9</ele>
        <time>2021-10-23T09:01:22.102Z</time>
      </trkpt>
      <trkpt lat="47.98419" lon="-3.97283">
        <ele>36</ele>
        <time>2021-10-23T09:01:25.101Z</time>
      </trkpt>
      <trkpt lat="47.98412" lon="-3.97231">
        <ele>36.3</ele>
        <time>2021-10-23T09:01:29.004Z</time>
      </trkpt>
      <trkpt lat="47.98404" lon="-3.97166">
        <ele>36.2</ele>
        <time>2021-10-23T09:01:33.971Z</time>
      </trkpt>
      <trkpt lat="47.98397" lon="-3.97127">
        <ele>36.3</ele>
        <time>2021-10-23T09:01:36.941Z</time>
      </trkpt>
      <trkpt lat="47.9839" lon="-3.97079">
        <ele>37.5</ele>
        <time>2021-10-23T09:01:40.640Z</time>
      </trkpt>
      <trkpt lat="47.98387" lon="-3.97034">
        <ele>39.1</ele>
        <time>2021-10-23T09:01:44.008Z</time>
      </trkpt>
      <trkpt lat="47.9838" lon="-3.96977">
        <ele>39.3</ele>
        <time>2021-10-23T09:01:48.307Z</time>
      </trkpt>
      <trkpt lat="47.98379" lon="-3.96968">
        <ele>39.6</ele>
        <time>2021-10-23T09:01:49.022Z</time>
      </trkpt>
      <trkpt lat="47.98371" lon="-3.96956">
        <ele>38.2</ele>
        <time>2021-10-23T09:01:50.264Z</time>
      </trkpt>
      <trkpt lat="47.98363" lon="-3.96927">
        <ele>37.7</ele>
        <time>2021-10-23T09:01:52.595Z</time>
      </trkpt>
      <trkpt lat="47.98349" lon="-3.96935">
        <ele>34.8</ele>
        <time>2021-10-23T09:01:54.236Z</time>
      </trkpt>
      <trkpt lat="47.98333" lon="-3.96942">
        <ele>33.1</ele>
        <time>2021-10-23T09:01:56.118Z</time>
      </trkpt>
      <trkpt lat="47.98322" lon="-3.96953">
        <ele>33.3</ele>
        <time>2021-10-23T09:01:57.594Z</time>
      </trkpt>
      <trkpt lat="47.98305" lon="-3.96961">
        <ele>33.7</ele>
        <time>2021-10-23T09:01:59.580Z</time>
      </trkpt>
      <trkpt lat="47.98297" lon="-3.96956">
        <ele>33.8</ele>
        <time>2021-10-23T09:02:00.625Z</time>
      </trkpt>
      <trkpt lat="47.9829" lon="-3.96902">
        <ele>33.4</ele>
        <time>2021-10-23T09:02:04.650Z</time>
      </trkpt>
      <trkpt lat="47.98288" lon="-3.96821">
        <ele>32.6</ele>
        <time>2021-10-23T09:02:10.706Z</time>
      </trkpt>
      <trkpt lat="47.98284" lon="-3.96728">
        <ele>34</ele>
        <time>2021-10-23T09:02:17.677Z</time>
      </trkpt>
      <trkpt lat="47.98279" lon="-3.96625">
        <ele>33.1</ele>
        <time>2021-10-23T09:02:25.350Z</time>
      </trkpt>
      <trkpt lat="47.98271" lon="-3.96448">
        <ele>34.3</ele>
        <time>2021-10-23T09:02:38.554Z</time>
      </trkpt>
      <trkpt lat="47.98265" lon="-3.96371">
        <ele>35.3</ele>
        <time>2021-10-23T09:02:44.339Z</time>
      </trkpt>
      <trkpt lat="47.98258" lon="-3.96309">
        <ele>34.3</ele>
        <time>2021-10-23T09:02:48.962Z</time>
      </trkpt>
      <trkpt lat="47.98249" lon="-3.96259">
        <ele>35.2</ele>
        <time>2021-10-23T09:02:52.833Z</time>
      </trkpt>
      <trkpt lat="47.98241" lon="-3.96222">
        <ele>35.5</ele>
        <time>2021-10-23T09:02:55.762Z</time>
      </trkpt>
      <trkpt lat="47.98228" lon="-3.96167">
        <ele>36.4</ele>
        <time>2021-10-23T09:03:00.051Z</time>
      </trkpt>
      <trkpt lat="47.98204" lon="-3.96091">
        <ele>36.8</ele>
        <time>2021-10-23T09:03:06.367Z</time>
      </trkpt>
      <trkpt lat="47.98177" lon="-3.96035">
        <ele>36.7</ele>
        <time>2021-10-23T09:03:11.490Z</time>
      </trkpt>
      <trkpt lat="47.98143" lon="-3.95963">
        <ele>36.1</ele>
        <time>2021-10-23T09:03:18.061Z</time>
      </trkpt>
      <trkpt lat="47.98104" lon="-3.95879">
        <ele>35.8</ele>
        <time>2021-10-23T09:03:25.657Z</time>
      </trkpt>
      <trkpt lat="47.9807" lon="-3.95794">
        <ele>37.6</ele>
        <time>2021-10-23T09:03:33.029Z</time>
      </trkpt>
      <trkpt lat="47.98057" lon="-3.95758">
        <ele>37.9</ele>
        <time>2021-10-23T09:03:36.105Z</time>
      </trkpt>
      <trkpt lat="47.98045" lon="-3.95717">
        <ele>38.1</ele>
        <time>2021-10-23T09:03:39.374Z</time>
      </trkpt>
      <trkpt lat="47.98029" lon="-3.95651">
        <ele>40.9</ele>
        <time>2021-10-23T09:03:44.599Z</time>
      </trkpt>
      <trkpt lat="47.98016" lon="-3.95575">
        <ele>41</ele>
        <time>2021-10-23T09:03:50.445Z</time>
      </trkpt>
      <trkpt lat="47.98007" lon="-3.95521">
        <ele>41</ele>
        <time>2021-10-23T09:03:54.612Z</time>
      </trkpt>
      <trkpt lat="47.98005" lon="-3.9548">
        <ele>39.9</ele>
        <time>2021-10-23T09:03:57.661Z</time>
      </trkpt>
      <trkpt lat="47.97998" lon="-3.95361">
        <ele>38.9</ele>
        <time>2021-10-23T09:04:06.574Z</time>
      </trkpt>
      <trkpt lat="47.97989" lon="-3.95215">
        <ele>40.6</ele>
        <time>2021-10-23T09:04:17.488Z</time>
      </trkpt>
      <trkpt lat="47.97989" lon="-3.95206">
        <ele>40.4</ele>
        <time>2021-10-23T09:04:18.186Z</time>
      </trkpt>
      <trkpt lat="47.97981" lon="-3.95152">
        <ele>39.2</ele>
        <time>2021-10-23T09:04:22.246Z</time>
      </trkpt>
      <trkpt lat="47.97975" lon="-3.95127">
        <ele>41.7</ele>
        <time>2021-10-23T09:04:24.244Z</time>
      </trkpt>
      <trkpt lat="47.97966" lon="-3.95078">
        <ele>41.4</ele>
        <time>2021-10-23T09:04:28.045Z</time>
      </trkpt>
      <trkpt lat="47.97951" lon="-3.95017">
        <ele>41.9</ele>
        <time>2021-10-23T09:04:32.849Z</time>
      </trkpt>
      <trkpt lat="47.97935" lon="-3.94953">
        <ele>42</ele>
        <time>2021-10-23T09:04:37.984Z</time>
      </trkpt>
      <trkpt lat="47.97918" lon="-3.94896">
        <ele>42</ele>
        <time>2021-10-23T09:04:42.596Z</time>
      </trkpt>
      <trkpt lat="47.97906" lon="-3.94863">
        <ele>41.7</ele>
        <time>2021-10-23T09:04:45.375Z</time>
      </trkpt>
      <trkpt lat="47.9789" lon="-3.94818">
        <ele>43.1</ele>
        <time>2021-10-23T09:04:49.161Z</time>
      </trkpt>
      <trkpt lat="47.97874" lon="-3.94776">
        <ele>43.9</ele>
        <time>2021-10-23T09:04:52.756Z</time>
      </trkpt>
      <trkpt lat="47.97856" lon="-3.94725">
        <ele>46.6</ele>
        <time>2021-10-23T09:04:57.055Z</time>
      </trkpt>
      <trkpt lat="47.97842" lon="-3.94675">
        <ele>49.2</ele>
        <time>2021-10-23T09:05:01.133Z</time>
      </trkpt>
      <trkpt lat="47.97832" lon="-3.94631">
        <ele>51.7</ele>
        <time>2021-10-23T09:05:04.576Z</time>
      </trkpt>
      <trkpt lat="47.97823" lon="-3.94584">
        <ele>49.4</ele>
        <time>2021-10-23T09:05:08.215Z</time>
      </trkpt>
      <trkpt lat="47.97817" lon="-3.94542">
        <ele>49.4</ele>
        <time>2021-10-23T09:05:11.397Z</time>
      </trkpt>
      <trkpt lat="47.97815" lon="-3.94495">
        <ele>45.9</ele>
        <time>2021-10-23T09:05:14.890Z</time>
      </trkpt>
      <trkpt lat="47.97814" lon="-3.94467">
        <ele>46.3</ele>
        <time>2021-10-23T09:05:16.981Z</time>
      </trkpt>
      <trkpt lat="47.97811" lon="-3.94438">
        <ele>48</ele>
        <time>2021-10-23T09:05:19.189Z</time>
      </trkpt>
      <trkpt lat="47.97805" lon="-3.94383">
        <ele>50.8</ele>
        <time>2021-10-23T09:05:23.325Z</time>
      </trkpt>
      <trkpt lat="47.97803" lon="-3.94336">
        <ele>49.3</ele>
        <time>2021-10-23T09:05:26.816Z</time>
      </trkpt>
      <trkpt lat="47.978" lon="-3.94291">
        <ele>49.7</ele>
        <time>2021-10-23T09:05:30.223Z</time>
      </trkpt>
      <trkpt lat="47.97794" lon="-3.94205">
        <ele>51</ele>
        <time>2021-10-23T09:05:36.609Z</time>
      </trkpt>
      <trkpt lat="47.97788" lon="-3.94141">
        <ele>51.3</ele>
        <time>2021-10-23T09:05:41.445Z</time>
      </trkpt>
      <trkpt lat="47.97781" lon="-3.94077">
        <ele>50.6</ele>
        <time>2021-10-23T09:05:46.248Z</time>
      </trkpt>
      <trkpt lat="47.97774" lon="-3.94031">
        <ele>49.4</ele>
        <time>2021-10-23T09:05:49.769Z</time>
      </trkpt>
      <trkpt lat="47.97767" lon="-3.9399">
        <ele>50.8</ele>
        <time>2021-10-23T09:05:52.964Z</time>
      </trkpt>
      <trkpt lat="47.9775" lon="-3.9391">
        <ele>52.2</ele>
        <time>2021-10-23T09:05:59.165Z</time>
      </trkpt>
      <trkpt lat="47.97728" lon="-3.93796">
        <ele>54.1</ele>
        <time>2021-10-23T09:06:07.992Z</time>
      </trkpt>
      <trkpt lat="47.97705" lon="-3.93657">
        <ele>51.4</ele>
        <time>2021-10-23T09:06:18.702Z</time>
      </trkpt>
      <trkpt lat="47.97702" lon="-3.93624">
        <ele>50.8</ele>
        <time>2021-10-23T09:06:21.161Z</time>
      </trkpt>
      <trkpt lat="47.977" lon="-3.93602">
        <ele>50.4</ele>
        <time>2021-10-23T09:06:22.825Z</time>
      </trkpt>
      <trkpt lat="47.97697" lon="-3.93561">
        <ele>48.1</ele>
        <time>2021-10-23T09:06:25.893Z</time>
      </trkpt>
      <trkpt lat="47.97682" lon="-3.93475">
        <ele>47.5</ele>
        <time>2021-10-23T09:06:32.490Z</time>
      </trkpt>
      <trkpt lat="47.97674" lon="-3.93428">
        <ele>48.6</ele>
        <time>2021-10-23T09:06:36.140Z</time>
      </trkpt>
      <trkpt lat="47.97665" lon="-3.93384">
        <ele>48.5</ele>
        <time>2021-10-23T09:06:39.498Z</time>
      </trkpt>
      <trkpt lat="47.97643" lon="-3.9329">
        <ele>52.1</ele>
        <time>2021-10-23T09:06:46.972Z</time>
      </trkpt>
      <trkpt lat="47.97632" lon="-3.93244">
        <ele>55.6</ele>
        <time>2021-10-23T09:06:50.594Z</time>
      </trkpt>
      <trkpt lat="47.9761" lon="-3.93122">
        <ele>58.7</ele>
        <time>2021-10-23T09:06:59.987Z</time>
      </trkpt>
      <trkpt lat="47.97592" lon="-3.9302">
        <ele>58.8</ele>
        <time>2021-10-23T09:07:07.794Z</time>
      </trkpt>
      <trkpt lat="47.97571" lon="-3.92874">
        <ele>56.7</ele>
        <time>2021-10-23T09:07:18.929Z</time>
      </trkpt>
      <trkpt lat="47.97567" lon="-3.92825">
        <ele>53</ele>
        <time>2021-10-23T09:07:22.656Z</time>
      </trkpt>
      <trkpt lat="47.97564" lon="-3.92792">
        <ele>51.2</ele>
        <time>2021-10-23T09:07:25.115Z</time>
      </trkpt>
      <trkpt lat="47.97559" lon="-3.92701">
        <ele>54.1</ele>
        <time>2021-10-23T09:07:31.917Z</time>
      </trkpt>
      <trkpt lat="47.97555" lon="-3.92661">
        <ele>54.3</ele>
        <time>2021-10-23T09:07:34.914Z</time>
        <extensions>
          <visugpx:TrkExtension xmlns:visugpx="https://www.visugpx.com/editgpx/">
            <visugpx:node>8</visugpx:node>
            </visugpx:TrkExtension>
        </extensions>
      </trkpt>
      <trkpt lat="47.97546" lon="-3.92561">
        <ele>53.1</ele>
        <time>2021-04-05T10:42:37.555Z</time>
        <extensions>
          <visugpx:TrkExtension xmlns:visugpx="https://www.visugpx.com/editgpx/">
            <visugpx:node>9</visugpx:node>
            </visugpx:TrkExtension>
        </extensions>
      </trkpt>
      <trkpt lat="47.9755" lon="-3.92539">
        <ele>52.8</ele>
        <time>2021-04-05T10:42:35.888Z</time>
      </trkpt>
      <trkpt lat="47.97549" lon="-3.92466">
        <ele>50.5</ele>
        <time>2021-04-05T10:42:30.447Z</time>
      </trkpt>
      <trkpt lat="47.97547" lon="-3.9241">
        <ele>50</ele>
        <time>2021-04-05T10:42:26.305Z</time>
      </trkpt>
      <trkpt lat="47.97539" lon="-3.92339">
        <ele>49.9</ele>
        <time>2021-04-05T10:42:20.888Z</time>
      </trkpt>
      <trkpt lat="47.97528" lon="-3.92257">
        <ele>50.2</ele>
        <time>2021-04-05T10:42:14.715Z</time>
      </trkpt>
      <trkpt lat="47.97525" lon="-3.9224">
        <ele>48.3</ele>
        <time>2021-04-05T10:42:13.368Z</time>
      </trkpt>
      <trkpt lat="47.97523" lon="-3.92222">
        <ele>49.6</ele>
        <time>2021-04-05T10:42:12.060Z</time>
      </trkpt>
      <trkpt lat="47.97524" lon="-3.92204">
        <ele>49.4</ele>
        <time>2021-04-05T10:42:11.029Z</time>
      </trkpt>
      <trkpt lat="47.97531" lon="-3.92188">
        <ele>47.4</ele>
        <time>2021-04-05T10:42:09.366Z</time>
      </trkpt>
      <trkpt lat="47.97531" lon="-3.92188">
        <ele>47.4</ele>
        <time>2021-04-05T10:42:09.347Z</time>
      </trkpt>
      <trkpt lat="47.97536" lon="-3.92178">
        <ele>47.1</ele>
        <time>2021-04-05T10:42:08.442Z</time>
      </trkpt>
      <trkpt lat="47.97546" lon="-3.92171">
        <ele>46.9</ele>
        <time>2021-04-05T10:42:07.236Z</time>
      </trkpt>
      <trkpt lat="47.97559" lon="-3.92166">
        <ele>46.6</ele>
        <time>2021-04-05T10:42:05.644Z</time>
      </trkpt>
      <trkpt lat="47.97572" lon="-3.9216">
        <ele>46.6</ele>
        <time>2021-04-05T10:42:04.136Z</time>
      </trkpt>
      <trkpt lat="47.97585" lon="-3.9215">
        <ele>47.3</ele>
        <time>2021-04-05T10:42:02.513Z</time>
      </trkpt>
      <trkpt lat="47.97595" lon="-3.92143">
        <ele>48</ele>
        <time>2021-04-05T10:42:01.342Z</time>
      </trkpt>
      <trkpt lat="47.97617" lon="-3.92115">
        <ele>49.9</ele>
        <time>2021-04-05T10:41:58.041Z</time>
      </trkpt>
      <trkpt lat="47.97625" lon="-3.92105">
        <ele>50.9</ele>
        <time>2021-04-05T10:41:56.937Z</time>
      </trkpt>
      <trkpt lat="47.97625" lon="-3.92105">
        <ele>50.9</ele>
        <time>2021-04-05T10:41:56.909Z</time>
      </trkpt>
      <trkpt lat="47.97625" lon="-3.92105">
        <ele>50.9</ele>
        <time>2021-04-05T10:41:56.909Z</time>
      </trkpt>
      <trkpt lat="47.97646" lon="-3.92101">
        <ele>53.5</ele>
        <time>2021-04-05T10:41:54.497Z</time>
      </trkpt>
      <trkpt lat="47.97656" lon="-3.92092">
        <ele>54.9</ele>
        <time>2021-04-05T10:41:53.144Z</time>
      </trkpt>
      <trkpt lat="47.97682" lon="-3.92078">
        <ele>58.4</ele>
        <time>2021-04-05T10:41:50.041Z</time>
      </trkpt>
      <trkpt lat="47.97725" lon="-3.9207">
        <ele>62.3</ele>
        <time>2021-04-05T10:41:45.233Z</time>
      </trkpt>
      <trkpt lat="47.97767" lon="-3.92061">
        <ele>69.8</ele>
        <time>2021-04-05T10:41:40.381Z</time>
      </trkpt>
      <trkpt lat="47.97799" lon="-3.92035">
        <ele>76.7</ele>
        <time>2021-04-05T10:41:36.333Z</time>
      </trkpt>
      <trkpt lat="47.97827" lon="-3.92004">
        <ele>81.4</ele>
        <time>2021-04-05T10:41:32.500Z</time>
      </trkpt>
      <trkpt lat="47.97846" lon="-3.9195">
        <ele>89.1</ele>
        <time>2021-04-05T10:41:27.923Z</time>
      </trkpt>
      <trkpt lat="47.97857" lon="-3.91919">
        <ele>93.7</ele>
        <time>2021-04-05T10:41:25.322Z</time>
      </trkpt>
      <trkpt lat="47.97858" lon="-3.91898">
        <ele>97.6</ele>
        <time>2021-04-05T10:41:23.745Z</time>
      </trkpt>
      <trkpt lat="47.97862" lon="-3.91877">
        <ele>101</ele>
        <time>2021-04-05T10:41:22.090Z</time>
      </trkpt>
      <trkpt lat="47.97892" lon="-3.91818">
        <ele>104.2</ele>
        <time>2021-04-05T10:41:16.520Z</time>
      </trkpt>
      <trkpt lat="47.97913" lon="-3.91751">
        <ele>108.7</ele>
        <time>2021-04-05T10:41:11.041Z</time>
      </trkpt>
      <trkpt lat="47.97934" lon="-3.91723">
        <ele>109.5</ele>
        <time>2021-04-05T10:41:07.848Z</time>
      </trkpt>
      <trkpt lat="47.97965" lon="-3.91703">
        <ele>110.5</ele>
        <time>2021-04-05T10:41:04.111Z</time>
      </trkpt>
      <trkpt lat="47.97995" lon="-3.91682">
        <ele>111.4</ele>
        <time>2021-04-05T10:41:00.400Z</time>
      </trkpt>
      <trkpt lat="47.98043" lon="-3.91697">
        <ele>113.1</ele>
        <time>2021-04-05T10:40:54.958Z</time>
      </trkpt>
      <trkpt lat="47.98085" lon="-3.91699">
        <ele>119.2</ele>
        <time>2021-04-05T10:40:50.277Z</time>
      </trkpt>
      <trkpt lat="47.98117" lon="-3.91693">
        <ele>123.4</ele>
        <time>2021-04-05T10:40:46.763Z</time>
      </trkpt>
      <trkpt lat="47.98133" lon="-3.917">
        <ele>124.5</ele>
        <time>2021-04-05T10:40:44.840Z</time>
      </trkpt>
      <trkpt lat="47.98147" lon="-3.91705">
        <ele>125.3</ele>
        <time>2021-04-05T10:40:43.243Z</time>
      </trkpt>
      <trkpt lat="47.98161" lon="-3.91702">
        <ele>126.5</ele>
        <time>2021-04-05T10:40:41.657Z</time>
      </trkpt>
      <trkpt lat="47.98161" lon="-3.91702">
        <ele>126.5</ele>
        <time>2021-04-05T10:40:41.657Z</time>
      </trkpt>
      <trkpt lat="47.98162" lon="-3.91685">
        <ele>126.5</ele>
        <time>2021-04-05T10:40:40.347Z</time>
      </trkpt>
      <trkpt lat="47.98167" lon="-3.91672">
        <ele>126.9</ele>
        <time>2021-04-05T10:40:39.270Z</time>
      </trkpt>
      <trkpt lat="47.98172" lon="-3.91664">
        <ele>127.2</ele>
        <time>2021-04-05T10:40:38.430Z</time>
      </trkpt>
      <trkpt lat="47.98181" lon="-3.91651">
        <ele>128</ele>
        <time>2021-04-05T10:40:37.076Z</time>
      </trkpt>
      <trkpt lat="47.98187" lon="-3.91647">
        <ele>128.5</ele>
        <time>2021-04-05T10:40:36.325Z</time>
      </trkpt>
      <trkpt lat="47.98214" lon="-3.91637">
        <ele>129.9</ele>
        <time>2021-04-05T10:40:33.222Z</time>
      </trkpt>
      <trkpt lat="47.98218" lon="-3.9163">
        <ele>130.1</ele>
        <time>2021-04-05T10:40:32.548Z</time>
      </trkpt>
      <trkpt lat="47.98267" lon="-3.91427">
        <ele>131.7</ele>
        <time>2021-04-05T10:40:16.506Z</time>
      </trkpt>
      <trkpt lat="47.98314" lon="-3.91299">
        <ele>129.4</ele>
        <time>2021-04-05T10:40:05.651Z</time>
      </trkpt>
      <trkpt lat="47.98347" lon="-3.91212">
        <ele>127.2</ele>
        <time>2021-04-05T10:39:58.194Z</time>
      </trkpt>
      <trkpt lat="47.98376" lon="-3.91115">
        <ele>122.4</ele>
        <time>2021-04-05T10:39:50.250Z</time>
      </trkpt>
      <trkpt lat="47.98412" lon="-3.91132">
        <ele>123.2</ele>
        <time>2021-04-05T10:39:45.965Z</time>
      </trkpt>
      <trkpt lat="47.98436" lon="-3.91136">
        <ele>123.2</ele>
        <time>2021-04-05T10:39:43.368Z</time>
      </trkpt>
      <trkpt lat="47.98453" lon="-3.9113">
        <ele>122.7</ele>
        <time>2021-04-05T10:39:41.361Z</time>
      </trkpt>
      <trkpt lat="47.98469" lon="-3.91113">
        <ele>121.8</ele>
        <time>2021-04-05T10:39:39.180Z</time>
      </trkpt>
      <trkpt lat="47.98479" lon="-3.91078">
        <ele>120.3</ele>
        <time>2021-04-05T10:39:36.351Z</time>
      </trkpt>
      <trkpt lat="47.98489" lon="-3.91034">
        <ele>118.4</ele>
        <time>2021-04-05T10:39:32.888Z</time>
      </trkpt>
      <trkpt lat="47.98499" lon="-3.90974">
        <ele>117.8</ele>
        <time>2021-04-05T10:39:28.333Z</time>
      </trkpt>
      <trkpt lat="47.98506" lon="-3.90936">
        <ele>118.6</ele>
        <time>2021-04-05T10:39:25.391Z</time>
      </trkpt>
      <trkpt lat="47.98523" lon="-3.90871">
        <ele>120.8</ele>
        <time>2021-04-05T10:39:20.201Z</time>
      </trkpt>
      <trkpt lat="47.98541" lon="-3.90813">
        <ele>121.5</ele>
        <time>2021-04-05T10:39:15.432Z</time>
      </trkpt>
      <trkpt lat="47.98552" lon="-3.90765">
        <ele>120.4</ele>
        <time>2021-04-05T10:39:11.621Z</time>
      </trkpt>
      <trkpt lat="47.98552" lon="-3.90765">
        <ele>120.4</ele>
        <time>2021-04-05T10:39:11.621Z</time>
      </trkpt>
      <trkpt lat="47.98555" lon="-3.90761">
        <ele>120.3</ele>
        <time>2021-04-05T10:39:11.204Z</time>
      </trkpt>
      <trkpt lat="47.98581" lon="-3.90748">
        <ele>118.6</ele>
        <time>2021-04-05T10:39:08.182Z</time>
      </trkpt>
      <trkpt lat="47.98603" lon="-3.90746">
        <ele>117.6</ele>
        <time>2021-04-05T10:39:05.769Z</time>
      </trkpt>
      <trkpt lat="47.98624" lon="-3.90756">
        <ele>117.1</ele>
        <time>2021-04-05T10:39:03.259Z</time>
      </trkpt>
      <trkpt lat="47.98672" lon="-3.90793">
        <ele>115.5</ele>
        <time>2021-04-05T10:38:57.222Z</time>
      </trkpt>
      <trkpt lat="47.98691" lon="-3.90796">
        <ele>114.5</ele>
        <time>2021-04-05T10:38:55.040Z</time>
      </trkpt>
      <trkpt lat="47.98711" lon="-3.9079">
        <ele>113.8</ele>
        <time>2021-04-05T10:38:52.789Z</time>
      </trkpt>
      <trkpt lat="47.98749" lon="-3.9075">
        <ele>112.2</ele>
        <time>2021-04-05T10:38:47.659Z</time>
      </trkpt>
      <trkpt lat="47.98774" lon="-3.90712">
        <ele>110.7</ele>
        <time>2021-04-05T10:38:43.645Z</time>
      </trkpt>
      <trkpt lat="47.98785" lon="-3.90671">
        <ele>110.6</ele>
        <time>2021-04-05T10:38:40.346Z</time>
      </trkpt>
      <trkpt lat="47.98785" lon="-3.906">
        <ele>108.5</ele>
        <time>2021-04-05T10:38:35.062Z</time>
      </trkpt>
      <trkpt lat="47.98797" lon="-3.90565">
        <ele>106.3</ele>
        <time>2021-04-05T10:38:32.180Z</time>
      </trkpt>
      <trkpt lat="47.98813" lon="-3.90544">
        <ele>104.6</ele>
        <time>2021-04-05T10:38:29.819Z</time>
      </trkpt>
      <trkpt lat="47.98843" lon="-3.9054">
        <ele>103.4</ele>
        <time>2021-04-05T10:38:26.454Z</time>
      </trkpt>
      <trkpt lat="47.98861" lon="-3.9055">
        <ele>102.7</ele>
        <time>2021-04-05T10:38:24.281Z</time>
      </trkpt>
      <trkpt lat="47.98885" lon="-3.90549">
        <ele>101.7</ele>
        <time>2021-04-05T10:38:21.611Z</time>
      </trkpt>
      <trkpt lat="47.98908" lon="-3.90536">
        <ele>100</ele>
        <time>2021-04-05T10:38:18.864Z</time>
      </trkpt>
      <trkpt lat="47.98924" lon="-3.90508">
        <ele>98.4</ele>
        <time>2021-04-05T10:38:16.165Z</time>
      </trkpt>
      <trkpt lat="47.9893" lon="-3.90472">
        <ele>98</ele>
        <time>2021-04-05T10:38:13.385Z</time>
      </trkpt>
      <trkpt lat="47.9893" lon="-3.90452">
        <ele>97.4</ele>
        <time>2021-04-05T10:38:11.885Z</time>
      </trkpt>
      <trkpt lat="47.98911" lon="-3.90366">
        <ele>95.6</ele>
        <time>2021-04-05T10:38:05.151Z</time>
      </trkpt>
      <trkpt lat="47.98911" lon="-3.90358">
        <ele>95.7</ele>
        <time>2021-04-05T10:38:04.526Z</time>
      </trkpt>
      <trkpt lat="47.98917" lon="-3.90332">
        <ele>94.7</ele>
        <time>2021-04-05T10:38:02.470Z</time>
      </trkpt>
      <trkpt lat="47.98926" lon="-3.90297">
        <ele>93.2</ele>
        <time>2021-04-05T10:37:59.729Z</time>
      </trkpt>
      <trkpt lat="47.98936" lon="-3.90256">
        <ele>91</ele>
        <time>2021-04-05T10:37:56.448Z</time>
      </trkpt>
      <trkpt lat="47.9893" lon="-3.90226">
        <ele>91.1</ele>
        <time>2021-04-05T10:37:54.118Z</time>
      </trkpt>
      <trkpt lat="47.98928" lon="-3.90217">
        <ele>90.6</ele>
        <time>2021-04-05T10:37:53.416Z</time>
      </trkpt>
      <trkpt lat="47.98916" lon="-3.90189">
        <ele>89.5</ele>
        <time>2021-04-05T10:37:50.923Z</time>
      </trkpt>
      <trkpt lat="47.98911" lon="-3.9017">
        <ele>88.3</ele>
        <time>2021-04-05T10:37:49.416Z</time>
      </trkpt>
      <trkpt lat="47.9891" lon="-3.90154">
        <ele>87.9</ele>
        <time>2021-04-05T10:37:48.256Z</time>
      </trkpt>
      <trkpt lat="47.98913" lon="-3.9014">
        <ele>87.2</ele>
        <time>2021-04-05T10:37:47.083Z</time>
      </trkpt>
      <trkpt lat="47.98923" lon="-3.90098">
        <ele>85</ele>
        <time>2021-04-05T10:37:43.833Z</time>
      </trkpt>
      <trkpt lat="47.98932" lon="-3.90071">
        <ele>83.6</ele>
        <time>2021-04-05T10:37:41.569Z</time>
      </trkpt>
      <trkpt lat="47.98971" lon="-3.90049">
        <ele>74.4</ele>
        <time>2021-04-05T10:37:40.701Z</time>
      </trkpt>
      <trkpt lat="47.98993" lon="-3.90049">
        <ele>73.9</ele>
        <time>2021-04-05T10:37:37.722Z</time>
      </trkpt>
      <trkpt lat="47.99009" lon="-3.90055">
        <ele>73.3</ele>
        <time>2021-04-05T10:37:35.375Z</time>
      </trkpt>
      <trkpt lat="47.99031" lon="-3.9005">
        <ele>74</ele>
        <time>2021-04-05T10:37:32.326Z</time>
      </trkpt>
      <trkpt lat="47.99035" lon="-3.90022">
        <ele>73.3</ele>
        <time>2021-04-05T10:37:29.687Z</time>
      </trkpt>
      <trkpt lat="47.99041" lon="-3.90002">
        <ele>72.8</ele>
        <time>2021-04-05T10:37:27.575Z</time>
      </trkpt>
      <trkpt lat="47.99025" lon="-3.89986">
        <ele>72.5</ele>
        <time>2021-04-05T10:37:24.951Z</time>
      </trkpt>
      <trkpt lat="47.99013" lon="-3.89959">
        <ele>74.1</ele>
        <time>2021-04-05T10:37:24.437Z</time>
      </trkpt>
      <trkpt lat="47.99006" lon="-3.89926">
        <ele>76.4</ele>
        <time>2021-04-05T10:37:23.902Z</time>
      </trkpt>
      <trkpt lat="47.99004" lon="-3.89905">
        <ele>76.3</ele>
        <time>2021-04-05T10:37:20.875Z</time>
      </trkpt>
      <trkpt lat="47.99007" lon="-3.89879">
        <ele>74.6</ele>
        <time>2021-04-05T10:37:18.947Z</time>
      </trkpt>
      <trkpt lat="47.98998" lon="-3.89831">
        <ele>73.8</ele>
        <time>2021-04-05T10:37:15.262Z</time>
      </trkpt>
      <trkpt lat="47.98997" lon="-3.89788">
        <ele>71.9</ele>
        <time>2021-04-05T10:37:12.036Z</time>
      </trkpt>
      <trkpt lat="47.98999" lon="-3.89764">
        <ele>70.7</ele>
        <time>2021-04-05T10:37:10.206Z</time>
      </trkpt>
      <trkpt lat="47.99024" lon="-3.89696">
        <ele>67.7</ele>
        <time>2021-04-05T10:37:04.505Z</time>
      </trkpt>
      <trkpt lat="47.99043" lon="-3.89661">
        <ele>65.3</ele>
        <time>2021-04-05T10:37:01.116Z</time>
      </trkpt>
      <trkpt lat="47.9906" lon="-3.89644">
        <ele>64.8</ele>
        <time>2021-04-05T10:36:58.826Z</time>
      </trkpt>
      <trkpt lat="47.99083" lon="-3.89635">
        <ele>64.5</ele>
        <time>2021-04-05T10:36:56.166Z</time>
      </trkpt>
      <trkpt lat="47.99119" lon="-3.89634">
        <ele>64.3</ele>
        <time>2021-04-05T10:36:52.205Z</time>
      </trkpt>
      <trkpt lat="47.99144" lon="-3.89639">
        <ele>64</ele>
        <time>2021-04-05T10:36:49.414Z</time>
      </trkpt>
      <trkpt lat="47.99155" lon="-3.8965">
        <ele>64.2</ele>
        <time>2021-04-05T10:36:47.944Z</time>
      </trkpt>
      <trkpt lat="47.99177" lon="-3.89677">
        <ele>65.7</ele>
        <time>2021-04-05T10:36:44.694Z</time>
      </trkpt>
      <trkpt lat="47.99195" lon="-3.89691">
        <ele>65.2</ele>
        <time>2021-04-05T10:36:42.490Z</time>
      </trkpt>
      <trkpt lat="47.99214" lon="-3.89699">
        <ele>63.8</ele>
        <time>2021-04-05T10:36:40.347Z</time>
      </trkpt>
      <trkpt lat="47.99226" lon="-3.89693">
        <ele>63.6</ele>
        <time>2021-04-05T10:36:38.955Z</time>
      </trkpt>
      <trkpt lat="47.99237" lon="-3.89685">
        <ele>63.4</ele>
        <time>2021-04-05T10:36:37.511Z</time>
      </trkpt>
      <trkpt lat="47.99247" lon="-3.8967">
        <ele>62.9</ele>
        <time>2021-04-05T10:36:35.951Z</time>
      </trkpt>
      <trkpt lat="47.99247" lon="-3.8967">
        <ele>62.9</ele>
        <time>2021-04-05T10:36:35.951Z</time>
      </trkpt>
      <trkpt lat="47.99251" lon="-3.8965">
        <ele>62.3</ele>
        <time>2021-04-05T10:36:34.354Z</time>
      </trkpt>
      <trkpt lat="47.99256" lon="-3.89638">
        <ele>62.3</ele>
        <time>2021-04-05T10:36:33.333Z</time>
      </trkpt>
      <trkpt lat="47.99262" lon="-3.89617">
        <ele>64.3</ele>
        <time>2021-04-05T10:36:31.606Z</time>
      </trkpt>
      <trkpt lat="47.99266" lon="-3.89608">
        <ele>65.4</ele>
        <time>2021-04-05T10:36:30.784Z</time>
      </trkpt>
      <trkpt lat="47.99266" lon="-3.89608">
        <ele>65.4</ele>
        <time>2021-04-05T10:36:30.784Z</time>
      </trkpt>
      <trkpt lat="47.99267" lon="-3.89596">
        <ele>67.7</ele>
        <time>2021-04-05T10:36:29.350Z</time>
      </trkpt>
      <trkpt lat="47.9927" lon="-3.89582">
        <ele>70.3</ele>
        <time>2021-04-05T10:36:29.183Z</time>
      </trkpt>
      <trkpt lat="47.99281" lon="-3.89557">
        <ele>71.9</ele>
        <time>2021-04-05T10:36:28.930Z</time>
      </trkpt>
      <trkpt lat="47.99293" lon="-3.89539">
        <ele>73.9</ele>
        <time>2021-04-05T10:36:28.627Z</time>
      </trkpt>
      <trkpt lat="47.9929" lon="-3.8953">
        <ele>75.4</ele>
        <time>2021-04-05T10:36:28.513Z</time>
      </trkpt>
      <trkpt lat="47.9929" lon="-3.8953">
        <ele>75.4</ele>
        <time>2021-04-05T10:36:28.513Z</time>
      </trkpt>
      <trkpt lat="47.99294" lon="-3.89523">
        <ele>76.8</ele>
        <time>2021-04-05T10:36:28.402Z</time>
      </trkpt>
      <trkpt lat="47.9931" lon="-3.89502">
        <ele>78.1</ele>
        <time>2021-04-05T10:36:28.031Z</time>
      </trkpt>
      <trkpt lat="47.99307" lon="-3.89525">
        <ele>75.9</ele>
        <time>2021-04-05T10:36:27.722Z</time>
      </trkpt>
      <trkpt lat="47.99323" lon="-3.89552">
        <ele>74.3</ele>
        <time>2021-04-05T10:36:26.843Z</time>
      </trkpt>
      <trkpt lat="47.99335" lon="-3.89565">
        <ele>73.7</ele>
        <time>2021-04-05T10:36:26.235Z</time>
      </trkpt>
      <trkpt lat="47.9935" lon="-3.8958">
        <ele>72.8</ele>
        <time>2021-04-05T10:36:25.440Z</time>
      </trkpt>
      <trkpt lat="47.9936" lon="-3.89598">
        <ele>70.9</ele>
        <time>2021-04-05T10:36:24.763Z</time>
      </trkpt>
      <trkpt lat="47.99363" lon="-3.89621">
        <ele>69.5</ele>
        <time>2021-04-05T10:36:24.104Z</time>
      </trkpt>
      <trkpt lat="47.9935" lon="-3.89655">
        <ele>68.9</ele>
        <time>2021-04-05T10:36:19.923Z</time>
      </trkpt>
      <trkpt lat="47.99375" lon="-3.89683">
        <ele>70.9</ele>
        <time>2021-04-05T10:36:16.364Z</time>
      </trkpt>
      <trkpt lat="47.9939" lon="-3.89706">
        <ele>73.2</ele>
        <time>2021-04-05T10:36:14.045Z</time>
      </trkpt>
      <trkpt lat="47.99399" lon="-3.89717">
        <ele>73.3</ele>
        <time>2021-04-05T10:36:12.696Z</time>
      </trkpt>
      <trkpt lat="47.9942" lon="-3.89741">
        <ele>72.8</ele>
        <time>2021-04-05T10:36:09.777Z</time>
      </trkpt>
      <trkpt lat="47.99446" lon="-3.89764">
        <ele>73.4</ele>
        <time>2021-04-05T10:36:06.445Z</time>
      </trkpt>
      <trkpt lat="47.99489" lon="-3.89801">
        <ele>75.7</ele>
        <time>2021-04-05T10:36:00.921Z</time>
      </trkpt>
      <trkpt lat="47.99513" lon="-3.89823">
        <ele>75.8</ele>
        <time>2021-04-05T10:35:57.791Z</time>
      </trkpt>
      <trkpt lat="47.99527" lon="-3.89828">
        <ele>76.2</ele>
        <time>2021-04-05T10:35:56.166Z</time>
      </trkpt>
      <trkpt lat="47.99537" lon="-3.89827">
        <ele>76.6</ele>
        <time>2021-04-05T10:35:55.019Z</time>
      </trkpt>
      <trkpt lat="47.99546" lon="-3.89821">
        <ele>77.4</ele>
        <time>2021-04-05T10:35:53.923Z</time>
      </trkpt>
      <trkpt lat="47.99556" lon="-3.89809">
        <ele>78.9</ele>
        <time>2021-04-05T10:35:52.465Z</time>
      </trkpt>
      <trkpt lat="47.99561" lon="-3.89798">
        <ele>79.8</ele>
        <time>2021-04-05T10:35:51.520Z</time>
      </trkpt>
      <trkpt lat="47.99565" lon="-3.89774">
        <ele>81.8</ele>
        <time>2021-04-05T10:35:49.666Z</time>
      </trkpt>
      <trkpt lat="47.99574" lon="-3.89778">
        <ele>81.9</ele>
        <time>2021-04-05T10:35:48.597Z</time>
      </trkpt>
      <trkpt lat="47.99586" lon="-3.89787">
        <ele>80.8</ele>
        <time>2021-04-05T10:35:47.131Z</time>
      </trkpt>
      <trkpt lat="47.99601" lon="-3.89788">
        <ele>79.9</ele>
        <time>2021-04-05T10:35:45.451Z</time>
      </trkpt>
      <trkpt lat="47.99619" lon="-3.89779">
        <ele>79.5</ele>
        <time>2021-04-05T10:35:43.276Z</time>
      </trkpt>
      <trkpt lat="47.99649" lon="-3.89754">
        <ele>77.7</ele>
        <time>2021-04-05T10:35:39.485Z</time>
      </trkpt>
      <trkpt lat="47.99674" lon="-3.89725">
        <ele>75.6</ele>
        <time>2021-04-05T10:35:35.991Z</time>
      </trkpt>
      <trkpt lat="47.99688" lon="-3.89703">
        <ele>74.5</ele>
        <time>2021-04-05T10:35:33.698Z</time>
      </trkpt>
      <trkpt lat="47.99702" lon="-3.89673">
        <ele>72.5</ele>
        <time>2021-04-05T10:35:30.996Z</time>
      </trkpt>
      <trkpt lat="47.99708" lon="-3.8966">
        <ele>70.9</ele>
        <time>2021-04-05T10:35:29.756Z</time>
      </trkpt>
      <trkpt lat="47.99714" lon="-3.89648">
        <ele>70.2</ele>
        <time>2021-04-05T10:35:28.614Z</time>
      </trkpt>
      <trkpt lat="47.99706" lon="-3.89634">
        <ele>72.3</ele>
        <time>2021-04-05T10:35:27.194Z</time>
      </trkpt>
      <trkpt lat="47.99699" lon="-3.8961">
        <ele>73.1</ele>
        <time>2021-04-05T10:35:25.246Z</time>
      </trkpt>
      <trkpt lat="47.99693" lon="-3.89594">
        <ele>73.8</ele>
        <time>2021-04-05T10:35:23.849Z</time>
      </trkpt>
      <trkpt lat="47.9966" lon="-3.89537">
        <ele>82.6</ele>
        <time>2021-04-05T10:35:18.232Z</time>
      </trkpt>
      <trkpt lat="47.99622" lon="-3.89479">
        <ele>91</ele>
        <time>2021-04-05T10:35:12.211Z</time>
      </trkpt>
      <trkpt lat="47.99605" lon="-3.89449">
        <ele>95</ele>
        <time>2021-04-05T10:35:09.284Z</time>
      </trkpt>
      <trkpt lat="47.99593" lon="-3.89421">
        <ele>97.5</ele>
        <time>2021-04-05T10:35:06.806Z</time>
      </trkpt>
      <trkpt lat="47.99585" lon="-3.89387">
        <ele>101.5</ele>
        <time>2021-04-05T10:35:04.085Z</time>
      </trkpt>
      <trkpt lat="47.99577" lon="-3.89344">
        <ele>106.7</ele>
        <time>2021-04-05T10:35:00.800Z</time>
      </trkpt>
      <trkpt lat="47.99575" lon="-3.89327">
        <ele>107.8</ele>
        <time>2021-04-05T10:34:59.520Z</time>
      </trkpt>
      <trkpt lat="47.99573" lon="-3.89317">
        <ele>108.7</ele>
        <time>2021-04-05T10:34:58.729Z</time>
      </trkpt>
      <trkpt lat="47.99566" lon="-3.89253">
        <ele>114.2</ele>
        <time>2021-04-05T10:34:53.819Z</time>
      </trkpt>
      <trkpt lat="47.99554" lon="-3.8921">
        <ele>116</ele>
        <time>2021-04-05T10:34:50.242Z</time>
      </trkpt>
      <trkpt lat="47.99551" lon="-3.8919">
        <ele>115.9</ele>
        <time>2021-04-05T10:34:48.736Z</time>
      </trkpt>
      <trkpt lat="47.99552" lon="-3.89137">
        <ele>115.6</ele>
        <time>2021-04-05T10:34:44.715Z</time>
      </trkpt>
      <trkpt lat="47.99552" lon="-3.89139">
        <ele>115.6</ele>
        <time>2021-04-05T10:34:44.583Z</time>
      </trkpt>
      <trkpt lat="47.99587" lon="-3.89138">
        <ele>115.6</ele>
        <time>2021-04-05T10:34:40.631Z</time>
      </trkpt>
      <trkpt lat="47.99587" lon="-3.89138">
        <ele>115.6</ele>
        <time>2021-04-05T10:34:40.631Z</time>
      </trkpt>
      <trkpt lat="47.99587" lon="-3.8907">
        <ele>115</ele>
        <time>2021-04-05T10:34:35.701Z</time>
      </trkpt>
      <trkpt lat="47.99585" lon="-3.8907">
        <ele>115</ele>
        <time>2021-04-05T10:34:35.478Z</time>
      </trkpt>
      <trkpt lat="47.99583" lon="-3.89058">
        <ele>114.9</ele>
        <time>2021-04-05T10:34:34.770Z</time>
      </trkpt>
      <trkpt lat="47.9958" lon="-3.89055">
        <ele>114.8</ele>
        <time>2021-04-05T10:34:34.465Z</time>
      </trkpt>
      <trkpt lat="47.99579" lon="-3.89021">
        <ele>114.5</ele>
        <time>2021-04-05T10:34:31.458Z</time>
      </trkpt>
      <trkpt lat="47.99579" lon="-3.89021">
        <ele>114.5</ele>
        <time>2021-04-05T10:34:31.458Z</time>
      </trkpt>
      <trkpt lat="47.99573" lon="-3.89018">
        <ele>114.3</ele>
        <time>2021-04-05T10:34:30.590Z</time>
      </trkpt>
      <trkpt lat="47.9956" lon="-3.89017">
        <ele>113.9</ele>
        <time>2021-04-05T10:34:29.142Z</time>
      </trkpt>
      <trkpt lat="47.99559" lon="-3.88984">
        <ele>114.3</ele>
        <time>2021-04-05T10:34:26.711Z</time>
      </trkpt>
      <trkpt lat="47.99551" lon="-3.88939">
        <ele>115</ele>
        <time>2021-04-05T10:34:23.180Z</time>
      </trkpt>
      <trkpt lat="47.9952" lon="-3.88896">
        <ele>116.7</ele>
        <time>2021-04-05T10:34:18.458Z</time>
      </trkpt>
      <trkpt lat="47.99507" lon="-3.88874">
        <ele>116.7</ele>
        <time>2021-04-05T10:34:16.242Z</time>
      </trkpt>
      <trkpt lat="47.99487" lon="-3.8885">
        <ele>116.4</ele>
        <time>2021-04-05T10:34:13.477Z</time>
      </trkpt>
      <trkpt lat="47.99467" lon="-3.88823">
        <ele>115.1</ele>
        <time>2021-04-05T10:34:10.451Z</time>
      </trkpt>
      <trkpt lat="47.99455" lon="-3.88801">
        <ele>113.8</ele>
        <time>2021-04-05T10:34:08.312Z</time>
      </trkpt>
      <trkpt lat="47.9942" lon="-3.88735">
        <ele>109.9</ele>
        <time>2021-04-05T10:34:02.019Z</time>
      </trkpt>
      <trkpt lat="47.99406" lon="-3.8871">
        <ele>109.4</ele>
        <time>2021-04-05T10:33:59.588Z</time>
      </trkpt>
      <trkpt lat="47.99391" lon="-3.88686">
        <ele>108.6</ele>
        <time>2021-04-05T10:33:57.208Z</time>
      </trkpt>
      <trkpt lat="47.99374" lon="-3.88662">
        <ele>107.6</ele>
        <time>2021-04-05T10:33:54.630Z</time>
      </trkpt>
      <trkpt lat="47.99366" lon="-3.8865">
        <ele>107.2</ele>
        <time>2021-04-05T10:33:53.365Z</time>
      </trkpt>
      <trkpt lat="47.99359" lon="-3.88642">
        <ele>107.1</ele>
        <time>2021-04-05T10:33:52.305Z</time>
      </trkpt>
      <trkpt lat="47.99345" lon="-3.88622">
        <ele>107.1</ele>
        <time>2021-04-05T10:33:50.138Z</time>
      </trkpt>
      <trkpt lat="47.99337" lon="-3.88596">
        <ele>107.7</ele>
        <time>2021-04-05T10:33:47.372Z</time>
      </trkpt>
      <trkpt lat="47.99334" lon="-3.88566">
        <ele>108.8</ele>
        <time>2021-04-05T10:33:44.895Z</time>
      </trkpt>
      <trkpt lat="47.99333" lon="-3.88551">
        <ele>109.2</ele>
        <time>2021-04-05T10:33:43.000Z</time>
      </trkpt>
      <trkpt lat="47.99326" lon="-3.88535">
        <ele>109.2</ele>
        <time>2021-04-05T10:33:41.915Z</time>
      </trkpt>
      <trkpt lat="47.99325" lon="-3.88517">
        <ele>109.7</ele>
        <time>2021-04-05T10:33:40.547Z</time>
      </trkpt>
      <trkpt lat="47.99332" lon="-3.88376">
        <ele>112.8</ele>
        <time>2021-04-05T10:33:30.017Z</time>
      </trkpt>
      <trkpt lat="47.99337" lon="-3.8823">
        <ele>114</ele>
        <time>2021-04-05T10:33:19.149Z</time>
      </trkpt>
      <trkpt lat="47.99341" lon="-3.88159">
        <ele>114.5</ele>
        <time>2021-04-05T10:33:13.857Z</time>
      </trkpt>
      <trkpt lat="47.99233" lon="-3.88129">
        <ele>112.9</ele>
        <time>2021-04-05T10:33:01.595Z</time>
      </trkpt>
      <trkpt lat="47.99233" lon="-3.88129">
        <ele>112.9</ele>
        <time>2021-04-05T10:33:01.585Z</time>
      </trkpt>
      <trkpt lat="47.99162" lon="-3.88114">
        <ele>112.5</ele>
        <time>2021-04-05T10:32:53.629Z</time>
      </trkpt>
      <trkpt lat="47.99131" lon="-3.88109">
        <ele>109.9</ele>
        <time>2021-04-05T10:32:50.173Z</time>
      </trkpt>
      <trkpt lat="47.99112" lon="-3.88102">
        <ele>109</ele>
        <time>2021-04-05T10:32:48.020Z</time>
      </trkpt>
      <trkpt lat="47.991" lon="-3.88092">
        <ele>108.3</ele>
        <time>2021-04-05T10:32:46.479Z</time>
      </trkpt>
      <trkpt lat="47.991" lon="-3.88092">
        <ele>108.3</ele>
        <time>2021-04-05T10:32:46.479Z</time>
      </trkpt>
      <trkpt lat="47.99096" lon="-3.88097">
        <ele>107.8</ele>
        <time>2021-04-05T10:32:45.930Z</time>
      </trkpt>
      <trkpt lat="47.9908" lon="-3.88113">
        <ele>105.3</ele>
        <time>2021-04-05T10:32:43.715Z</time>
      </trkpt>
      <trkpt lat="47.99059" lon="-3.8812">
        <ele>101.9</ele>
        <time>2021-04-05T10:32:41.381Z</time>
      </trkpt>
      <trkpt lat="47.99039" lon="-3.88123">
        <ele>99.2</ele>
        <time>2021-04-05T10:32:39.090Z</time>
      </trkpt>
      <trkpt lat="47.99025" lon="-3.88126">
        <ele>96.1</ele>
        <time>2021-04-05T10:32:37.541Z</time>
      </trkpt>
      <trkpt lat="47.99014" lon="-3.88101">
        <ele>95</ele>
        <time>2021-04-05T10:32:35.291Z</time>
      </trkpt>
      <trkpt lat="47.98982" lon="-3.88022">
        <ele>92.1</ele>
        <time>2021-04-05T10:32:28.402Z</time>
      </trkpt>
      <trkpt lat="47.98945" lon="-3.87922">
        <ele>89.6</ele>
        <time>2021-04-05T10:32:19.919Z</time>
      </trkpt>
      <trkpt lat="47.98922" lon="-3.87849">
        <ele>87</ele>
        <time>2021-04-05T10:32:13.913Z</time>
      </trkpt>
      <trkpt lat="47.9892" lon="-3.87819">
        <ele>87</ele>
        <time>2021-04-05T10:32:11.649Z</time>
      </trkpt>
      <trkpt lat="47.98922" lon="-3.87753">
        <ele>86.7</ele>
        <time>2021-04-05T10:32:06.754Z</time>
      </trkpt>
      <trkpt lat="47.98925" lon="-3.87668">
        <ele>84.8</ele>
        <time>2021-04-05T10:32:00.414Z</time>
      </trkpt>
      <trkpt lat="47.98922" lon="-3.87615">
        <ele>79.9</ele>
        <time>2021-04-05T10:31:56.368Z</time>
      </trkpt>
      <trkpt lat="47.98913" lon="-3.87575">
        <ele>78.6</ele>
        <time>2021-04-05T10:31:53.152Z</time>
      </trkpt>
      <trkpt lat="47.98887" lon="-3.87526">
        <ele>77.1</ele>
        <time>2021-04-05T10:31:48.444Z</time>
      </trkpt>
      <trkpt lat="47.98867" lon="-3.87509">
        <ele>79</ele>
        <time>2021-04-05T10:31:45.991Z</time>
      </trkpt>
      <trkpt lat="47.98855" lon="-3.87489">
        <ele>80.5</ele>
        <time>2021-04-05T10:31:43.923Z</time>
      </trkpt>
      <trkpt lat="47.98851" lon="-3.87469">
        <ele>81.8</ele>
        <time>2021-04-05T10:31:42.400Z</time>
      </trkpt>
      <trkpt lat="47.98835" lon="-3.87414">
        <ele>84.2</ele>
        <time>2021-04-05T10:31:37.887Z</time>
      </trkpt>
      <trkpt lat="47.98817" lon="-3.87378">
        <ele>84.4</ele>
        <time>2021-04-05T10:31:34.518Z</time>
      </trkpt>
      <trkpt lat="47.98804" lon="-3.8735">
        <ele>84.1</ele>
        <time>2021-04-05T10:31:31.972Z</time>
      </trkpt>
      <trkpt lat="47.98803" lon="-3.87315">
        <ele>84.8</ele>
        <time>2021-04-05T10:31:29.357Z</time>
      </trkpt>
      <trkpt lat="47.98794" lon="-3.87287">
        <ele>84.8</ele>
        <time>2021-04-05T10:31:27.114Z</time>
      </trkpt>
      <trkpt lat="47.98777" lon="-3.87266">
        <ele>84.6</ele>
        <time>2021-04-05T10:31:24.638Z</time>
      </trkpt>
      <trkpt lat="47.98766" lon="-3.87261">
        <ele>84.7</ele>
        <time>2021-04-05T10:31:23.301Z</time>
      </trkpt>
      <trkpt lat="47.98766" lon="-3.87261">
        <ele>84.7</ele>
        <time>2021-04-05T10:31:23.301Z</time>
      </trkpt>
      <trkpt lat="47.98764" lon="-3.87221">
        <ele>86.3</ele>
        <time>2021-04-05T10:31:19.315Z</time>
      </trkpt>
      <trkpt lat="47.9875" lon="-3.8717">
        <ele>90.5</ele>
        <time>2021-04-05T10:31:16.065Z</time>
      </trkpt>
      <trkpt lat="47.98739" lon="-3.87129">
        <ele>93.5</ele>
        <time>2021-04-05T10:31:12.696Z</time>
      </trkpt>
      <trkpt lat="47.98732" lon="-3.87098">
        <ele>95.2</ele>
        <time>2021-04-05T10:31:10.274Z</time>
      </trkpt>
      <trkpt lat="47.98727" lon="-3.87084">
        <ele>96</ele>
        <time>2021-04-05T10:31:07.308Z</time>
      </trkpt>
      <trkpt lat="47.98727" lon="-3.87084">
        <ele>96</ele>
        <time>2021-04-05T10:31:07.308Z</time>
      </trkpt>
      <trkpt lat="47.98696" lon="-3.87055">
        <ele>96.7</ele>
        <time>2021-04-05T10:31:04.556Z</time>
      </trkpt>
      <trkpt lat="47.98674" lon="-3.8705">
        <ele>95.3</ele>
        <time>2021-04-05T10:31:00.861Z</time>
      </trkpt>
      <trkpt lat="47.98661" lon="-3.87046">
        <ele>94.1</ele>
        <time>2021-04-05T10:31:00.039Z</time>
      </trkpt>
      <trkpt lat="47.98624" lon="-3.87027">
        <ele>90.8</ele>
        <time>2021-04-05T10:30:55.616Z</time>
      </trkpt>
      <trkpt lat="47.98571" lon="-3.86995">
        <ele>85.9</ele>
        <time>2021-04-05T10:30:49.298Z</time>
      </trkpt>
      <trkpt lat="47.98565" lon="-3.86982">
        <ele>84.4</ele>
        <time>2021-04-05T10:30:48.129Z</time>
      </trkpt>
      <trkpt lat="47.98564" lon="-3.86965">
        <ele>83.2</ele>
        <time>2021-04-05T10:30:46.858Z</time>
      </trkpt>
      <trkpt lat="47.98567" lon="-3.86945">
        <ele>82.5</ele>
        <time>2021-04-05T10:30:45.347Z</time>
      </trkpt>
      <trkpt lat="47.98578" lon="-3.86905">
        <ele>83</ele>
        <time>2021-04-05T10:30:42.185Z</time>
      </trkpt>
      <trkpt lat="47.98581" lon="-3.86885">
        <ele>82.8</ele>
        <time>2021-04-05T10:30:40.750Z</time>
      </trkpt>
      <trkpt lat="47.9859" lon="-3.86815">
        <ele>82.8</ele>
        <time>2021-04-05T10:30:39.361Z</time>
      </trkpt>
      <trkpt lat="47.98588" lon="-3.86795">
        <ele>83.6</ele>
        <time>2021-04-05T10:30:36.215Z</time>
      </trkpt>
      <trkpt lat="47.98581" lon="-3.8678">
        <ele>83</ele>
        <time>2021-04-05T10:30:33.373Z</time>
      </trkpt>
      <trkpt lat="47.98566" lon="-3.8676">
        <ele>82.6</ele>
        <time>2021-04-05T10:30:31.270Z</time>
      </trkpt>
      <trkpt lat="47.98556" lon="-3.86749">
        <ele>82</ele>
        <time>2021-04-05T10:30:30.166Z</time>
      </trkpt>
      <trkpt lat="47.9855" lon="-3.86741">
        <ele>81.6</ele>
        <time>2021-04-05T10:30:29.273Z</time>
      </trkpt>
      <trkpt lat="47.98544" lon="-3.86727">
        <ele>81.6</ele>
        <time>2021-04-05T10:30:28.045Z</time>
      </trkpt>
      <trkpt lat="47.98544" lon="-3.86696">
        <ele>82.2</ele>
        <time>2021-04-05T10:30:26.072Z</time>
      </trkpt>
      <trkpt lat="47.98549" lon="-3.86673">
        <ele>82.2</ele>
        <time>2021-04-05T10:30:24.503Z</time>
      </trkpt>
      <trkpt lat="47.98551" lon="-3.86629">
        <ele>82</ele>
        <time>2021-04-05T10:30:21.152Z</time>
      </trkpt>
      <trkpt lat="47.98545" lon="-3.8658">
        <ele>82.8</ele>
        <time>2021-04-05T10:30:18.902Z</time>
      </trkpt>
      <trkpt lat="47.98539" lon="-3.86564">
        <ele>84.1</ele>
        <time>2021-04-05T10:30:17.677Z</time>
      </trkpt>
      <trkpt lat="47.98525" lon="-3.86547">
        <ele>85.8</ele>
        <time>2021-04-05T10:30:14.486Z</time>
      </trkpt>
      <trkpt lat="47.98518" lon="-3.8653">
        <ele>87.7</ele>
        <time>2021-04-05T10:30:12.725Z</time>
      </trkpt>
      <trkpt lat="47.98509" lon="-3.865">
        <ele>92.9</ele>
        <time>2021-04-05T10:30:10.116Z</time>
      </trkpt>
      <trkpt lat="47.98505" lon="-3.86474">
        <ele>95.5</ele>
        <time>2021-04-05T10:30:08.050Z</time>
      </trkpt>
      <trkpt lat="47.98505" lon="-3.8643">
        <ele>97.2</ele>
        <time>2021-04-05T10:30:04.760Z</time>
      </trkpt>
      <trkpt lat="47.98508" lon="-3.86372">
        <ele>99</ele>
        <time>2021-04-05T10:30:00.391Z</time>
      </trkpt>
      <trkpt lat="47.98508" lon="-3.86351">
        <ele>99.7</ele>
        <time>2021-04-05T10:29:58.638Z</time>
      </trkpt>
      <trkpt lat="47.98504" lon="-3.86321">
        <ele>100.4</ele>
        <time>2021-04-05T10:29:56.455Z</time>
      </trkpt>
      <trkpt lat="47.98492" lon="-3.8626">
        <ele>101.9</ele>
        <time>2021-04-05T10:29:51.823Z</time>
      </trkpt>
      <trkpt lat="47.98493" lon="-3.86203">
        <ele>100.8</ele>
        <time>2021-04-05T10:29:47.541Z</time>
      </trkpt>
      <trkpt lat="47.985" lon="-3.86152">
        <ele>101.5</ele>
        <time>2021-04-05T10:29:43.693Z</time>
      </trkpt>
      <trkpt lat="47.98492" lon="-3.86143">
        <ele>102.2</ele>
        <time>2021-04-05T10:29:42.608Z</time>
      </trkpt>
      <trkpt lat="47.98473" lon="-3.86141">
        <ele>104.7</ele>
        <time>2021-04-05T10:29:40.478Z</time>
      </trkpt>
      <trkpt lat="47.98425" lon="-3.86133">
        <ele>110.1</ele>
        <time>2021-04-05T10:29:34.972Z</time>
      </trkpt>
      <trkpt lat="47.98422" lon="-3.86126">
        <ele>110.2</ele>
        <time>2021-04-05T10:29:34.220Z</time>
      </trkpt>
      <trkpt lat="47.98421" lon="-3.86086">
        <ele>110.8</ele>
        <time>2021-04-05T10:29:31.169Z</time>
      </trkpt>
      <trkpt lat="47.98427" lon="-3.86036">
        <ele>111.2</ele>
        <time>2021-04-05T10:29:27.422Z</time>
      </trkpt>
      <trkpt lat="47.98394" lon="-3.86021">
        <ele>113.2</ele>
        <time>2021-04-05T10:29:23.614Z</time>
      </trkpt>
      <trkpt lat="47.98348" lon="-3.86017">
        <ele>112.4</ele>
        <time>2021-04-05T10:29:18.433Z</time>
      </trkpt>
      <trkpt lat="47.98333" lon="-3.86014">
        <ele>111.8</ele>
        <time>2021-04-05T10:29:16.736Z</time>
      </trkpt>
      <trkpt lat="47.98315" lon="-3.86005">
        <ele>110.6</ele>
        <time>2021-04-05T10:29:14.720Z</time>
      </trkpt>
      <trkpt lat="47.98314" lon="-3.85994">
        <ele>110.3</ele>
        <time>2021-04-05T10:29:13.913Z</time>
      </trkpt>
      <trkpt lat="47.98311" lon="-3.8593">
        <ele>109.4</ele>
        <time>2021-04-05T10:29:09.071Z</time>
      </trkpt>
      <trkpt lat="47.98294" lon="-3.85852">
        <ele>110.6</ele>
        <time>2021-04-05T10:29:03.052Z</time>
      </trkpt>
      <trkpt lat="47.9829" lon="-3.85792">
        <ele>111</ele>
        <time>2021-04-05T10:28:58.566Z</time>
      </trkpt>
      <trkpt lat="47.98285" lon="-3.8577">
        <ele>110.9</ele>
        <time>2021-04-05T10:28:56.804Z</time>
      </trkpt>
      <trkpt lat="47.98274" lon="-3.85725">
        <ele>111</ele>
        <time>2021-04-05T10:28:52.823Z</time>
      </trkpt>
      <trkpt lat="47.98261" lon="-3.85716">
        <ele>110.9</ele>
        <time>2021-04-05T10:28:51.880Z</time>
      </trkpt>
      <trkpt lat="47.98248" lon="-3.85717">
        <ele>111</ele>
        <time>2021-04-05T10:28:50.441Z</time>
      </trkpt>
      <trkpt lat="47.98178" lon="-3.85739">
        <ele>113.2</ele>
        <time>2021-04-05T10:28:42.534Z</time>
      </trkpt>
      <trkpt lat="47.9815" lon="-3.85741">
        <ele>114.3</ele>
        <time>2021-04-05T10:28:39.333Z</time>
      </trkpt>
      <trkpt lat="47.98134" lon="-3.8574">
        <ele>115</ele>
        <time>2021-04-05T10:28:37.562Z</time>
      </trkpt>
      <trkpt lat="47.98132" lon="-3.85723">
        <ele>115</ele>
        <time>2021-04-05T10:28:36.333Z</time>
      </trkpt>
      <trkpt lat="47.98132" lon="-3.85723">
        <ele>115</ele>
        <time>2021-04-05T10:28:36.333Z</time>
      </trkpt>
      <trkpt lat="47.98133" lon="-3.85668">
        <ele>115.2</ele>
        <time>2021-04-05T10:28:32.248Z</time>
      </trkpt>
      <trkpt lat="47.98133" lon="-3.85654">
        <ele>115.2</ele>
        <time>2021-04-05T10:28:31.159Z</time>
      </trkpt>
      <trkpt lat="47.98134" lon="-3.85634">
        <ele>115.2</ele>
        <time>2021-04-05T10:28:29.679Z</time>
      </trkpt>
      <trkpt lat="47.9813" lon="-3.85566">
        <ele>116.4</ele>
        <time>2021-04-05T10:28:24.620Z</time>
      </trkpt>
      <trkpt lat="47.9812" lon="-3.85471">
        <ele>118.2</ele>
        <time>2021-04-05T10:28:17.474Z</time>
      </trkpt>
      <trkpt lat="47.98114" lon="-3.85377">
        <ele>120.4</ele>
        <time>2021-04-05T10:28:10.392Z</time>
      </trkpt>
      <trkpt lat="47.98109" lon="-3.85363">
        <ele>120.7</ele>
        <time>2021-04-05T10:28:09.178Z</time>
      </trkpt>
      <trkpt lat="47.98104" lon="-3.85349">
        <ele>121</ele>
        <time>2021-04-05T10:28:08.048Z</time>
      </trkpt>
      <trkpt lat="47.98103" lon="-3.85296">
        <ele>121.7</ele>
        <time>2021-04-05T10:28:04.089Z</time>
      </trkpt>
      <trkpt lat="47.98104" lon="-3.85242">
        <ele>122</ele>
        <time>2021-04-05T10:28:00.074Z</time>
      </trkpt>
      <trkpt lat="47.98104" lon="-3.85242">
        <ele>122</ele>
        <time>2021-04-05T10:28:00.074Z</time>
      </trkpt>
      <trkpt lat="47.98159" lon="-3.85239">
        <ele>121.5</ele>
        <time>2021-04-05T10:27:53.902Z</time>
      </trkpt>
      <trkpt lat="47.98219" lon="-3.85221">
        <ele>119.4</ele>
        <time>2021-04-05T10:27:47.069Z</time>
      </trkpt>
      <trkpt lat="47.98284" lon="-3.85194">
        <ele>114.6</ele>
        <time>2021-04-05T10:27:39.625Z</time>
      </trkpt>
      <trkpt lat="47.98343" lon="-3.85152">
        <ele>109.1</ele>
        <time>2021-04-05T10:27:32.359Z</time>
      </trkpt>
      <trkpt lat="47.98312" lon="-3.85131">
        <ele>109.9</ele>
        <time>2021-04-05T10:27:28.579Z</time>
      </trkpt>
      <trkpt lat="47.98276" lon="-3.85103">
        <ele>112.1</ele>
        <time>2021-04-05T10:27:24.159Z</time>
      </trkpt>
      <trkpt lat="47.98261" lon="-3.85096">
        <ele>112.8</ele>
        <time>2021-04-05T10:27:22.319Z</time>
      </trkpt>
      <trkpt lat="47.98236" lon="-3.85098">
        <ele>113.2</ele>
        <time>2021-04-05T10:27:19.642Z</time>
      </trkpt>
      <trkpt lat="47.98225" lon="-3.85097">
        <ele>113.6</ele>
        <time>2021-04-05T10:27:18.399Z</time>
      </trkpt>
      <trkpt lat="47.98207" lon="-3.85083">
        <ele>114.8</ele>
        <time>2021-04-05T10:27:16.138Z</time>
      </trkpt>
      <trkpt lat="47.98171" lon="-3.85046">
        <ele>117.6</ele>
        <time>2021-04-05T10:27:11.258Z</time>
      </trkpt>
      <trkpt lat="47.98141" lon="-3.85034">
        <ele>119.5</ele>
        <time>2021-04-05T10:27:07.813Z</time>
      </trkpt>
      <trkpt lat="47.98084" lon="-3.85027">
        <ele>121.4</ele>
        <time>2021-04-05T10:27:01.388Z</time>
      </trkpt>
      <trkpt lat="47.98027" lon="-3.85031">
        <ele>123</ele>
        <time>2021-04-05T10:26:55.073Z</time>
      </trkpt>
      <trkpt lat="47.97996" lon="-3.85033">
        <ele>123</ele>
        <time>2021-04-05T10:26:51.645Z</time>
      </trkpt>
      <trkpt lat="47.9796" lon="-3.8503">
        <ele>122.5</ele>
        <time>2021-04-05T10:26:47.652Z</time>
      </trkpt>
      <trkpt lat="47.9796" lon="-3.85023">
        <ele>122.5</ele>
        <time>2021-04-05T10:26:47.125Z</time>
      </trkpt>
      <trkpt lat="47.97931" lon="-3.84998">
        <ele>121.9</ele>
        <time>2021-04-05T10:26:43.354Z</time>
      </trkpt>
      <trkpt lat="47.97912" lon="-3.84978">
        <ele>121.2</ele>
        <time>2021-04-05T10:26:40.784Z</time>
      </trkpt>
      <trkpt lat="47.97884" lon="-3.84936">
        <ele>120.9</ele>
        <time>2021-04-05T10:26:36.340Z</time>
      </trkpt>
      <trkpt lat="47.97879" lon="-3.84922">
        <ele>120.6</ele>
        <time>2021-04-05T10:26:35.193Z</time>
      </trkpt>
      <trkpt lat="47.97829" lon="-3.84903">
        <ele>119.3</ele>
        <time>2021-04-05T10:26:29.472Z</time>
      </trkpt>
      <trkpt lat="47.97774" lon="-3.84869">
        <ele>119.4</ele>
        <time>2021-04-05T10:26:22.815Z</time>
      </trkpt>
      <trkpt lat="47.97741" lon="-3.84861">
        <ele>120.2</ele>
        <time>2021-04-05T10:26:19.048Z</time>
      </trkpt>
      <trkpt lat="47.9771" lon="-3.84843">
        <ele>120.7</ele>
        <time>2021-04-05T10:26:15.385Z</time>
      </trkpt>
      <trkpt lat="47.97682" lon="-3.84812">
        <ele>121.9</ele>
        <time>2021-04-05T10:26:11.479Z</time>
      </trkpt>
      <trkpt lat="47.97663" lon="-3.84795">
        <ele>122.9</ele>
        <time>2021-04-05T10:26:09.093Z</time>
      </trkpt>
      <trkpt lat="47.97652" lon="-3.84784">
        <ele>123.2</ele>
        <time>2021-04-05T10:26:07.559Z</time>
      </trkpt>
      <trkpt lat="47.97633" lon="-3.84757">
        <ele>123.9</ele>
        <time>2021-04-05T10:26:04.630Z</time>
      </trkpt>
      <trkpt lat="47.97605" lon="-3.84729">
        <ele>125.3</ele>
        <time>2021-04-05T10:26:00.912Z</time>
      </trkpt>
      <trkpt lat="47.97549" lon="-3.84686">
        <ele>129.2</ele>
        <time>2021-04-05T10:25:53.854Z</time>
      </trkpt>
      <trkpt lat="47.97534" lon="-3.84674">
        <ele>130.6</ele>
        <time>2021-04-05T10:25:52.006Z</time>
      </trkpt>
      <trkpt lat="47.97526" lon="-3.84672">
        <ele>131.4</ele>
        <time>2021-04-05T10:25:51.083Z</time>
      </trkpt>
      <trkpt lat="47.97511" lon="-3.84677">
        <ele>132.4</ele>
        <time>2021-04-05T10:25:49.402Z</time>
      </trkpt>
      <trkpt lat="47.97492" lon="-3.84683">
        <ele>133.7</ele>
        <time>2021-04-05T10:25:47.263Z</time>
      </trkpt>
      <trkpt lat="47.97474" lon="-3.8468">
        <ele>134.5</ele>
        <time>2021-04-05T10:25:45.247Z</time>
      </trkpt>
      <trkpt lat="47.9745" lon="-3.84662">
        <ele>136</ele>
        <time>2021-04-05T10:25:42.220Z</time>
      </trkpt>
      <trkpt lat="47.97442" lon="-3.84648">
        <ele>136.2</ele>
        <time>2021-04-05T10:25:40.875Z</time>
      </trkpt>
      <trkpt lat="47.97442" lon="-3.84648">
        <ele>136.2</ele>
        <time>2021-04-05T10:25:40.875Z</time>
      </trkpt>
      <trkpt lat="47.97448" lon="-3.84645">
        <ele>136.1</ele>
        <time>2021-04-05T10:25:40.234Z</time>
      </trkpt>
      <trkpt lat="47.97457" lon="-3.84625">
        <ele>136.2</ele>
        <time>2021-04-05T10:25:38.444Z</time>
      </trkpt>
      <trkpt lat="47.97469" lon="-3.84575">
        <ele>137.7</ele>
        <time>2021-04-05T10:25:34.430Z</time>
      </trkpt>
      <trkpt lat="47.9748" lon="-3.84534">
        <ele>139</ele>
        <time>2021-04-05T10:25:31.184Z</time>
      </trkpt>
      <trkpt lat="47.97497" lon="-3.84499">
        <ele>139</ele>
        <time>2021-04-05T10:25:27.979Z</time>
      </trkpt>
      <trkpt lat="47.9754" lon="-3.84413">
        <ele>136.9</ele>
        <time>2021-04-05T10:25:19.999Z</time>
      </trkpt>
      <trkpt lat="47.97559" lon="-3.84367">
        <ele>136</ele>
        <time>2021-04-05T10:25:15.920Z</time>
      </trkpt>
      <trkpt lat="47.97569" lon="-3.84334">
        <ele>136.3</ele>
        <time>2021-04-05T10:25:13.210Z</time>
      </trkpt>
      <trkpt lat="47.97579" lon="-3.84284">
        <ele>137</ele>
        <time>2021-04-05T10:25:09.310Z</time>
      </trkpt>
      <trkpt lat="47.97585" lon="-3.84239">
        <ele>136.8</ele>
        <time>2021-04-05T10:25:05.894Z</time>
      </trkpt>
      <trkpt lat="47.97594" lon="-3.84147">
        <ele>135.1</ele>
        <time>2021-04-05T10:24:59.034Z</time>
      </trkpt>
      <trkpt lat="47.97597" lon="-3.84104">
        <ele>133.8</ele>
        <time>2021-04-05T10:24:55.756Z</time>
      </trkpt>
      <trkpt lat="47.97592" lon="-3.84091">
        <ele>133.7</ele>
        <time>2021-04-05T10:24:54.678Z</time>
      </trkpt>
      <trkpt lat="47.97582" lon="-3.84084">
        <ele>134</ele>
        <time>2021-04-05T10:24:53.463Z</time>
      </trkpt>
      <trkpt lat="47.97531" lon="-3.84074">
        <ele>134</ele>
        <time>2021-04-05T10:24:47.729Z</time>
      </trkpt>
      <trkpt lat="47.97516" lon="-3.84069">
        <ele>133.3</ele>
        <time>2021-04-05T10:24:45.970Z</time>
      </trkpt>
      <trkpt lat="47.97502" lon="-3.84048">
        <ele>132.7</ele>
        <time>2021-04-05T10:24:43.804Z</time>
      </trkpt>
      <trkpt lat="47.97494" lon="-3.8403">
        <ele>132.3</ele>
        <time>2021-04-05T10:24:42.173Z</time>
      </trkpt>
      <trkpt lat="47.9749" lon="-3.84005">
        <ele>132</ele>
        <time>2021-04-05T10:24:40.289Z</time>
      </trkpt>
      <trkpt lat="47.97491" lon="-3.83977">
        <ele>132</ele>
        <time>2021-04-05T10:24:38.194Z</time>
      </trkpt>
      <trkpt lat="47.975" lon="-3.83934">
        <ele>132.3</ele>
        <time>2021-04-05T10:24:34.783Z</time>
      </trkpt>
      <trkpt lat="47.97516" lon="-3.83847">
        <ele>132.8</ele>
        <time>2021-04-05T10:24:28.076Z</time>
      </trkpt>
      <trkpt lat="47.97517" lon="-3.83807">
        <ele>133.3</ele>
        <time>2021-04-05T10:24:25.156Z</time>
      </trkpt>
      <trkpt lat="47.97512" lon="-3.83668">
        <ele>132.1</ele>
        <time>2021-04-05T10:24:14.788Z</time>
      </trkpt>
      <trkpt lat="47.97509" lon="-3.83532">
        <ele>132</ele>
        <time>2021-04-05T10:24:04.644Z</time>
      </trkpt>
      <trkpt lat="47.97503" lon="-3.83457">
        <ele>131</ele>
        <time>2021-04-05T10:23:59.041Z</time>
      </trkpt>
      <trkpt lat="47.9749" lon="-3.83411">
        <ele>130.3</ele>
        <time>2021-04-05T10:23:55.347Z</time>
      </trkpt>
      <trkpt lat="47.97478" lon="-3.83375">
        <ele>129.5</ele>
        <time>2021-04-05T10:23:52.455Z</time>
      </trkpt>
      <trkpt lat="47.97458" lon="-3.83315">
        <ele>127.8</ele>
        <time>2021-04-05T10:23:47.284Z</time>
      </trkpt>
      <trkpt lat="47.97459" lon="-3.83287">
        <ele>127.8</ele>
        <time>2021-04-05T10:23:45.455Z</time>
      </trkpt>
      <trkpt lat="47.97464" lon="-3.83275">
        <ele>128.4</ele>
        <time>2021-04-05T10:23:43.534Z</time>
      </trkpt>
      <trkpt lat="47.97468" lon="-3.83242">
        <ele>129.4</ele>
        <time>2021-04-05T10:23:43.118Z</time>
      </trkpt>
      <trkpt lat="47.9748" lon="-3.83102">
        <ele>131</ele>
        <time>2021-04-05T10:23:31.399Z</time>
      </trkpt>
      <trkpt lat="47.97484" lon="-3.8305">
        <ele>130.9</ele>
        <time>2021-04-05T10:23:27.562Z</time>
      </trkpt>
      <trkpt lat="47.97488" lon="-3.82957">
        <ele>128.1</ele>
        <time>2021-04-05T10:23:20.618Z</time>
      </trkpt>
      <trkpt lat="47.9749" lon="-3.82894">
        <ele>126.9</ele>
        <time>2021-04-05T10:23:15.932Z</time>
      </trkpt>
      <trkpt lat="47.97443" lon="-3.82892">
        <ele>127</ele>
        <time>2021-04-05T10:23:10.751Z</time>
      </trkpt>
      <trkpt lat="47.97409" lon="-3.82893">
        <ele>126.3</ele>
        <time>2021-04-05T10:23:06.972Z</time>
      </trkpt>
      <trkpt lat="47.97408" lon="-3.82803">
        <ele>125.1</ele>
        <time>2021-04-05T10:23:00.263Z</time>
      </trkpt>
      <trkpt lat="47.97397" lon="-3.82775">
        <ele>123.8</ele>
        <time>2021-04-05T10:22:57.881Z</time>
      </trkpt>
      <trkpt lat="47.97388" lon="-3.82749">
        <ele>123.3</ele>
        <time>2021-04-05T10:22:55.659Z</time>
      </trkpt>
      <trkpt lat="47.97379" lon="-3.82712">
        <ele>122.8</ele>
        <time>2021-04-05T10:22:52.798Z</time>
      </trkpt>
      <trkpt lat="47.97367" lon="-3.82712">
        <ele>122.2</ele>
        <time>2021-04-05T10:22:51.368Z</time>
      </trkpt>
      <trkpt lat="47.97305" lon="-3.8272">
        <ele>118.4</ele>
        <time>2021-04-05T10:22:44.513Z</time>
      </trkpt>
      <trkpt lat="47.97305" lon="-3.8272">
        <ele>118.4</ele>
        <time>2021-04-05T10:22:44.513Z</time>
      </trkpt>
      <trkpt lat="47.97301" lon="-3.82711">
        <ele>118</ele>
        <time>2021-04-05T10:22:43.951Z</time>
      </trkpt>
      <trkpt lat="47.97301" lon="-3.82671">
        <ele>117.4</ele>
        <time>2021-04-05T10:22:41.902Z</time>
      </trkpt>
      <trkpt lat="47.97298" lon="-3.82646">
        <ele>117</ele>
        <time>2021-04-05T10:22:39.104Z</time>
      </trkpt>
      <trkpt lat="47.97291" lon="-3.8258">
        <ele>115.6</ele>
        <time>2021-04-05T10:22:34.666Z</time>
      </trkpt>
      <trkpt lat="47.97289" lon="-3.82564">
        <ele>114.7</ele>
        <time>2021-04-05T10:22:32.902Z</time>
      </trkpt>
      <trkpt lat="47.97283" lon="-3.82547">
        <ele>114.1</ele>
        <time>2021-04-05T10:22:31.256Z</time>
      </trkpt>
      <trkpt lat="47.97275" lon="-3.82528">
        <ele>114</ele>
        <time>2021-04-05T10:22:29.090Z</time>
      </trkpt>
      <trkpt lat="47.97264" lon="-3.82501">
        <ele>114</ele>
        <time>2021-04-05T10:22:27.180Z</time>
      </trkpt>
      <trkpt lat="47.97258" lon="-3.82479">
        <ele>114</ele>
        <time>2021-04-05T10:22:25.766Z</time>
      </trkpt>
      <trkpt lat="47.97243" lon="-3.82459">
        <ele>114.7</ele>
        <time>2021-04-05T10:22:23.670Z</time>
      </trkpt>
      <trkpt lat="47.97237" lon="-3.82439">
        <ele>115.9</ele>
        <time>2021-04-05T10:22:22.236Z</time>
      </trkpt>
      <trkpt lat="47.97239" lon="-3.82414">
        <ele>118.2</ele>
        <time>2021-04-05T10:22:20.496Z</time>
      </trkpt>
      <trkpt lat="47.97228" lon="-3.82352">
        <ele>121</ele>
        <time>2021-04-05T10:22:14.826Z</time>
      </trkpt>
      <trkpt lat="47.9722" lon="-3.82308">
        <ele>123.2</ele>
        <time>2021-04-05T10:22:11.637Z</time>
      </trkpt>
      <trkpt lat="47.9721" lon="-3.82255">
        <ele>124.7</ele>
        <time>2021-04-05T10:22:07.828Z</time>
      </trkpt>
      <trkpt lat="47.97208" lon="-3.82209">
        <ele>126</ele>
        <time>2021-04-05T10:22:04.125Z</time>
      </trkpt>
      <trkpt lat="47.97203" lon="-3.82199">
        <ele>126</ele>
        <time>2021-04-05T10:22:03.246Z</time>
      </trkpt>
      <trkpt lat="47.97199" lon="-3.82189">
        <ele>126</ele>
        <time>2021-04-05T10:22:01.133Z</time>
      </trkpt>
      <trkpt lat="47.97176" lon="-3.82172">
        <ele>126.6</ele>
        <time>2021-04-05T10:21:59.602Z</time>
      </trkpt>
      <trkpt lat="47.97176" lon="-3.82172">
        <ele>126.6</ele>
        <time>2021-04-05T10:21:59.574Z</time>
      </trkpt>
      <trkpt lat="47.97176" lon="-3.82172">
        <ele>126.6</ele>
        <time>2021-04-05T10:21:59.574Z</time>
      </trkpt>
      <trkpt lat="47.97163" lon="-3.8217">
        <ele>127</ele>
        <time>2021-04-05T10:21:58.136Z</time>
      </trkpt>
      <trkpt lat="47.97104" lon="-3.82143">
        <ele>127.6</ele>
        <time>2021-04-05T10:21:51.249Z</time>
      </trkpt>
      <trkpt lat="47.9708" lon="-3.82133">
        <ele>127.8</ele>
        <time>2021-04-05T10:21:48.472Z</time>
      </trkpt>
      <trkpt lat="47.97061" lon="-3.82127">
        <ele>127.9</ele>
        <time>2021-04-05T10:21:46.365Z</time>
      </trkpt>
      <trkpt lat="47.97042" lon="-3.82123">
        <ele>128</ele>
        <time>2021-04-05T10:21:44.249Z</time>
      </trkpt>
      <trkpt lat="47.97021" lon="-3.82119">
        <ele>128</ele>
        <time>2021-04-05T10:21:41.909Z</time>
      </trkpt>
      <trkpt lat="47.96987" lon="-3.82103">
        <ele>128.4</ele>
        <time>2021-04-05T10:21:37.854Z</time>
      </trkpt>
      <trkpt lat="47.96959" lon="-3.82084">
        <ele>128.5</ele>
        <time>2021-04-05T10:21:34.347Z</time>
      </trkpt>
      <trkpt lat="47.96947" lon="-3.82071">
        <ele>128</ele>
        <time>2021-04-05T10:21:32.763Z</time>
      </trkpt>
      <trkpt lat="47.96944" lon="-3.82065">
        <ele>128</ele>
        <time>2021-04-05T10:21:32.215Z</time>
      </trkpt>
      <trkpt lat="47.96943" lon="-3.82066">
        <ele>128</ele>
        <time>2021-04-05T10:21:32.055Z</time>
      </trkpt>
      <trkpt lat="47.96943" lon="-3.82066">
        <ele>128</ele>
        <time>2021-04-05T10:21:32.055Z</time>
      </trkpt>
      <trkpt lat="47.96934" lon="-3.82096">
        <ele>128</ele>
        <time>2021-04-05T10:21:29.576Z</time>
      </trkpt>
      <trkpt lat="47.96921" lon="-3.82138">
        <ele>127.1</ele>
        <time>2021-04-05T10:21:26.163Z</time>
      </trkpt>
      <trkpt lat="47.96917" lon="-3.82163">
        <ele>126.3</ele>
        <time>2021-04-05T10:21:24.277Z</time>
      </trkpt>
      <trkpt lat="47.96913" lon="-3.82202">
        <ele>124.4</ele>
        <time>2021-04-05T10:21:21.357Z</time>
      </trkpt>
      <trkpt lat="47.96911" lon="-3.82235">
        <ele>123.2</ele>
        <time>2021-04-05T10:21:18.843Z</time>
      </trkpt>
      <trkpt lat="47.96906" lon="-3.82267">
        <ele>121.3</ele>
        <time>2021-04-05T10:21:16.370Z</time>
      </trkpt>
      <trkpt lat="47.96904" lon="-3.82273">
        <ele>121</ele>
        <time>2021-04-05T10:21:15.925Z</time>
      </trkpt>
      <trkpt lat="47.96893" lon="-3.82273">
        <ele>120.9</ele>
        <time>2021-04-05T10:21:14.711Z</time>
      </trkpt>
      <trkpt lat="47.96879" lon="-3.82269">
        <ele>121</ele>
        <time>2021-04-05T10:21:13.097Z</time>
      </trkpt>
      <trkpt lat="47.96858" lon="-3.82262">
        <ele>121</ele>
        <time>2021-04-05T10:21:10.654Z</time>
      </trkpt>
      <trkpt lat="47.96835" lon="-3.82259">
        <ele>120.6</ele>
        <time>2021-04-05T10:21:08.161Z</time>
      </trkpt>
      <trkpt lat="47.96814" lon="-3.82256">
        <ele>120.1</ele>
        <time>2021-04-05T10:21:05.809Z</time>
      </trkpt>
      <trkpt lat="47.96807" lon="-3.8226">
        <ele>119.3</ele>
        <time>2021-04-05T10:21:04.967Z</time>
      </trkpt>
      <trkpt lat="47.96784" lon="-3.82272">
        <ele>118</ele>
        <time>2021-04-05T10:21:02.246Z</time>
      </trkpt>
      <trkpt lat="47.96773" lon="-3.82279">
        <ele>117.5</ele>
        <time>2021-04-05T10:21:00.911Z</time>
      </trkpt>
      <trkpt lat="47.96771" lon="-3.82282">
        <ele>117.1</ele>
        <time>2021-04-05T10:21:00.578Z</time>
      </trkpt>
      <trkpt lat="47.96765" lon="-3.82283">
        <ele>117.2</ele>
        <time>2021-04-05T10:20:59.854Z</time>
      </trkpt>
      <trkpt lat="47.96748" lon="-3.82288">
        <ele>116.9</ele>
        <time>2021-04-05T10:20:57.965Z</time>
      </trkpt>
      <trkpt lat="47.96731" lon="-3.82293">
        <ele>116.5</ele>
        <time>2021-04-05T10:20:56.034Z</time>
      </trkpt>
      <trkpt lat="47.96713" lon="-3.82301">
        <ele>116.5</ele>
        <time>2021-04-05T10:20:53.955Z</time>
      </trkpt>
      <trkpt lat="47.96695" lon="-3.82308">
        <ele>116.5</ele>
        <time>2021-04-05T10:20:51.865Z</time>
      </trkpt>
      <trkpt lat="47.96681" lon="-3.82317">
        <ele>117</ele>
        <time>2021-04-05T10:20:50.166Z</time>
      </trkpt>
      <trkpt lat="47.9666" lon="-3.82336">
        <ele>115.9</ele>
        <time>2021-04-05T10:20:47.470Z</time>
      </trkpt>
      <trkpt lat="47.9664" lon="-3.82356">
        <ele>116.7</ele>
        <time>2021-04-05T10:20:44.770Z</time>
      </trkpt>
      <trkpt lat="47.9662" lon="-3.82372">
        <ele>115.7</ele>
        <time>2021-04-05T10:20:42.243Z</time>
      </trkpt>
      <trkpt lat="47.966" lon="-3.82385">
        <ele>116</ele>
        <time>2021-04-05T10:20:39.823Z</time>
      </trkpt>
      <trkpt lat="47.96586" lon="-3.82391">
        <ele>115.8</ele>
        <time>2021-04-05T10:20:38.268Z</time>
      </trkpt>
      <trkpt lat="47.96578" lon="-3.8239">
        <ele>115.7</ele>
        <time>2021-04-05T10:20:37.361Z</time>
      </trkpt>
      <trkpt lat="47.96568" lon="-3.82387">
        <ele>115.9</ele>
        <time>2021-04-05T10:20:36.243Z</time>
      </trkpt>
      <trkpt lat="47.96555" lon="-3.82388">
        <ele>116.1</ele>
        <time>2021-04-05T10:20:34.798Z</time>
      </trkpt>
      <trkpt lat="47.96536" lon="-3.82393">
        <ele>116.4</ele>
        <time>2021-04-05T10:20:32.604Z</time>
      </trkpt>
      <trkpt lat="47.96528" lon="-3.82398">
        <ele>116.4</ele>
        <time>2021-04-05T10:20:31.670Z</time>
      </trkpt>
      <trkpt lat="47.96524" lon="-3.82403">
        <ele>116.2</ele>
        <time>2021-04-05T10:20:31.045Z</time>
      </trkpt>
      <trkpt lat="47.9652" lon="-3.8241">
        <ele>115.9</ele>
        <time>2021-04-05T10:20:30.360Z</time>
      </trkpt>
      <trkpt lat="47.96518" lon="-3.82424">
        <ele>115.1</ele>
        <time>2021-04-05T10:20:29.658Z</time>
        <extensions>
          <visugpx:TrkExtension xmlns:visugpx="https://www.visugpx.com/editgpx/">
            <visugpx:node>10</visugpx:node>
            </visugpx:TrkExtension>
        </extensions>
      </trkpt>
      <trkpt lat="47.96518" lon="-3.82425">
        <ele>115.2</ele>
      </trkpt>
      <trkpt lat="47.96482" lon="-3.8244">
        <ele>115.2</ele>
      </trkpt>
      <trkpt lat="47.96456" lon="-3.82457">
        <ele>114.5</ele>
      </trkpt>
      <trkpt lat="47.96451" lon="-3.82459">
        <ele>114.5</ele>
      </trkpt>
      <trkpt lat="47.96448" lon="-3.82457">
        <ele>114.5</ele>
      </trkpt>
      <trkpt lat="47.96453" lon="-3.82449">
        <ele>114.8</ele>
        <extensions>
          <visugpx:TrkExtension xmlns:visugpx="https://www.visugpx.com/editgpx/">
            <visugpx:node>11</visugpx:node>
            </visugpx:TrkExtension>
        </extensions>
      </trkpt>
      <trkpt lat="47.9645" lon="-3.82445">
        <ele>117.3</ele>
        <time>2019-06-17T17:03:16.140Z</time>
      </trkpt>
      <trkpt lat="47.96479" lon="-3.82398">
        <ele>118.7</ele>
        <time>2019-06-17T17:03:20.836Z</time>
      </trkpt>
      <trkpt lat="47.96513" lon="-3.82352">
        <ele>120.2</ele>
        <time>2019-06-17T17:03:25.941Z</time>
      </trkpt>
      <trkpt lat="47.96905" lon="-3.8196">
        <ele>129.1</ele>
        <time>2019-06-17T17:04:18.357Z</time>
      </trkpt>
      <trkpt lat="47.96922" lon="-3.81943">
        <ele>129</ele>
        <time>2019-06-17T17:04:20.682Z</time>
      </trkpt>
      <trkpt lat="47.97038" lon="-3.81821">
        <ele>129.8</ele>
        <time>2019-06-17T17:04:36.516Z</time>
      </trkpt>
      <trkpt lat="47.97102" lon="-3.81742">
        <ele>130.2</ele>
        <time>2019-06-17T17:04:45.743Z</time>
      </trkpt>
      <trkpt lat="47.97232" lon="-3.81503">
        <ele>131.6</ele>
        <time>2019-06-17T17:05:08.685Z</time>
      </trkpt>
      <trkpt lat="47.97385" lon="-3.81214">
        <ele>128.9</ele>
        <time>2019-06-17T17:05:36.081Z</time>
      </trkpt>
      <trkpt lat="47.97568" lon="-3.80873">
        <ele>129.5</ele>
        <time>2019-06-17T17:06:08.585Z</time>
      </trkpt>
      <trkpt lat="47.97952" lon="-3.80158">
        <ele>125.4</ele>
        <time>2019-06-17T17:07:16.848Z</time>
      </trkpt>
      <trkpt lat="47.98034" lon="-3.79999">
        <ele>128.6</ele>
        <time>2019-06-17T17:07:31.761Z</time>
      </trkpt>
      <trkpt lat="47.98085" lon="-3.79909">
        <ele>127.2</ele>
        <time>2019-06-17T17:07:40.546Z</time>
      </trkpt>
      <trkpt lat="47.98121" lon="-3.79866">
        <ele>128.3</ele>
        <time>2019-06-17T17:07:45.629Z</time>
      </trkpt>
      <trkpt lat="47.9816" lon="-3.79826">
        <ele>128.3</ele>
        <time>2019-06-17T17:07:50.964Z</time>
      </trkpt>
      <trkpt lat="47.98285" lon="-3.79705">
        <ele>132.7</ele>
        <time>2019-06-17T17:08:07.486Z</time>
      </trkpt>
      <trkpt lat="47.98357" lon="-3.79641">
        <ele>134.6</ele>
        <time>2019-06-17T17:08:16.800Z</time>
      </trkpt>
      <trkpt lat="47.9842" lon="-3.79612">
        <ele>136.2</ele>
        <time>2019-06-17T17:08:24.134Z</time>
      </trkpt>
      <trkpt lat="47.98473" lon="-3.79599">
        <ele>135.9</ele>
        <time>2019-06-17T17:08:30.139Z</time>
      </trkpt>
      <trkpt lat="47.9854" lon="-3.79577">
        <ele>133.9</ele>
        <time>2019-06-17T17:08:37.817Z</time>
      </trkpt>
      <trkpt lat="47.98608" lon="-3.79533">
        <ele>134</ele>
        <time>2019-06-17T17:08:46.048Z</time>
      </trkpt>
      <trkpt lat="47.98661" lon="-3.7947">
        <ele>138.5</ele>
        <time>2019-06-17T17:08:53.580Z</time>
      </trkpt>
      <trkpt lat="47.98668" lon="-3.79462">
        <ele>139</ele>
        <time>2019-06-17T17:08:54.533Z</time>
      </trkpt>
      <trkpt lat="47.98739" lon="-3.79298">
        <ele>139</ele>
        <time>2019-06-17T17:09:09.071Z</time>
      </trkpt>
      <trkpt lat="47.9882" lon="-3.79101">
        <ele>140.1</ele>
        <time>2019-06-17T17:09:26.276Z</time>
      </trkpt>
      <trkpt lat="47.98843" lon="-3.79035">
        <ele>140.4</ele>
        <time>2019-06-17T17:09:31.846Z</time>
      </trkpt>
      <trkpt lat="47.9888" lon="-3.78847">
        <ele>145.8</ele>
        <time>2019-06-17T17:09:46.446Z</time>
      </trkpt>
      <trkpt lat="47.98898" lon="-3.78677">
        <ele>147.6</ele>
        <time>2019-06-17T17:09:59.219Z</time>
      </trkpt>
      <trkpt lat="47.98912" lon="-3.78515">
        <ele>137.3</ele>
        <time>2019-06-17T17:10:11.463Z</time>
      </trkpt>
      <trkpt lat="47.98916" lon="-3.78489">
        <ele>137.1</ele>
        <time>2019-06-17T17:10:13.456Z</time>
      </trkpt>
      <trkpt lat="47.98917" lon="-3.78483">
        <ele>137.3</ele>
        <time>2019-06-17T17:10:13.900Z</time>
      </trkpt>
      <trkpt lat="47.98936" lon="-3.78281">
        <ele>146.4</ele>
        <time>2019-06-17T17:10:29.120Z</time>
      </trkpt>
      <trkpt lat="47.9896" lon="-3.78001">
        <ele>151.1</ele>
        <time>2019-06-17T17:10:50.075Z</time>
      </trkpt>
      <trkpt lat="47.99001" lon="-3.7787">
        <ele>152.9</ele>
        <time>2019-06-17T17:11:00.842Z</time>
      </trkpt>
      <trkpt lat="47.99088" lon="-3.77642">
        <ele>157.4</ele>
        <time>2019-06-17T17:11:20.387Z</time>
      </trkpt>
      <trkpt lat="47.9911" lon="-3.77552">
        <ele>156.7</ele>
        <time>2019-06-17T17:11:27.529Z</time>
      </trkpt>
      <trkpt lat="47.99116" lon="-3.77443">
        <ele>157</ele>
        <time>2019-06-17T17:11:35.691Z</time>
      </trkpt>
      <trkpt lat="47.99115" lon="-3.77229">
        <ele>156.9</ele>
        <time>2019-06-17T17:11:51.602Z</time>
      </trkpt>
      <trkpt lat="47.9912" lon="-3.77152">
        <ele>156.3</ele>
        <time>2019-06-17T17:11:57.363Z</time>
      </trkpt>
      <trkpt lat="47.99142" lon="-3.77055">
        <ele>152.7</ele>
        <time>2019-06-17T17:12:04.946Z</time>
      </trkpt>
      <trkpt lat="47.99179" lon="-3.77008">
        <ele>150.5</ele>
        <time>2019-06-17T17:12:10.363Z</time>
      </trkpt>
      <trkpt lat="47.9923" lon="-3.76957">
        <ele>148.7</ele>
        <time>2019-06-17T17:12:17.215Z</time>
      </trkpt>
      <trkpt lat="47.99289" lon="-3.76904">
        <ele>149.7</ele>
        <time>2019-06-17T17:12:24.835Z</time>
      </trkpt>
      <trkpt lat="47.99347" lon="-3.76826">
        <ele>149.8</ele>
        <time>2019-06-17T17:12:33.559Z</time>
      </trkpt>
      <trkpt lat="47.99369" lon="-3.76746">
        <ele>147.1</ele>
        <time>2019-06-17T17:12:39.956Z</time>
      </trkpt>
      <trkpt lat="47.99381" lon="-3.76673">
        <ele>146.3</ele>
        <time>2019-06-17T17:12:45.586Z</time>
      </trkpt>
      <trkpt lat="47.99375" lon="-3.76663">
        <ele>146.5</ele>
        <time>2019-06-17T17:12:46.592Z</time>
      </trkpt>
      <trkpt lat="47.99391" lon="-3.76606">
        <ele>146.4</ele>
        <time>2019-06-17T17:12:51.218Z</time>
      </trkpt>
      <trkpt lat="47.99397" lon="-3.76572">
        <ele>146.3</ele>
        <time>2019-06-17T17:12:53.784Z</time>
      </trkpt>
      <trkpt lat="47.99381" lon="-3.76545">
        <ele>147.4</ele>
        <time>2019-06-17T17:12:56.488Z</time>
      </trkpt>
      <trkpt lat="47.99367" lon="-3.76532">
        <ele>148.2</ele>
        <time>2019-06-17T17:12:58.357Z</time>
      </trkpt>
      <trkpt lat="47.99332" lon="-3.76512">
        <ele>150</ele>
        <time>2019-06-17T17:13:02.546Z</time>
      </trkpt>
      <trkpt lat="47.99314" lon="-3.76503">
        <ele>150.4</ele>
        <time>2019-06-17T17:13:04.665Z</time>
      </trkpt>
      <trkpt lat="47.99306" lon="-3.76503">
        <ele>150.6</ele>
        <time>2019-06-17T17:13:05.490Z</time>
      </trkpt>
      <trkpt lat="47.99293" lon="-3.7648">
        <ele>151.3</ele>
        <time>2019-06-17T17:13:07.682Z</time>
      </trkpt>
      <trkpt lat="47.99288" lon="-3.76452">
        <ele>152</ele>
        <time>2019-06-17T17:13:09.892Z</time>
      </trkpt>
      <trkpt lat="47.99272" lon="-3.76439">
        <ele>152.7</ele>
        <time>2019-06-17T17:13:11.903Z</time>
      </trkpt>
      <trkpt lat="47.99258" lon="-3.76409">
        <ele>153.8</ele>
        <time>2019-06-17T17:13:14.683Z</time>
      </trkpt>
      <trkpt lat="47.99238" lon="-3.76369">
        <ele>153.9</ele>
        <time>2019-06-17T17:13:18.341Z</time>
      </trkpt>
      <trkpt lat="47.99226" lon="-3.7634">
        <ele>153.5</ele>
        <time>2019-06-17T17:13:20.860Z</time>
      </trkpt>
      <trkpt lat="47.99197" lon="-3.76263">
        <ele>149.8</ele>
        <time>2019-06-17T17:13:27.457Z</time>
      </trkpt>
      <trkpt lat="47.99186" lon="-3.76227">
        <ele>148.8</ele>
        <time>2019-06-17T17:13:30.411Z</time>
      </trkpt>
      <trkpt lat="47.99178" lon="-3.76187">
        <ele>148.5</ele>
        <time>2019-06-17T17:13:33.561Z</time>
      </trkpt>
      <trkpt lat="47.99175" lon="-3.76141">
        <ele>147.7</ele>
        <time>2019-06-17T17:13:36.964Z</time>
      </trkpt>
      <trkpt lat="47.99175" lon="-3.76093">
        <ele>146.4</ele>
        <time>2019-06-17T17:13:40.577Z</time>
      </trkpt>
      <trkpt lat="47.99175" lon="-3.76083">
        <ele>146.2</ele>
        <time>2019-06-17T17:13:41.321Z</time>
      </trkpt>
      <trkpt lat="47.99177" lon="-3.76036">
        <ele>145.1</ele>
        <time>2019-06-17T17:13:44.807Z</time>
      </trkpt>
      <trkpt lat="47.99185" lon="-3.75996">
        <ele>144.1</ele>
        <time>2019-06-17T17:13:47.901Z</time>
      </trkpt>
      <trkpt lat="47.99089" lon="-3.75976">
        <ele>139.7</ele>
        <time>2019-06-17T17:13:58.668Z</time>
      </trkpt>
      <trkpt lat="47.99017" lon="-3.75959">
        <ele>137.8</ele>
        <time>2019-06-17T17:14:06.786Z</time>
      </trkpt>
      <trkpt lat="47.98987" lon="-3.75955">
        <ele>138</ele>
        <time>2019-06-17T17:14:10.099Z</time>
      </trkpt>
      <trkpt lat="47.98968" lon="-3.75958">
        <ele>138.7</ele>
        <time>2019-06-17T17:14:12.301Z</time>
      </trkpt>
      <trkpt lat="47.98944" lon="-3.7597">
        <ele>139.2</ele>
        <time>2019-06-17T17:14:15.109Z</time>
      </trkpt>
      <trkpt lat="47.98925" lon="-3.75988">
        <ele>139.2</ele>
        <time>2019-06-17T17:14:17.605Z</time>
      </trkpt>
      <trkpt lat="47.9891" lon="-3.76009">
        <ele>139.3</ele>
        <time>2019-06-17T17:14:19.859Z</time>
      </trkpt>
      <trkpt lat="47.98889" lon="-3.76053">
        <ele>139.7</ele>
        <time>2019-06-17T17:14:23.867Z</time>
      </trkpt>
      <trkpt lat="47.98875" lon="-3.76093">
        <ele>139.5</ele>
        <time>2019-06-17T17:14:27.200Z</time>
      </trkpt>
      <trkpt lat="47.98867" lon="-3.76116">
        <ele>139.9</ele>
        <time>2019-06-17T17:14:29.154Z</time>
      </trkpt>
      <trkpt lat="47.98848" lon="-3.76171">
        <ele>140</ele>
        <time>2019-06-17T17:14:33.789Z</time>
      </trkpt>
      <trkpt lat="47.98821" lon="-3.7625">
        <ele>138.4</ele>
        <time>2019-06-17T17:14:40.391Z</time>
      </trkpt>
      <trkpt lat="47.9881" lon="-3.76292">
        <ele>136.8</ele>
        <time>2019-06-17T17:14:43.762Z</time>
      </trkpt>
      <trkpt lat="47.98801" lon="-3.76336">
        <ele>135.5</ele>
        <time>2019-06-17T17:14:47.119Z</time>
      </trkpt>
      <trkpt lat="47.98798" lon="-3.76375">
        <ele>135.8</ele>
        <time>2019-06-17T17:14:50.055Z</time>
      </trkpt>
      <trkpt lat="47.98795" lon="-3.765">
        <ele>139.1</ele>
        <time>2019-06-17T17:14:59.408Z</time>
      </trkpt>
      <trkpt lat="47.98746" lon="-3.76508">
        <ele>138</ele>
        <time>2019-06-17T17:15:04.921Z</time>
      </trkpt>
      <trkpt lat="47.98687" lon="-3.76531">
        <ele>135.4</ele>
        <time>2019-06-17T17:15:11.723Z</time>
      </trkpt>
      <trkpt lat="47.98661" lon="-3.76542">
        <ele>134.2</ele>
        <time>2019-06-17T17:15:14.723Z</time>
      </trkpt>
      <trkpt lat="47.98653" lon="-3.76547">
        <ele>133.8</ele>
        <time>2019-06-17T17:15:15.634Z</time>
      </trkpt>
      <trkpt lat="47.98607" lon="-3.76576">
        <ele>130.2</ele>
        <time>2019-06-17T17:15:21.221Z</time>
      </trkpt>
      <trkpt lat="47.98564" lon="-3.76612">
        <ele>127.2</ele>
        <time>2019-06-17T17:15:26.686Z</time>
      </trkpt>
      <trkpt lat="47.98514" lon="-3.76633">
        <ele>124.5</ele>
        <time>2019-06-17T17:15:32.488Z</time>
      </trkpt>
      <trkpt lat="47.98468" lon="-3.76674">
        <ele>123.5</ele>
        <time>2019-06-17T17:15:38.464Z</time>
      </trkpt>
      <trkpt lat="47.98438" lon="-3.76693">
        <ele>122.8</ele>
        <time>2019-06-17T17:15:42.121Z</time>
      </trkpt>
      <trkpt lat="47.98401" lon="-3.76705">
        <ele>124</ele>
        <time>2019-06-17T17:15:46.328Z</time>
      </trkpt>
      <trkpt lat="47.98321" lon="-3.76727">
        <ele>131.3</ele>
        <time>2019-06-17T17:15:55.339Z</time>
      </trkpt>
      <trkpt lat="47.98217" lon="-3.76756">
        <ele>139.6</ele>
        <time>2019-06-17T17:16:07.168Z</time>
      </trkpt>
      <trkpt lat="47.98193" lon="-3.76765">
        <ele>141.5</ele>
        <time>2019-06-17T17:16:09.929Z</time>
      </trkpt>
      <trkpt lat="47.98188" lon="-3.76638">
        <ele>143</ele>
        <time>2019-06-17T17:16:19.405Z</time>
      </trkpt>
      <trkpt lat="47.98181" lon="-3.76556">
        <ele>145.1</ele>
        <time>2019-06-17T17:16:25.551Z</time>
      </trkpt>
      <trkpt lat="47.98175" lon="-3.76512">
        <ele>146.5</ele>
        <time>2019-06-17T17:16:28.873Z</time>
      </trkpt>
      <trkpt lat="47.98141" lon="-3.76519">
        <ele>146.7</ele>
        <time>2019-06-17T17:16:32.721Z</time>
      </trkpt>
      <trkpt lat="47.98129" lon="-3.76526">
        <ele>146.5</ele>
        <time>2019-06-17T17:16:34.113Z</time>
      </trkpt>
      <trkpt lat="47.98114" lon="-3.76536">
        <ele>146.2</ele>
        <time>2019-06-17T17:16:35.988Z</time>
      </trkpt>
      <trkpt lat="47.98101" lon="-3.76538">
        <ele>146.2</ele>
        <time>2019-06-17T17:16:37.429Z</time>
      </trkpt>
      <trkpt lat="47.98085" lon="-3.76539">
        <ele>146.1</ele>
        <time>2019-06-17T17:16:39.187Z</time>
      </trkpt>
      <trkpt lat="47.98058" lon="-3.76533">
        <ele>146.6</ele>
        <time>2019-06-17T17:16:42.234Z</time>
      </trkpt>
      <trkpt lat="47.98043" lon="-3.76526">
        <ele>147</ele>
        <time>2019-06-17T17:16:43.984Z</time>
      </trkpt>
      <trkpt lat="47.9803" lon="-3.76524">
        <ele>147.3</ele>
        <time>2019-06-17T17:16:45.422Z</time>
      </trkpt>
      <trkpt lat="47.97999" lon="-3.76511">
        <ele>148.3</ele>
        <time>2019-06-17T17:16:49.022Z</time>
      </trkpt>
      <trkpt lat="47.97971" lon="-3.76509">
        <ele>148.2</ele>
        <time>2019-06-17T17:16:52.142Z</time>
      </trkpt>
      <trkpt lat="47.97954" lon="-3.76504">
        <ele>148.3</ele>
        <time>2019-06-17T17:16:54.033Z</time>
      </trkpt>
      <trkpt lat="47.97943" lon="-3.76496">
        <ele>148.4</ele>
        <time>2019-06-17T17:16:55.370Z</time>
      </trkpt>
      <trkpt lat="47.9794" lon="-3.76479">
        <ele>149</ele>
        <time>2019-06-17T17:16:56.692Z</time>
      </trkpt>
      <trkpt lat="47.97939" lon="-3.76464">
        <ele>149.4</ele>
        <time>2019-06-17T17:16:57.795Z</time>
      </trkpt>
      <trkpt lat="47.97934" lon="-3.76442">
        <ele>150.1</ele>
        <time>2019-06-17T17:16:59.500Z</time>
      </trkpt>
      <trkpt lat="47.97924" lon="-3.76431">
        <ele>150.5</ele>
        <time>2019-06-17T17:17:00.894Z</time>
      </trkpt>
      <trkpt lat="47.97911" lon="-3.76422">
        <ele>150.8</ele>
        <time>2019-06-17T17:17:02.562Z</time>
      </trkpt>
      <trkpt lat="47.97905" lon="-3.76417">
        <ele>151</ele>
        <time>2019-06-17T17:17:03.254Z</time>
      </trkpt>
      <trkpt lat="47.97888" lon="-3.76406">
        <ele>151</ele>
        <time>2019-06-17T17:17:05.379Z</time>
      </trkpt>
      <trkpt lat="47.97875" lon="-3.76399">
        <ele>151</ele>
        <time>2019-06-17T17:17:06.862Z</time>
      </trkpt>
      <trkpt lat="47.97848" lon="-3.76395">
        <ele>151</ele>
        <time>2019-06-17T17:17:09.880Z</time>
      </trkpt>
      <trkpt lat="47.97806" lon="-3.76379">
        <ele>149.7</ele>
        <time>2019-06-17T17:17:14.696Z</time>
      </trkpt>
      <trkpt lat="47.97789" lon="-3.76372">
        <ele>148.9</ele>
        <time>2019-06-17T17:17:16.735Z</time>
      </trkpt>
      <trkpt lat="47.97771" lon="-3.76361">
        <ele>148</ele>
        <time>2019-06-17T17:17:18.864Z</time>
      </trkpt>
      <trkpt lat="47.9776" lon="-3.76355">
        <ele>147.5</ele>
        <time>2019-06-17T17:17:20.183Z</time>
      </trkpt>
      <trkpt lat="47.97736" lon="-3.76348">
        <ele>145.7</ele>
        <time>2019-06-17T17:17:22.900Z</time>
      </trkpt>
      <trkpt lat="47.97706" lon="-3.76348">
        <ele>143.1</ele>
        <time>2019-06-17T17:17:26.201Z</time>
      </trkpt>
      <trkpt lat="47.97701" lon="-3.76319">
        <ele>142.9</ele>
        <time>2019-06-17T17:17:28.451Z</time>
      </trkpt>
      <trkpt lat="47.97692" lon="-3.76252">
        <ele>142.2</ele>
        <time>2019-06-17T17:17:33.500Z</time>
      </trkpt>
      <trkpt lat="47.97686" lon="-3.76178">
        <ele>141.6</ele>
        <time>2019-06-17T17:17:39.030Z</time>
      </trkpt>
      <trkpt lat="47.97679" lon="-3.76135">
        <ele>141.4</ele>
        <time>2019-06-17T17:17:42.334Z</time>
      </trkpt>
      <trkpt lat="47.97671" lon="-3.76093">
        <ele>141.2</ele>
        <time>2019-06-17T17:17:45.647Z</time>
      </trkpt>
      <trkpt lat="47.97668" lon="-3.76081">
        <ele>141.1</ele>
        <time>2019-06-17T17:17:46.518Z</time>
      </trkpt>
      <trkpt lat="47.9766" lon="-3.76057">
        <ele>141.4</ele>
        <time>2019-06-17T17:17:48.544Z</time>
      </trkpt>
      <trkpt lat="47.97644" lon="-3.76">
        <ele>142.1</ele>
        <time>2019-06-17T17:17:53.149Z</time>
      </trkpt>
      <trkpt lat="47.97638" lon="-3.7596">
        <ele>141.9</ele>
        <time>2019-06-17T17:17:56.187Z</time>
      </trkpt>
      <trkpt lat="47.97628" lon="-3.75902">
        <ele>141.5</ele>
        <time>2019-06-17T17:18:00.660Z</time>
      </trkpt>
      <trkpt lat="47.97622" lon="-3.75844">
        <ele>141.7</ele>
        <time>2019-06-17T17:18:05.007Z</time>
      </trkpt>
      <trkpt lat="47.97619" lon="-3.758">
        <ele>142.3</ele>
        <time>2019-06-17T17:18:08.338Z</time>
      </trkpt>
      <trkpt lat="47.97613" lon="-3.75754">
        <ele>143</ele>
        <time>2019-06-17T17:18:11.790Z</time>
      </trkpt>
      <trkpt lat="47.97607" lon="-3.75707">
        <ele>142.7</ele>
        <time>2019-06-17T17:18:15.389Z</time>
      </trkpt>
      <trkpt lat="47.97604" lon="-3.75685">
        <ele>142.6</ele>
        <time>2019-06-17T17:18:17.024Z</time>
      </trkpt>
      <trkpt lat="47.97599" lon="-3.75669">
        <ele>142.4</ele>
        <time>2019-06-17T17:18:18.367Z</time>
      </trkpt>
      <trkpt lat="47.97562" lon="-3.7558">
        <ele>136.1</ele>
        <time>2019-06-17T17:18:26.196Z</time>
      </trkpt>
      <trkpt lat="47.9754" lon="-3.75528">
        <ele>131.2</ele>
        <time>2019-06-17T17:18:30.834Z</time>
      </trkpt>
      <trkpt lat="47.9753" lon="-3.75493">
        <ele>129</ele>
        <time>2019-06-17T17:18:33.654Z</time>
      </trkpt>
      <trkpt lat="47.97505" lon="-3.75399">
        <ele>127</ele>
        <time>2019-06-17T17:18:41.188Z</time>
      </trkpt>
      <trkpt lat="47.97493" lon="-3.75356">
        <ele>126.2</ele>
        <time>2019-06-17T17:18:44.671Z</time>
      </trkpt>
      <trkpt lat="47.97475" lon="-3.753">
        <ele>122.2</ele>
        <time>2019-06-17T17:18:49.258Z</time>
      </trkpt>
      <trkpt lat="47.97473" lon="-3.75306">
        <ele>121.9</ele>
        <time>2019-06-17T17:18:49.766Z</time>
      </trkpt>
      <trkpt lat="47.9746" lon="-3.7531">
        <ele>119.5</ele>
        <time>2019-06-17T17:18:51.210Z</time>
      </trkpt>
      <trkpt lat="47.97439" lon="-3.75317">
        <ele>115.6</ele>
        <time>2019-06-17T17:18:53.676Z</time>
      </trkpt>
      <trkpt lat="47.97419" lon="-3.75324">
        <ele>111.9</ele>
        <time>2019-06-17T17:18:56.012Z</time>
      </trkpt>
      <trkpt lat="47.97391" lon="-3.75343">
        <ele>111.3</ele>
        <time>2019-06-17T17:18:59.351Z</time>
      </trkpt>
      <trkpt lat="47.97372" lon="-3.75358">
        <ele>111.8</ele>
        <time>2019-06-17T17:19:01.757Z</time>
      </trkpt>
      <trkpt lat="47.97348" lon="-3.75385">
        <ele>114.5</ele>
        <time>2019-06-17T17:19:05.150Z</time>
      </trkpt>
      <trkpt lat="47.97334" lon="-3.75399">
        <ele>116.4</ele>
        <time>2019-06-17T17:19:06.951Z</time>
      </trkpt>
      <trkpt lat="47.97322" lon="-3.75418">
        <ele>117.1</ele>
        <time>2019-06-17T17:19:08.935Z</time>
      </trkpt>
      <trkpt lat="47.97301" lon="-3.75461">
        <ele>114.1</ele>
        <time>2019-06-17T17:19:12.891Z</time>
      </trkpt>
      <trkpt lat="47.97291" lon="-3.75487">
        <ele>112.7</ele>
        <time>2019-06-17T17:19:15.143Z</time>
      </trkpt>
      <trkpt lat="47.9726" lon="-3.75572">
        <ele>106.8</ele>
        <time>2019-06-17T17:19:22.374Z</time>
      </trkpt>
      <trkpt lat="47.97215" lon="-3.7565">
        <ele>104.6</ele>
        <time>2019-06-17T17:19:30.095Z</time>
      </trkpt>
      <trkpt lat="47.97204" lon="-3.75669">
        <ele>104</ele>
        <time>2019-06-17T17:19:31.929Z</time>
      </trkpt>
      <trkpt lat="47.972" lon="-3.75692">
        <ele>104.6</ele>
        <time>2019-06-17T17:19:33.657Z</time>
      </trkpt>
      <trkpt lat="47.97179" lon="-3.75804">
        <ele>104.7</ele>
        <time>2019-06-17T17:19:42.354Z</time>
      </trkpt>
      <trkpt lat="47.97166" lon="-3.75873">
        <ele>103.9</ele>
        <time>2019-06-17T17:19:47.701Z</time>
      </trkpt>
      <trkpt lat="47.97162" lon="-3.75904">
        <ele>104.3</ele>
        <time>2019-06-17T17:19:50.050Z</time>
      </trkpt>
      <trkpt lat="47.97164" lon="-3.7594">
        <ele>104.5</ele>
        <time>2019-06-17T17:19:52.718Z</time>
      </trkpt>
      <trkpt lat="47.97168" lon="-3.75972">
        <ele>104.5</ele>
        <time>2019-06-17T17:19:55.146Z</time>
      </trkpt>
      <trkpt lat="47.97188" lon="-3.76034">
        <ele>105.3</ele>
        <time>2019-06-17T17:20:00.274Z</time>
      </trkpt>
      <trkpt lat="47.97202" lon="-3.76077">
        <ele>105.3</ele>
        <time>2019-06-17T17:20:03.798Z</time>
      </trkpt>
      <trkpt lat="47.97204" lon="-3.76093">
        <ele>105</ele>
        <time>2019-06-17T17:20:05.000Z</time>
      </trkpt>
      <trkpt lat="47.97207" lon="-3.7611">
        <ele>104.8</ele>
        <time>2019-06-17T17:20:06.345Z</time>
      </trkpt>
      <trkpt lat="47.97206" lon="-3.76141">
        <ele>103.5</ele>
        <time>2019-06-17T17:20:08.653Z</time>
      </trkpt>
      <trkpt lat="47.97199" lon="-3.76181">
        <ele>101</ele>
        <time>2019-06-17T17:20:11.715Z</time>
      </trkpt>
      <trkpt lat="47.97185" lon="-3.7626">
        <ele>96.4</ele>
        <time>2019-06-17T17:20:17.857Z</time>
      </trkpt>
      <trkpt lat="47.97172" lon="-3.7633">
        <ele>94.8</ele>
        <time>2019-06-17T17:20:23.272Z</time>
      </trkpt>
      <trkpt lat="47.97169" lon="-3.76406">
        <ele>96.1</ele>
        <time>2019-06-17T17:20:28.887Z</time>
      </trkpt>
      <trkpt lat="47.97169" lon="-3.76444">
        <ele>96.7</ele>
        <time>2019-06-17T17:20:31.761Z</time>
      </trkpt>
      <trkpt lat="47.9717" lon="-3.76483">
        <ele>97.3</ele>
        <time>2019-06-17T17:20:34.682Z</time>
      </trkpt>
      <trkpt lat="47.97168" lon="-3.76516">
        <ele>97.3</ele>
        <time>2019-06-17T17:20:37.133Z</time>
      </trkpt>
      <trkpt lat="47.97154" lon="-3.7657">
        <ele>99.8</ele>
        <time>2019-06-17T17:20:41.460Z</time>
      </trkpt>
      <trkpt lat="47.97127" lon="-3.76632">
        <ele>104.9</ele>
        <time>2019-06-17T17:20:47.015Z</time>
      </trkpt>
      <trkpt lat="47.97098" lon="-3.76708">
        <ele>111.2</ele>
        <time>2019-06-17T17:20:53.524Z</time>
      </trkpt>
      <trkpt lat="47.97092" lon="-3.7672">
        <ele>112.7</ele>
        <time>2019-06-17T17:20:54.630Z</time>
      </trkpt>
      <trkpt lat="47.97102" lon="-3.76736">
        <ele>111.9</ele>
        <time>2019-06-17T17:20:56.222Z</time>
      </trkpt>
      <trkpt lat="47.97112" lon="-3.7675">
        <ele>110.9</ele>
        <time>2019-06-17T17:20:57.717Z</time>
      </trkpt>
      <trkpt lat="47.97117" lon="-3.76757">
        <ele>110.3</ele>
        <time>2019-06-17T17:20:58.545Z</time>
      </trkpt>
      <trkpt lat="47.97122" lon="-3.76759">
        <ele>109.5</ele>
        <time>2019-06-17T17:20:59.107Z</time>
      </trkpt>
      <trkpt lat="47.97131" lon="-3.76752">
        <ele>107.5</ele>
        <time>2019-06-17T17:21:00.223Z</time>
      </trkpt>
      <trkpt lat="47.97143" lon="-3.76745">
        <ele>105.1</ele>
        <time>2019-06-17T17:21:01.682Z</time>
      </trkpt>
      <trkpt lat="47.97156" lon="-3.76742">
        <ele>102.7</ele>
        <time>2019-06-17T17:21:03.201Z</time>
      </trkpt>
      <trkpt lat="47.97179" lon="-3.76745">
        <ele>101</ele>
        <time>2019-06-17T17:21:05.683Z</time>
      </trkpt>
      <trkpt lat="47.97189" lon="-3.76747">
        <ele>101</ele>
        <time>2019-06-17T17:21:06.891Z</time>
      </trkpt>
      <trkpt lat="47.97194" lon="-3.76757">
        <ele>101.3</ele>
        <time>2019-06-17T17:21:07.822Z</time>
      </trkpt>
      <trkpt lat="47.97198" lon="-3.76774">
        <ele>101.7</ele>
        <time>2019-06-17T17:21:09.138Z</time>
      </trkpt>
      <trkpt lat="47.97199" lon="-3.76791">
        <ele>102.1</ele>
        <time>2019-06-17T17:21:10.385Z</time>
      </trkpt>
      <trkpt lat="47.97198" lon="-3.76819">
        <ele>103</ele>
        <time>2019-06-17T17:21:12.514Z</time>
      </trkpt>
      <trkpt lat="47.97196" lon="-3.76851">
        <ele>104.7</ele>
        <time>2019-06-17T17:21:14.911Z</time>
      </trkpt>
      <trkpt lat="47.97196" lon="-3.7687">
        <ele>105.9</ele>
        <time>2019-06-17T17:21:16.308Z</time>
      </trkpt>
      <trkpt lat="47.972" lon="-3.76887">
        <ele>106.4</ele>
        <time>2019-06-17T17:21:17.668Z</time>
      </trkpt>
      <trkpt lat="47.97209" lon="-3.76919">
        <ele>107</ele>
        <time>2019-06-17T17:21:20.266Z</time>
      </trkpt>
      <trkpt lat="47.97218" lon="-3.76953">
        <ele>107.7</ele>
        <time>2019-06-17T17:21:22.966Z</time>
      </trkpt>
      <trkpt lat="47.97222" lon="-3.76983">
        <ele>109</ele>
        <time>2019-06-17T17:21:25.311Z</time>
      </trkpt>
      <trkpt lat="47.97223" lon="-3.77007">
        <ele>110.5</ele>
        <time>2019-06-17T17:21:27.104Z</time>
      </trkpt>
      <trkpt lat="47.97222" lon="-3.77031">
        <ele>112.4</ele>
        <time>2019-06-17T17:21:28.916Z</time>
      </trkpt>
      <trkpt lat="47.97222" lon="-3.77052">
        <ele>113.9</ele>
        <time>2019-06-17T17:21:30.429Z</time>
      </trkpt>
      <trkpt lat="47.97224" lon="-3.77074">
        <ele>115.5</ele>
        <time>2019-06-17T17:21:32.080Z</time>
      </trkpt>
      <trkpt lat="47.9723" lon="-3.77097">
        <ele>116.5</ele>
        <time>2019-06-17T17:21:33.968Z</time>
      </trkpt>
      <trkpt lat="47.97239" lon="-3.77131">
        <ele>117.7</ele>
        <time>2019-06-17T17:21:36.645Z</time>
      </trkpt>
      <trkpt lat="47.97246" lon="-3.77162">
        <ele>119.1</ele>
        <time>2019-06-17T17:21:39.099Z</time>
      </trkpt>
      <trkpt lat="47.9725" lon="-3.77183">
        <ele>120.2</ele>
        <time>2019-06-17T17:21:40.744Z</time>
      </trkpt>
      <trkpt lat="47.97251" lon="-3.77218">
        <ele>122.7</ele>
        <time>2019-06-17T17:21:43.371Z</time>
      </trkpt>
      <trkpt lat="47.9725" lon="-3.77253">
        <ele>125.1</ele>
        <time>2019-06-17T17:21:45.936Z</time>
      </trkpt>
      <trkpt lat="47.97249" lon="-3.77294">
        <ele>127.7</ele>
        <time>2019-06-17T17:21:48.998Z</time>
      </trkpt>
      <trkpt lat="47.97244" lon="-3.77321">
        <ele>129.7</ele>
        <time>2019-06-17T17:21:51.149Z</time>
      </trkpt>
      <trkpt lat="47.97237" lon="-3.77346">
        <ele>130.8</ele>
        <time>2019-06-17T17:21:53.104Z</time>
      </trkpt>
      <trkpt lat="47.9723" lon="-3.77366">
        <ele>131.2</ele>
        <time>2019-06-17T17:21:54.823Z</time>
      </trkpt>
      <trkpt lat="47.97221" lon="-3.77389">
        <ele>131.8</ele>
        <time>2019-06-17T17:21:56.838Z</time>
      </trkpt>
      <trkpt lat="47.97211" lon="-3.77405">
        <ele>132.3</ele>
        <time>2019-06-17T17:21:58.438Z</time>
      </trkpt>
      <trkpt lat="47.97205" lon="-3.77412">
        <ele>132.7</ele>
        <time>2019-06-17T17:21:59.278Z</time>
      </trkpt>
      <trkpt lat="47.97189" lon="-3.77409">
        <ele>133.7</ele>
        <time>2019-06-17T17:22:01.117Z</time>
      </trkpt>
      <trkpt lat="47.97167" lon="-3.77403">
        <ele>135</ele>
        <time>2019-06-17T17:22:03.562Z</time>
      </trkpt>
      <trkpt lat="47.9715" lon="-3.77398">
        <ele>135.5</ele>
        <time>2019-06-17T17:22:05.459Z</time>
      </trkpt>
      <trkpt lat="47.9714" lon="-3.77395">
        <ele>135.9</ele>
        <time>2019-06-17T17:22:06.636Z</time>
      </trkpt>
      <trkpt lat="47.97136" lon="-3.774">
        <ele>136</ele>
        <time>2019-06-17T17:22:07.165Z</time>
      </trkpt>
      <trkpt lat="47.97136" lon="-3.774">
        <ele>136</ele>
        <time>2019-06-17T17:22:07.199Z</time>
      </trkpt>
      <trkpt lat="47.97136" lon="-3.77398">
        <ele>136</ele>
        <time>2019-06-17T17:22:07.347Z</time>
      </trkpt>
      <trkpt lat="47.97137" lon="-3.77427">
        <ele>135.8</ele>
        <time>2019-06-17T17:22:09.523Z</time>
      </trkpt>
      <trkpt lat="47.97127" lon="-3.77523">
        <ele>134.8</ele>
        <time>2019-06-17T17:22:16.798Z</time>
      </trkpt>
      <trkpt lat="47.97122" lon="-3.77549">
        <ele>135.6</ele>
        <time>2019-06-17T17:22:18.782Z</time>
      </trkpt>
      <trkpt lat="47.97112" lon="-3.77574">
        <ele>136.8</ele>
        <time>2019-06-17T17:22:20.954Z</time>
      </trkpt>
      <trkpt lat="47.97098" lon="-3.77594">
        <ele>138</ele>
        <time>2019-06-17T17:22:23.093Z</time>
      </trkpt>
      <trkpt lat="47.97081" lon="-3.77602">
        <ele>139</ele>
        <time>2019-06-17T17:22:25.103Z</time>
      </trkpt>
      <trkpt lat="47.97069" lon="-3.7761">
        <ele>138.8</ele>
        <time>2019-06-17T17:22:26.497Z</time>
      </trkpt>
      <trkpt lat="47.97069" lon="-3.7761">
        <ele>138.8</ele>
        <time>2019-06-17T17:22:26.520Z</time>
      </trkpt>
      <trkpt lat="47.97052" lon="-3.77605">
        <ele>138.7</ele>
        <time>2019-06-17T17:22:28.448Z</time>
      </trkpt>
      <trkpt lat="47.97029" lon="-3.776">
        <ele>138.6</ele>
        <time>2019-06-17T17:22:31.103Z</time>
      </trkpt>
      <trkpt lat="47.96999" lon="-3.77597">
        <ele>138.4</ele>
        <time>2019-06-17T17:22:34.413Z</time>
      </trkpt>
      <trkpt lat="47.96979" lon="-3.77602">
        <ele>137.1</ele>
        <time>2019-06-17T17:22:36.686Z</time>
      </trkpt>
      <trkpt lat="47.96966" lon="-3.77624">
        <ele>135.7</ele>
        <time>2019-06-17T17:22:38.815Z</time>
      </trkpt>
      <trkpt lat="47.96958" lon="-3.77658">
        <ele>134.2</ele>
        <time>2019-06-17T17:22:41.518Z</time>
      </trkpt>
      <trkpt lat="47.96948" lon="-3.77706">
        <ele>133.2</ele>
        <time>2019-06-17T17:22:45.252Z</time>
      </trkpt>
      <trkpt lat="47.96926" lon="-3.77794">
        <ele>132.1</ele>
        <time>2019-06-17T17:22:52.237Z</time>
      </trkpt>
      <trkpt lat="47.96922" lon="-3.77819">
        <ele>132.1</ele>
        <time>2019-06-17T17:22:54.164Z</time>
      </trkpt>
      <trkpt lat="47.96921" lon="-3.77839">
        <ele>132.1</ele>
        <time>2019-06-17T17:22:55.655Z</time>
      </trkpt>
      <trkpt lat="47.96914" lon="-3.77889">
        <ele>130.5</ele>
        <time>2019-06-17T17:22:59.474Z</time>
      </trkpt>
      <trkpt lat="47.96905" lon="-3.77917">
        <ele>129.3</ele>
        <time>2019-06-17T17:23:01.796Z</time>
      </trkpt>
      <trkpt lat="47.96892" lon="-3.77951">
        <ele>128.2</ele>
        <time>2019-06-17T17:23:04.679Z</time>
      </trkpt>
      <trkpt lat="47.9687" lon="-3.78019">
        <ele>126.9</ele>
        <time>2019-06-17T17:23:10.326Z</time>
      </trkpt>
      <trkpt lat="47.96848" lon="-3.78084">
        <ele>125.9</ele>
        <time>2019-06-17T17:23:15.730Z</time>
      </trkpt>
      <trkpt lat="47.96778" lon="-3.78102">
        <ele>124.4</ele>
        <time>2019-06-17T17:23:23.683Z</time>
      </trkpt>
      <trkpt lat="47.96765" lon="-3.78103">
        <ele>124.2</ele>
        <time>2019-06-17T17:23:25.095Z</time>
      </trkpt>
      <trkpt lat="47.96757" lon="-3.78111">
        <ele>124.1</ele>
        <time>2019-06-17T17:23:26.165Z</time>
      </trkpt>
      <trkpt lat="47.96731" lon="-3.78132">
        <ele>124.2</ele>
        <time>2019-06-17T17:23:29.413Z</time>
      </trkpt>
      <trkpt lat="47.96716" lon="-3.78148">
        <ele>124.5</ele>
        <time>2019-06-17T17:23:31.479Z</time>
      </trkpt>
      <trkpt lat="47.9671" lon="-3.78162">
        <ele>124.9</ele>
        <time>2019-06-17T17:23:32.774Z</time>
      </trkpt>
      <trkpt lat="47.96704" lon="-3.78185">
        <ele>125.2</ele>
        <time>2019-06-17T17:23:34.624Z</time>
      </trkpt>
      <trkpt lat="47.96687" lon="-3.78212">
        <ele>125.9</ele>
        <time>2019-06-17T17:23:37.324Z</time>
      </trkpt>
      <trkpt lat="47.96683" lon="-3.78229">
        <ele>126.2</ele>
        <time>2019-06-17T17:23:38.670Z</time>
      </trkpt>
      <trkpt lat="47.96672" lon="-3.78233">
        <ele>126.6</ele>
        <time>2019-06-17T17:23:39.940Z</time>
      </trkpt>
      <trkpt lat="47.96648" lon="-3.78233">
        <ele>127.7</ele>
        <time>2019-06-17T17:23:42.666Z</time>
      </trkpt>
      <trkpt lat="47.96642" lon="-3.78229">
        <ele>127.9</ele>
        <time>2019-06-17T17:23:43.366Z</time>
      </trkpt>
      <trkpt lat="47.96623" lon="-3.78233">
        <ele>128.8</ele>
        <time>2019-06-17T17:23:45.469Z</time>
      </trkpt>
      <trkpt lat="47.9661" lon="-3.78242">
        <ele>129.6</ele>
        <time>2019-06-17T17:23:47.088Z</time>
      </trkpt>
      <trkpt lat="47.96595" lon="-3.78249">
        <ele>130.4</ele>
        <time>2019-06-17T17:23:48.870Z</time>
      </trkpt>
      <trkpt lat="47.96579" lon="-3.78268">
        <ele>131</ele>
        <time>2019-06-17T17:23:51.189Z</time>
      </trkpt>
      <trkpt lat="47.96567" lon="-3.78284">
        <ele>131</ele>
        <time>2019-06-17T17:23:52.935Z</time>
      </trkpt>
      <trkpt lat="47.96559" lon="-3.7831">
        <ele>131</ele>
        <time>2019-06-17T17:23:55.055Z</time>
      </trkpt>
      <trkpt lat="47.96551" lon="-3.78333">
        <ele>131</ele>
        <time>2019-06-17T17:23:56.957Z</time>
      </trkpt>
      <trkpt lat="47.96547" lon="-3.78349">
        <ele>131</ele>
        <time>2019-06-17T17:23:58.248Z</time>
      </trkpt>
      <trkpt lat="47.96544" lon="-3.7837">
        <ele>131</ele>
        <time>2019-06-17T17:23:59.849Z</time>
      </trkpt>
      <trkpt lat="47.96539" lon="-3.78382">
        <ele>131</ele>
        <time>2019-06-17T17:24:00.890Z</time>
      </trkpt>
      <trkpt lat="47.96519" lon="-3.78402">
        <ele>131.4</ele>
        <time>2019-06-17T17:24:03.565Z</time>
      </trkpt>
      <trkpt lat="47.96505" lon="-3.78405">
        <ele>131.8</ele>
        <time>2019-06-17T17:24:05.140Z</time>
      </trkpt>
      <trkpt lat="47.96478" lon="-3.78395">
        <ele>131</ele>
        <time>2019-06-17T17:24:08.244Z</time>
      </trkpt>
      <trkpt lat="47.96422" lon="-3.78382">
        <ele>128.8</ele>
        <time>2019-06-17T17:24:14.533Z</time>
      </trkpt>
      <trkpt lat="47.96378" lon="-3.78367">
        <ele>126.8</ele>
        <time>2019-06-17T17:24:19.634Z</time>
      </trkpt>
      <trkpt lat="47.96355" lon="-3.78356">
        <ele>125.9</ele>
        <time>2019-06-17T17:24:22.236Z</time>
      </trkpt>
      <trkpt lat="47.9631" lon="-3.7834">
        <ele>124.2</ele>
        <time>2019-06-17T17:24:27.455Z</time>
      </trkpt>
      <trkpt lat="47.96252" lon="-3.7831">
        <ele>122.1</ele>
        <time>2019-06-17T17:24:34.254Z</time>
      </trkpt>
      <trkpt lat="47.96237" lon="-3.78304">
        <ele>121</ele>
        <time>2019-06-17T17:24:36.001Z</time>
      </trkpt>
      <trkpt lat="47.96223" lon="-3.78302">
        <ele>120</ele>
        <time>2019-06-17T17:24:37.515Z</time>
      </trkpt>
      <trkpt lat="47.96216" lon="-3.78261">
        <ele>119.2</ele>
        <time>2019-06-17T17:24:40.623Z</time>
      </trkpt>
      <trkpt lat="47.96199" lon="-3.78197">
        <ele>118.1</ele>
        <time>2019-06-17T17:24:45.830Z</time>
      </trkpt>
      <trkpt lat="47.96169" lon="-3.78086">
        <ele>119.1</ele>
        <time>2019-06-17T17:24:54.726Z</time>
      </trkpt>
      <trkpt lat="47.9615" lon="-3.78005">
        <ele>118.5</ele>
        <time>2019-06-17T17:25:01.107Z</time>
      </trkpt>
      <trkpt lat="47.96134" lon="-3.77952">
        <ele>117.8</ele>
        <time>2019-06-17T17:25:05.406Z</time>
      </trkpt>
      <trkpt lat="47.96116" lon="-3.77914">
        <ele>116.7</ele>
        <time>2019-06-17T17:25:08.911Z</time>
      </trkpt>
      <trkpt lat="47.96091" lon="-3.77867">
        <ele>114.7</ele>
        <time>2019-06-17T17:25:13.393Z</time>
      </trkpt>
      <trkpt lat="47.9608" lon="-3.77843">
        <ele>113.8</ele>
        <time>2019-06-17T17:25:15.536Z</time>
      </trkpt>
      <trkpt lat="47.96072" lon="-3.77824">
        <ele>113.5</ele>
        <time>2019-06-17T17:25:17.213Z</time>
      </trkpt>
      <trkpt lat="47.96067" lon="-3.77811">
        <ele>113.5</ele>
        <time>2019-06-17T17:25:18.269Z</time>
      </trkpt>
      <trkpt lat="47.96066" lon="-3.77809">
        <ele>113.5</ele>
        <time>2019-06-17T17:25:18.492Z</time>
      </trkpt>
      <trkpt lat="47.96064" lon="-3.77806">
        <ele>113.4</ele>
        <time>2019-06-17T17:25:18.805Z</time>
      </trkpt>
      <trkpt lat="47.96058" lon="-3.77802">
        <ele>113.1</ele>
        <time>2019-06-17T17:25:19.593Z</time>
      </trkpt>
      <trkpt lat="47.96048" lon="-3.77796">
        <ele>112.6</ele>
        <time>2019-06-17T17:25:20.713Z</time>
      </trkpt>
      <trkpt lat="47.96013" lon="-3.77801">
        <ele>110.3</ele>
        <time>2019-06-17T17:25:24.643Z</time>
      </trkpt>
      <trkpt lat="47.95977" lon="-3.77805">
        <ele>109.7</ele>
        <time>2019-06-17T17:25:28.713Z</time>
      </trkpt>
      <trkpt lat="47.95959" lon="-3.77803">
        <ele>110</ele>
        <time>2019-06-17T17:25:30.730Z</time>
      </trkpt>
      <trkpt lat="47.95938" lon="-3.77796">
        <ele>110.5</ele>
        <time>2019-06-17T17:25:33.125Z</time>
      </trkpt>
      <trkpt lat="47.95921" lon="-3.77786">
        <ele>111</ele>
        <time>2019-06-17T17:25:35.099Z</time>
      </trkpt>
      <trkpt lat="47.95903" lon="-3.7778">
        <ele>112.2</ele>
        <time>2019-06-17T17:25:37.247Z</time>
      </trkpt>
      <trkpt lat="47.95884" lon="-3.77778">
        <ele>113.4</ele>
        <time>2019-06-17T17:25:39.280Z</time>
      </trkpt>
      <trkpt lat="47.95873" lon="-3.77787">
        <ele>113.9</ele>
        <time>2019-06-17T17:25:40.672Z</time>
      </trkpt>
      <trkpt lat="47.95854" lon="-3.77801">
        <ele>115</ele>
        <time>2019-06-17T17:25:43.039Z</time>
      </trkpt>
      <trkpt lat="47.95837" lon="-3.77829">
        <ele>115.8</ele>
        <time>2019-06-17T17:25:45.894Z</time>
      </trkpt>
      <trkpt lat="47.95788" lon="-3.77908">
        <ele>114.4</ele>
        <time>2019-06-17T17:25:53.873Z</time>
      </trkpt>
      <trkpt lat="47.95762" lon="-3.77946">
        <ele>114.6</ele>
        <time>2019-06-17T17:25:57.964Z</time>
      </trkpt>
      <trkpt lat="47.9574" lon="-3.77976">
        <ele>114.8</ele>
        <time>2019-06-17T17:26:01.264Z</time>
      </trkpt>
      <trkpt lat="47.95717" lon="-3.78003">
        <ele>114.7</ele>
        <time>2019-06-17T17:26:04.529Z</time>
      </trkpt>
      <trkpt lat="47.95704" lon="-3.78014">
        <ele>114.6</ele>
        <time>2019-06-17T17:26:06.174Z</time>
      </trkpt>
      <trkpt lat="47.95688" lon="-3.78019">
        <ele>114.7</ele>
        <time>2019-06-17T17:26:07.976Z</time>
      </trkpt>
      <trkpt lat="47.95675" lon="-3.78018">
        <ele>115</ele>
        <time>2019-06-17T17:26:09.457Z</time>
      </trkpt>
      <trkpt lat="47.95651" lon="-3.78012">
        <ele>115</ele>
        <time>2019-06-17T17:26:12.162Z</time>
      </trkpt>
      <trkpt lat="47.95629" lon="-3.78006">
        <ele>114.8</ele>
        <time>2019-06-17T17:26:14.599Z</time>
      </trkpt>
      <trkpt lat="47.95628" lon="-3.78007">
        <ele>114.8</ele>
        <time>2019-06-17T17:26:14.709Z</time>
      </trkpt>
      <trkpt lat="47.95629" lon="-3.78006">
        <ele>114.8</ele>
        <time>2019-06-17T17:26:14.820Z</time>
      </trkpt>
      <trkpt lat="47.95616" lon="-3.78022">
        <ele>113.7</ele>
        <time>2019-06-17T17:26:16.708Z</time>
      </trkpt>
      <trkpt lat="47.95598" lon="-3.78041">
        <ele>112.3</ele>
        <time>2019-06-17T17:26:19.228Z</time>
      </trkpt>
      <trkpt lat="47.95586" lon="-3.78047">
        <ele>111.8</ele>
        <time>2019-06-17T17:26:20.591Z</time>
      </trkpt>
      <trkpt lat="47.95572" lon="-3.78042">
        <ele>110.9</ele>
        <time>2019-06-17T17:26:22.157Z</time>
      </trkpt>
      <trkpt lat="47.95561" lon="-3.78034">
        <ele>110.5</ele>
        <time>2019-06-17T17:26:23.506Z</time>
      </trkpt>
      <trkpt lat="47.95547" lon="-3.78009">
        <ele>110.8</ele>
        <time>2019-06-17T17:26:25.953Z</time>
      </trkpt>
      <trkpt lat="47.95537" lon="-3.78003">
        <ele>110.4</ele>
        <time>2019-06-17T17:26:27.125Z</time>
      </trkpt>
      <trkpt lat="47.95533" lon="-3.78003">
        <ele>110.2</ele>
        <time>2019-06-17T17:26:27.616Z</time>
      </trkpt>
      <trkpt lat="47.95521" lon="-3.78001">
        <ele>109.4</ele>
        <time>2019-06-17T17:26:28.962Z</time>
      </trkpt>
      <trkpt lat="47.95503" lon="-3.77996">
        <ele>108.5</ele>
        <time>2019-06-17T17:26:31.010Z</time>
      </trkpt>
      <trkpt lat="47.95483" lon="-3.77993">
        <ele>106.7</ele>
        <time>2019-06-17T17:26:33.209Z</time>
      </trkpt>
      <trkpt lat="47.95463" lon="-3.77989">
        <ele>104.7</ele>
        <time>2019-06-17T17:26:35.526Z</time>
      </trkpt>
      <trkpt lat="47.95456" lon="-3.7799">
        <ele>103.9</ele>
        <time>2019-06-17T17:26:36.250Z</time>
      </trkpt>
      <trkpt lat="47.95415" lon="-3.78004">
        <ele>98.8</ele>
        <time>2019-06-17T17:26:40.999Z</time>
      </trkpt>
      <trkpt lat="47.95387" lon="-3.78016">
        <ele>98.3</ele>
        <time>2019-06-17T17:26:44.246Z</time>
      </trkpt>
      <trkpt lat="47.95372" lon="-3.78008">
        <ele>98.1</ele>
        <time>2019-06-17T17:26:46.048Z</time>
      </trkpt>
      <trkpt lat="47.9536" lon="-3.78002">
        <ele>97.7</ele>
        <time>2019-06-17T17:26:47.371Z</time>
      </trkpt>
      <trkpt lat="47.95335" lon="-3.77983">
        <ele>96.9</ele>
        <time>2019-06-17T17:26:50.548Z</time>
      </trkpt>
      <trkpt lat="47.95315" lon="-3.77969">
        <ele>98</ele>
        <time>2019-06-17T17:26:52.983Z</time>
      </trkpt>
      <trkpt lat="47.95293" lon="-3.77956">
        <ele>99.9</ele>
        <time>2019-06-17T17:26:55.649Z</time>
      </trkpt>
      <trkpt lat="47.95272" lon="-3.77952">
        <ele>101.8</ele>
        <time>2019-06-17T17:26:58.033Z</time>
      </trkpt>
      <trkpt lat="47.95241" lon="-3.7794">
        <ele>104.5</ele>
        <time>2019-06-17T17:27:01.558Z</time>
      </trkpt>
      <trkpt lat="47.95207" lon="-3.7793">
        <ele>106.1</ele>
        <time>2019-06-17T17:27:05.365Z</time>
      </trkpt>
      <trkpt lat="47.95166" lon="-3.77919">
        <ele>107.9</ele>
        <time>2019-06-17T17:27:10.011Z</time>
      </trkpt>
      <trkpt lat="47.95124" lon="-3.77907">
        <ele>108</ele>
        <time>2019-06-17T17:27:14.811Z</time>
      </trkpt>
      <trkpt lat="47.95078" lon="-3.77892">
        <ele>108</ele>
        <time>2019-06-17T17:27:19.995Z</time>
      </trkpt>
      <trkpt lat="47.95038" lon="-3.77883">
        <ele>108</ele>
        <time>2019-06-17T17:27:24.537Z</time>
      </trkpt>
      <trkpt lat="47.95036" lon="-3.77882">
        <ele>108</ele>
        <time>2019-06-17T17:27:24.809Z</time>
      </trkpt>
      <trkpt lat="47.94994" lon="-3.77865">
        <ele>108.2</ele>
        <time>2019-06-17T17:27:29.656Z</time>
      </trkpt>
      <trkpt lat="47.94979" lon="-3.77872">
        <ele>108.5</ele>
        <time>2019-06-17T17:27:31.295Z</time>
      </trkpt>
      <trkpt lat="47.9498" lon="-3.77872">
        <ele>108.5</ele>
        <time>2019-06-17T17:27:31.327Z</time>
      </trkpt>
      <trkpt lat="47.94957" lon="-3.77829">
        <ele>109</ele>
        <time>2019-06-17T17:27:35.389Z</time>
      </trkpt>
      <trkpt lat="47.9494" lon="-3.77836">
        <ele>109.4</ele>
        <time>2019-06-17T17:27:37.410Z</time>
      </trkpt>
      <trkpt lat="47.94919" lon="-3.77826">
        <ele>109.9</ele>
        <time>2019-06-17T17:27:39.860Z</time>
      </trkpt>
      <trkpt lat="47.94857" lon="-3.77786">
        <ele>111.4</ele>
        <time>2019-06-17T17:27:47.354Z</time>
      </trkpt>
      <trkpt lat="47.94809" lon="-3.77751">
        <ele>112.3</ele>
        <time>2019-06-17T17:27:53.283Z</time>
      </trkpt>
      <trkpt lat="47.94769" lon="-3.77719">
        <ele>113.4</ele>
        <time>2019-06-17T17:27:58.328Z</time>
      </trkpt>
      <trkpt lat="47.94727" lon="-3.77687">
        <ele>114.5</ele>
        <time>2019-06-17T17:28:03.566Z</time>
      </trkpt>
      <trkpt lat="47.94681" lon="-3.77653">
        <ele>115.2</ele>
        <time>2019-06-17T17:28:09.274Z</time>
      </trkpt>
      <trkpt lat="47.94642" lon="-3.77614">
        <ele>115.8</ele>
        <time>2019-06-17T17:28:14.544Z</time>
      </trkpt>
      <trkpt lat="47.94598" lon="-3.7757">
        <ele>118.1</ele>
        <time>2019-06-17T17:28:20.374Z</time>
      </trkpt>
      <trkpt lat="47.94588" lon="-3.77564">
        <ele>118.6</ele>
        <time>2019-06-17T17:28:21.651Z</time>
      </trkpt>
      <trkpt lat="47.94561" lon="-3.77552">
        <ele>119.2</ele>
        <time>2019-06-17T17:28:24.753Z</time>
      </trkpt>
      <trkpt lat="47.94525" lon="-3.77541">
        <ele>119.8</ele>
        <time>2019-06-17T17:28:28.807Z</time>
      </trkpt>
      <trkpt lat="47.94489" lon="-3.77516">
        <ele>120.6</ele>
        <time>2019-06-17T17:28:33.260Z</time>
      </trkpt>
      <trkpt lat="47.94478" lon="-3.77512">
        <ele>120.3</ele>
        <time>2019-06-17T17:28:34.488Z</time>
      </trkpt>
      <trkpt lat="47.94405" lon="-3.77475">
        <ele>117.9</ele>
        <time>2019-06-17T17:28:43.126Z</time>
      </trkpt>
      <trkpt lat="47.94368" lon="-3.77454">
        <ele>116.1</ele>
        <time>2019-06-17T17:28:47.440Z</time>
      </trkpt>
      <trkpt lat="47.94353" lon="-3.77436">
        <ele>115.3</ele>
        <time>2019-06-17T17:28:49.559Z</time>
      </trkpt>
      <trkpt lat="47.94342" lon="-3.77424">
        <ele>114.6</ele>
        <time>2019-06-17T17:28:51.138Z</time>
      </trkpt>
      <trkpt lat="47.94281" lon="-3.7739">
        <ele>116.2</ele>
        <time>2019-06-17T17:28:58.336Z</time>
      </trkpt>
      <trkpt lat="47.94249" lon="-3.77376">
        <ele>117.5</ele>
        <time>2019-06-17T17:29:02.124Z</time>
      </trkpt>
      <trkpt lat="47.94246" lon="-3.77381">
        <ele>117.2</ele>
        <time>2019-06-17T17:29:02.629Z</time>
      </trkpt>
      <trkpt lat="47.94246" lon="-3.7741">
        <ele>115.6</ele>
        <time>2019-06-17T17:29:04.767Z</time>
      </trkpt>
      <trkpt lat="47.94247" lon="-3.77464">
        <ele>112.3</ele>
        <time>2019-06-17T17:29:08.794Z</time>
      </trkpt>
      <trkpt lat="47.94246" lon="-3.77501">
        <ele>110.2</ele>
        <time>2019-06-17T17:29:11.550Z</time>
      </trkpt>
      <trkpt lat="47.94233" lon="-3.77559">
        <ele>109.1</ele>
        <time>2019-06-17T17:29:16.115Z</time>
      </trkpt>
      <trkpt lat="47.94229" lon="-3.77584">
        <ele>108.5</ele>
        <time>2019-06-17T17:29:18.045Z</time>
      </trkpt>
      <trkpt lat="47.94228" lon="-3.77626">
        <ele>107.9</ele>
        <time>2019-06-17T17:29:21.137Z</time>
      </trkpt>
      <trkpt lat="47.94223" lon="-3.77676">
        <ele>107.2</ele>
        <time>2019-06-17T17:29:24.936Z</time>
      </trkpt>
      <trkpt lat="47.94218" lon="-3.77711">
        <ele>106.9</ele>
        <time>2019-06-17T17:29:27.607Z</time>
      </trkpt>
      <trkpt lat="47.94218" lon="-3.77747">
        <ele>106.6</ele>
        <time>2019-06-17T17:29:30.311Z</time>
      </trkpt>
      <trkpt lat="47.94217" lon="-3.7779">
        <ele>105.8</ele>
        <time>2019-06-17T17:29:33.486Z</time>
      </trkpt>
      <trkpt lat="47.94225" lon="-3.7784">
        <ele>104.4</ele>
        <time>2019-06-17T17:29:37.332Z</time>
      </trkpt>
      <trkpt lat="47.94225" lon="-3.7787">
        <ele>103.8</ele>
        <time>2019-06-17T17:29:39.590Z</time>
      </trkpt>
      <trkpt lat="47.94219" lon="-3.77899">
        <ele>103.5</ele>
        <time>2019-06-17T17:29:41.775Z</time>
      </trkpt>
      <trkpt lat="47.94204" lon="-3.77946">
        <ele>104</ele>
        <time>2019-06-17T17:29:45.732Z</time>
      </trkpt>
      <trkpt lat="47.94201" lon="-3.77962">
        <ele>104.2</ele>
        <time>2019-06-17T17:29:46.913Z</time>
      </trkpt>
      <trkpt lat="47.94185" lon="-3.78001">
        <ele>104.8</ele>
        <time>2019-06-17T17:29:50.358Z</time>
      </trkpt>
      <trkpt lat="47.94169" lon="-3.78037">
        <ele>105</ele>
        <time>2019-06-17T17:29:53.552Z</time>
      </trkpt>
      <trkpt lat="47.94162" lon="-3.78054">
        <ele>105.1</ele>
        <time>2019-06-17T17:29:55.050Z</time>
      </trkpt>
      <trkpt lat="47.94158" lon="-3.78072">
        <ele>105.1</ele>
        <time>2019-06-17T17:29:56.466Z</time>
      </trkpt>
      <trkpt lat="47.94155" lon="-3.78117">
        <ele>105.6</ele>
        <time>2019-06-17T17:29:59.840Z</time>
      </trkpt>
      <trkpt lat="47.94148" lon="-3.78142">
        <ele>105.9</ele>
        <time>2019-06-17T17:30:01.844Z</time>
      </trkpt>
      <trkpt lat="47.94135" lon="-3.78177">
        <ele>106.3</ele>
        <time>2019-06-17T17:30:04.827Z</time>
      </trkpt>
      <trkpt lat="47.9412" lon="-3.78253">
        <ele>105.4</ele>
        <time>2019-06-17T17:30:10.698Z</time>
      </trkpt>
      <trkpt lat="47.94112" lon="-3.78287">
        <ele>104.7</ele>
        <time>2019-06-17T17:30:13.392Z</time>
      </trkpt>
      <trkpt lat="47.94104" lon="-3.78303">
        <ele>104.4</ele>
        <time>2019-06-17T17:30:14.943Z</time>
      </trkpt>
      <trkpt lat="47.9408" lon="-3.78325">
        <ele>104.3</ele>
        <time>2019-06-17T17:30:18.060Z</time>
      </trkpt>
      <trkpt lat="47.94074" lon="-3.78337">
        <ele>104.5</ele>
        <time>2019-06-17T17:30:19.193Z</time>
      </trkpt>
      <trkpt lat="47.94062" lon="-3.7846">
        <ele>103</ele>
        <time>2019-06-17T17:30:28.432Z</time>
      </trkpt>
      <trkpt lat="47.94057" lon="-3.78483">
        <ele>103.1</ele>
        <time>2019-06-17T17:30:30.197Z</time>
      </trkpt>
      <trkpt lat="47.9405" lon="-3.78524">
        <ele>102.7</ele>
        <time>2019-06-17T17:30:33.362Z</time>
      </trkpt>
      <trkpt lat="47.94039" lon="-3.78566">
        <ele>101.9</ele>
        <time>2019-06-17T17:30:36.736Z</time>
      </trkpt>
      <trkpt lat="47.94029" lon="-3.78605">
        <ele>101.6</ele>
        <time>2019-06-17T17:30:39.796Z</time>
      </trkpt>
      <trkpt lat="47.93999" lon="-3.78593">
        <ele>102</ele>
        <time>2019-06-17T17:30:43.237Z</time>
      </trkpt>
      <trkpt lat="47.93967" lon="-3.78582">
        <ele>102.8</ele>
        <time>2019-06-17T17:30:46.902Z</time>
      </trkpt>
      <trkpt lat="47.93938" lon="-3.78575">
        <ele>103.6</ele>
        <time>2019-06-17T17:30:50.147Z</time>
      </trkpt>
      <trkpt lat="47.93898" lon="-3.78574">
        <ele>104.1</ele>
        <time>2019-06-17T17:30:54.641Z</time>
      </trkpt>
      <trkpt lat="47.93849" lon="-3.78583">
        <ele>104</ele>
        <time>2019-06-17T17:31:00.179Z</time>
      </trkpt>
      <trkpt lat="47.93818" lon="-3.78591">
        <ele>104</ele>
        <time>2019-06-17T17:31:03.660Z</time>
      </trkpt>
      <trkpt lat="47.93777" lon="-3.786">
        <ele>104.3</ele>
        <time>2019-06-17T17:31:08.206Z</time>
      </trkpt>
      <trkpt lat="47.93761" lon="-3.78604">
        <ele>104.6</ele>
        <time>2019-06-17T17:31:09.994Z</time>
      </trkpt>
      <trkpt lat="47.93707" lon="-3.78622">
        <ele>107.2</ele>
        <time>2019-06-17T17:31:16.160Z</time>
      </trkpt>
      <trkpt lat="47.93678" lon="-3.78632">
        <ele>108.7</ele>
        <time>2019-06-17T17:31:19.554Z</time>
      </trkpt>
      <trkpt lat="47.93637" lon="-3.78639">
        <ele>110.2</ele>
        <time>2019-06-17T17:31:24.129Z</time>
      </trkpt>
      <trkpt lat="47.93596" lon="-3.78645">
        <ele>111.4</ele>
        <time>2019-06-17T17:31:28.643Z</time>
      </trkpt>
      <trkpt lat="47.93537" lon="-3.78641">
        <ele>111.9</ele>
        <time>2019-06-17T17:31:35.199Z</time>
      </trkpt>
      <trkpt lat="47.93491" lon="-3.7864">
        <ele>112.2</ele>
        <time>2019-06-17T17:31:40.316Z</time>
      </trkpt>
      <trkpt lat="47.93473" lon="-3.78641">
        <ele>112.8</ele>
        <time>2019-06-17T17:31:42.418Z</time>
      </trkpt>
      <trkpt lat="47.93459" lon="-3.78644">
        <ele>113.2</ele>
        <time>2019-06-17T17:31:43.908Z</time>
      </trkpt>
      <trkpt lat="47.93434" lon="-3.7865">
        <ele>114.1</ele>
        <time>2019-06-17T17:31:46.783Z</time>
      </trkpt>
      <trkpt lat="47.93434" lon="-3.78703">
        <ele>115.2</ele>
        <time>2019-06-17T17:31:50.689Z</time>
      </trkpt>
      <trkpt lat="47.93436" lon="-3.7878">
        <ele>116.3</ele>
        <time>2019-06-17T17:31:56.496Z</time>
      </trkpt>
      <trkpt lat="47.93439" lon="-3.78864">
        <ele>116.4</ele>
        <time>2019-06-17T17:32:02.757Z</time>
      </trkpt>
      <trkpt lat="47.93441" lon="-3.78959">
        <ele>117.8</ele>
        <time>2019-06-17T17:32:09.824Z</time>
      </trkpt>
      <trkpt lat="47.93452" lon="-3.78985">
        <ele>116.9</ele>
        <time>2019-06-17T17:32:12.148Z</time>
      </trkpt>
      <trkpt lat="47.93463" lon="-3.7903">
        <ele>115.6</ele>
        <time>2019-06-17T17:32:15.650Z</time>
      </trkpt>
      <trkpt lat="47.93466" lon="-3.79062">
        <ele>114.7</ele>
        <time>2019-06-17T17:32:18.119Z</time>
      </trkpt>
      <trkpt lat="47.93466" lon="-3.79086">
        <ele>114.4</ele>
        <time>2019-06-17T17:32:19.864Z</time>
      </trkpt>
      <trkpt lat="47.93455" lon="-3.79128">
        <ele>113.4</ele>
        <time>2019-06-17T17:32:23.258Z</time>
      </trkpt>
      <trkpt lat="47.93451" lon="-3.79156">
        <ele>112.3</ele>
        <time>2019-06-17T17:32:25.355Z</time>
      </trkpt>
      <trkpt lat="47.93449" lon="-3.79182">
        <ele>111.6</ele>
        <time>2019-06-17T17:32:27.325Z</time>
      </trkpt>
      <trkpt lat="47.93454" lon="-3.79222">
        <ele>110.7</ele>
        <time>2019-06-17T17:32:30.321Z</time>
      </trkpt>
      <trkpt lat="47.93461" lon="-3.79346">
        <ele>109.5</ele>
        <time>2019-06-17T17:32:39.584Z</time>
      </trkpt>
      <trkpt lat="47.93459" lon="-3.79372">
        <ele>109</ele>
        <time>2019-06-17T17:32:41.509Z</time>
      </trkpt>
      <trkpt lat="47.93451" lon="-3.79393">
        <ele>109.1</ele>
        <time>2019-06-17T17:32:43.323Z</time>
      </trkpt>
      <trkpt lat="47.93458" lon="-3.79481">
        <ele>103.7</ele>
        <time>2019-06-17T17:32:49.944Z</time>
      </trkpt>
      <trkpt lat="47.93461" lon="-3.79553">
        <ele>101.4</ele>
        <time>2019-06-17T17:32:55.358Z</time>
      </trkpt>
      <trkpt lat="47.93458" lon="-3.79622">
        <ele>101.7</ele>
        <time>2019-06-17T17:33:00.458Z</time>
      </trkpt>
      <trkpt lat="47.9345" lon="-3.79672">
        <ele>103.2</ele>
        <time>2019-06-17T17:33:04.361Z</time>
      </trkpt>
      <trkpt lat="47.93446" lon="-3.79684">
        <ele>103.6</ele>
        <time>2019-06-17T17:33:05.311Z</time>
      </trkpt>
      <trkpt lat="47.93434" lon="-3.79676">
        <ele>104.5</ele>
        <time>2019-06-17T17:33:06.693Z</time>
      </trkpt>
      <trkpt lat="47.9339" lon="-3.79645">
        <ele>106.3</ele>
        <time>2019-06-17T17:33:12.167Z</time>
      </trkpt>
      <trkpt lat="47.93357" lon="-3.79622">
        <ele>107.1</ele>
        <time>2019-06-17T17:33:16.180Z</time>
      </trkpt>
      <trkpt lat="47.93328" lon="-3.79605">
        <ele>108.1</ele>
        <time>2019-06-17T17:33:19.665Z</time>
      </trkpt>
      <trkpt lat="47.93265" lon="-3.79597">
        <ele>109.2</ele>
        <time>2019-06-17T17:33:26.719Z</time>
      </trkpt>
      <trkpt lat="47.93173" lon="-3.79588">
        <ele>106.8</ele>
        <time>2019-06-17T17:33:36.920Z</time>
      </trkpt>
      <trkpt lat="47.93108" lon="-3.79582">
        <ele>107</ele>
        <time>2019-06-17T17:33:44.193Z</time>
      </trkpt>
      <trkpt lat="47.93059" lon="-3.7957">
        <ele>108.8</ele>
        <time>2019-06-17T17:33:49.708Z</time>
      </trkpt>
      <trkpt lat="47.92989" lon="-3.79537">
        <ele>112</ele>
        <time>2019-06-17T17:33:57.894Z</time>
      </trkpt>
      <trkpt lat="47.92968" lon="-3.79539">
        <ele>112</ele>
        <time>2019-06-17T17:34:00.189Z</time>
      </trkpt>
      <trkpt lat="47.92938" lon="-3.7954">
        <ele>112</ele>
        <time>2019-06-17T17:34:03.492Z</time>
      </trkpt>
      <trkpt lat="47.92909" lon="-3.79541">
        <ele>111.7</ele>
        <time>2019-06-17T17:34:06.731Z</time>
      </trkpt>
      <trkpt lat="47.92917" lon="-3.79553">
        <ele>112.3</ele>
        <time>2019-06-17T17:34:07.952Z</time>
        <extensions>
          <visugpx:TrkExtension xmlns:visugpx="https://www.visugpx.com/editgpx/">
            <visugpx:node>1</visugpx:node>
            </visugpx:TrkExtension>
        </extensions>
      </trkpt>
      <trkpt lat="47.92905" lon="-3.79532">
        <ele>111.3</ele>
        <time>2019-06-14T14:46:22.135Z</time>
        <extensions>
          <visugpx:TrkExtension xmlns:visugpx="https://www.visugpx.com/editgpx/">
            <visugpx:node>2</visugpx:node>
            </visugpx:TrkExtension>
        </extensions>
      </trkpt>
      <trkpt lat="47.92895" lon="-3.79491">
        <ele>110.3</ele>
        <time>2019-06-14T14:46:18.893Z</time>
      </trkpt>
      <trkpt lat="47.92901" lon="-3.79401">
        <ele>111.6</ele>
        <time>2019-06-14T14:46:12.184Z</time>
      </trkpt>
      <trkpt lat="47.92856" lon="-3.79376">
        <ele>110.3</ele>
        <time>2019-06-14T14:46:06.844Z</time>
      </trkpt>
      <trkpt lat="47.92815" lon="-3.7936">
        <ele>109.2</ele>
        <time>2019-06-14T14:46:02.146Z</time>
      </trkpt>
      <trkpt lat="47.9279" lon="-3.79346">
        <ele>108.7</ele>
        <time>2019-06-14T14:45:59.158Z</time>
      </trkpt>
      <trkpt lat="47.92759" lon="-3.79325">
        <ele>108.1</ele>
        <time>2019-06-14T14:45:55.412Z</time>
      </trkpt>
      <trkpt lat="47.92742" lon="-3.79313">
        <ele>107.5</ele>
        <time>2019-06-14T14:45:53.340Z</time>
      </trkpt>
      <trkpt lat="47.92727" lon="-3.79296">
        <ele>107</ele>
        <time>2019-06-14T14:45:51.206Z</time>
      </trkpt>
      <trkpt lat="47.92696" lon="-3.79259">
        <ele>105.6</ele>
        <time>2019-06-14T14:45:46.806Z</time>
      </trkpt>
      <trkpt lat="47.92678" lon="-3.79237">
        <ele>104.7</ele>
        <time>2019-06-14T14:45:44.201Z</time>
      </trkpt>
      <trkpt lat="47.92653" lon="-3.79222">
        <ele>104.6</ele>
        <time>2019-06-14T14:45:41.208Z</time>
      </trkpt>
      <trkpt lat="47.92626" lon="-3.7921">
        <ele>105.3</ele>
        <time>2019-06-14T14:45:38.015Z</time>
      </trkpt>
      <trkpt lat="47.92604" lon="-3.79207">
        <ele>106.1</ele>
        <time>2019-06-14T14:45:35.658Z</time>
      </trkpt>
      <trkpt lat="47.9257" lon="-3.79216">
        <ele>107.6</ele>
        <time>2019-06-14T14:45:31.812Z</time>
      </trkpt>
      <trkpt lat="47.92508" lon="-3.7921">
        <ele>108.4</ele>
        <time>2019-06-14T14:45:24.868Z</time>
      </trkpt>
      <trkpt lat="47.92471" lon="-3.79202">
        <ele>108.1</ele>
        <time>2019-06-14T14:45:20.726Z</time>
      </trkpt>
      <trkpt lat="47.92414" lon="-3.79201">
        <ele>107.9</ele>
        <time>2019-06-14T14:45:14.366Z</time>
      </trkpt>
      <trkpt lat="47.92341" lon="-3.79198">
        <ele>110.5</ele>
        <time>2019-06-14T14:45:06.285Z</time>
      </trkpt>
      <trkpt lat="47.92329" lon="-3.79201">
        <ele>110.8</ele>
        <time>2019-06-14T14:45:04.832Z</time>
      </trkpt>
      <trkpt lat="47.9232" lon="-3.79205">
        <ele>110.7</ele>
        <time>2019-06-14T14:45:03.873Z</time>
      </trkpt>
      <trkpt lat="47.92292" lon="-3.79203">
        <ele>110.1</ele>
        <time>2019-06-14T14:45:00.766Z</time>
      </trkpt>
      <trkpt lat="47.9224" lon="-3.79183">
        <ele>108.4</ele>
        <time>2019-06-14T14:44:54.740Z</time>
      </trkpt>
      <trkpt lat="47.92196" lon="-3.79164">
        <ele>107.2</ele>
        <time>2019-06-14T14:44:49.619Z</time>
      </trkpt>
      <trkpt lat="47.92172" lon="-3.79151">
        <ele>106.3</ele>
        <time>2019-06-14T14:44:46.772Z</time>
      </trkpt>
      <trkpt lat="47.92144" lon="-3.7914">
        <ele>105.4</ele>
        <time>2019-06-14T14:44:43.550Z</time>
      </trkpt>
      <trkpt lat="47.92105" lon="-3.79117">
        <ele>104.5</ele>
        <time>2019-06-14T14:44:38.905Z</time>
      </trkpt>
      <trkpt lat="47.92105" lon="-3.79117">
        <ele>104.5</ele>
        <time>2019-06-14T14:44:38.869Z</time>
      </trkpt>
      <trkpt lat="47.92077" lon="-3.79107">
        <ele>104</ele>
        <time>2019-06-14T14:44:35.724Z</time>
      </trkpt>
      <trkpt lat="47.92051" lon="-3.79096">
        <ele>102.6</ele>
        <time>2019-06-14T14:44:32.692Z</time>
      </trkpt>
      <trkpt lat="47.92021" lon="-3.79086">
        <ele>101</ele>
        <time>2019-06-14T14:44:29.250Z</time>
      </trkpt>
      <trkpt lat="47.91988" lon="-3.79074">
        <ele>99.4</ele>
        <time>2019-06-14T14:44:25.454Z</time>
      </trkpt>
      <trkpt lat="47.91949" lon="-3.7907">
        <ele>97.5</ele>
        <time>2019-06-14T14:44:21.094Z</time>
      </trkpt>
      <trkpt lat="47.91923" lon="-3.79073">
        <ele>96.3</ele>
        <time>2019-06-14T14:44:18.204Z</time>
      </trkpt>
      <trkpt lat="47.91919" lon="-3.79073">
        <ele>96.1</ele>
        <time>2019-06-14T14:44:17.703Z</time>
      </trkpt>
      <trkpt lat="47.91917" lon="-3.79073">
        <ele>96</ele>
        <time>2019-06-14T14:44:17.507Z</time>
      </trkpt>
      <trkpt lat="47.919" lon="-3.79062">
        <ele>95.1</ele>
        <time>2019-06-14T14:44:15.486Z</time>
      </trkpt>
      <trkpt lat="47.91879" lon="-3.79053">
        <ele>93.9</ele>
        <time>2019-06-14T14:44:13.029Z</time>
      </trkpt>
      <trkpt lat="47.91854" lon="-3.79048">
        <ele>92.5</ele>
        <time>2019-06-14T14:44:10.223Z</time>
      </trkpt>
      <trkpt lat="47.91829" lon="-3.79032">
        <ele>91.3</ele>
        <time>2019-06-14T14:44:07.196Z</time>
      </trkpt>
      <trkpt lat="47.9181" lon="-3.79017">
        <ele>90</ele>
        <time>2019-06-14T14:44:04.787Z</time>
      </trkpt>
      <trkpt lat="47.91792" lon="-3.79014">
        <ele>88.7</ele>
        <time>2019-06-14T14:44:02.763Z</time>
      </trkpt>
      <trkpt lat="47.91772" lon="-3.79018">
        <ele>87.1</ele>
        <time>2019-06-14T14:44:00.550Z</time>
      </trkpt>
      <trkpt lat="47.91766" lon="-3.79029">
        <ele>86.2</ele>
        <time>2019-06-14T14:43:59.476Z</time>
      </trkpt>
      <trkpt lat="47.91758" lon="-3.79041">
        <ele>85.2</ele>
        <time>2019-06-14T14:43:58.185Z</time>
      </trkpt>
      <trkpt lat="47.9175" lon="-3.79049">
        <ele>84.2</ele>
        <time>2019-06-14T14:43:57.117Z</time>
      </trkpt>
      <trkpt lat="47.91738" lon="-3.79051">
        <ele>84.2</ele>
        <time>2019-06-14T14:43:55.814Z</time>
      </trkpt>
      <trkpt lat="47.9173" lon="-3.79047">
        <ele>84.3</ele>
        <time>2019-06-14T14:43:54.835Z</time>
      </trkpt>
      <trkpt lat="47.91713" lon="-3.79022">
        <ele>85</ele>
        <time>2019-06-14T14:43:52.160Z</time>
      </trkpt>
      <trkpt lat="47.91695" lon="-3.78998">
        <ele>85.4</ele>
        <time>2019-06-14T14:43:49.541Z</time>
      </trkpt>
      <trkpt lat="47.91659" lon="-3.78974">
        <ele>85.3</ele>
        <time>2019-06-14T14:43:45.166Z</time>
      </trkpt>
      <trkpt lat="47.91633" lon="-3.7896">
        <ele>85.5</ele>
        <time>2019-06-14T14:43:42.099Z</time>
      </trkpt>
      <trkpt lat="47.91631" lon="-3.78959">
        <ele>85.5</ele>
        <time>2019-06-14T14:43:41.862Z</time>
      </trkpt>
      <trkpt lat="47.91596" lon="-3.78941">
        <ele>85.7</ele>
        <time>2019-06-14T14:43:37.724Z</time>
      </trkpt>
      <trkpt lat="47.9157" lon="-3.78933">
        <ele>85.4</ele>
        <time>2019-06-14T14:43:34.738Z</time>
      </trkpt>
      <trkpt lat="47.91541" lon="-3.78933">
        <ele>84.7</ele>
        <time>2019-06-14T14:43:31.535Z</time>
      </trkpt>
      <trkpt lat="47.91524" lon="-3.78928">
        <ele>84.3</ele>
        <time>2019-06-14T14:43:29.565Z</time>
      </trkpt>
      <trkpt lat="47.91515" lon="-3.7901">
        <ele>82.7</ele>
        <time>2019-06-14T14:43:23.313Z</time>
      </trkpt>
      <trkpt lat="47.91511" lon="-3.79042">
        <ele>83</ele>
        <time>2019-06-14T14:43:20.926Z</time>
      </trkpt>
      <trkpt lat="47.91494" lon="-3.79112">
        <ele>82.6</ele>
        <time>2019-06-14T14:43:15.362Z</time>
      </trkpt>
      <trkpt lat="47.9148" lon="-3.79136">
        <ele>81.5</ele>
        <time>2019-06-14T14:43:12.973Z</time>
      </trkpt>
      <trkpt lat="47.91462" lon="-3.79159">
        <ele>79.6</ele>
        <time>2019-06-14T14:43:10.408Z</time>
      </trkpt>
      <trkpt lat="47.91438" lon="-3.79185">
        <ele>75.7</ele>
        <time>2019-06-14T14:43:07.030Z</time>
      </trkpt>
      <trkpt lat="47.91419" lon="-3.79193">
        <ele>73</ele>
        <time>2019-06-14T14:43:04.876Z</time>
      </trkpt>
      <trkpt lat="47.91409" lon="-3.79197">
        <ele>72</ele>
        <time>2019-06-14T14:43:03.636Z</time>
      </trkpt>
      <trkpt lat="47.91387" lon="-3.7919">
        <ele>71.5</ele>
        <time>2019-06-14T14:43:01.189Z</time>
      </trkpt>
      <trkpt lat="47.91361" lon="-3.79179">
        <ele>71.2</ele>
        <time>2019-06-14T14:42:58.203Z</time>
      </trkpt>
      <trkpt lat="47.91324" lon="-3.79164">
        <ele>70.5</ele>
        <time>2019-06-14T14:42:53.925Z</time>
      </trkpt>
      <trkpt lat="47.91308" lon="-3.79163">
        <ele>69.3</ele>
        <time>2019-06-14T14:42:52.118Z</time>
      </trkpt>
      <trkpt lat="47.91283" lon="-3.7917">
        <ele>66.4</ele>
        <time>2019-06-14T14:42:49.243Z</time>
      </trkpt>
      <trkpt lat="47.91247" lon="-3.7918">
        <ele>62.4</ele>
        <time>2019-06-14T14:42:45.220Z</time>
      </trkpt>
      <trkpt lat="47.91215" lon="-3.7918">
        <ele>59.7</ele>
        <time>2019-06-14T14:42:41.584Z</time>
      </trkpt>
      <trkpt lat="47.91202" lon="-3.79177">
        <ele>59.1</ele>
        <time>2019-06-14T14:42:40.169Z</time>
      </trkpt>
      <trkpt lat="47.91181" lon="-3.79156">
        <ele>59.6</ele>
        <time>2019-06-14T14:42:37.369Z</time>
      </trkpt>
      <trkpt lat="47.91155" lon="-3.79123">
        <ele>61.8</ele>
        <time>2019-06-14T14:42:33.511Z</time>
      </trkpt>
      <trkpt lat="47.91143" lon="-3.79101">
        <ele>63.3</ele>
        <time>2019-06-14T14:42:31.438Z</time>
      </trkpt>
      <trkpt lat="47.91138" lon="-3.79076">
        <ele>65.3</ele>
        <time>2019-06-14T14:42:29.511Z</time>
      </trkpt>
      <trkpt lat="47.91139" lon="-3.7903">
        <ele>68.3</ele>
        <time>2019-06-14T14:42:26.016Z</time>
      </trkpt>
      <trkpt lat="47.9114" lon="-3.79009">
        <ele>69.6</ele>
        <time>2019-06-14T14:42:24.438Z</time>
      </trkpt>
      <trkpt lat="47.91163" lon="-3.78938">
        <ele>75.1</ele>
        <time>2019-06-14T14:42:18.521Z</time>
      </trkpt>
      <trkpt lat="47.91177" lon="-3.78903">
        <ele>76.5</ele>
        <time>2019-06-14T14:42:15.462Z</time>
      </trkpt>
      <trkpt lat="47.91165" lon="-3.78892">
        <ele>75.6</ele>
        <time>2019-06-14T14:42:13.904Z</time>
      </trkpt>
      <trkpt lat="47.91146" lon="-3.78868">
        <ele>73.4</ele>
        <time>2019-06-14T14:42:11.140Z</time>
      </trkpt>
      <trkpt lat="47.91119" lon="-3.78823">
        <ele>71.2</ele>
        <time>2019-06-14T14:42:06.597Z</time>
      </trkpt>
      <trkpt lat="47.91087" lon="-3.78752">
        <ele>70.2</ele>
        <time>2019-06-14T14:42:00.213Z</time>
      </trkpt>
      <trkpt lat="47.91073" lon="-3.78735">
        <ele>69.1</ele>
        <time>2019-06-14T14:41:58.189Z</time>
      </trkpt>
      <trkpt lat="47.91058" lon="-3.78725">
        <ele>67.9</ele>
        <time>2019-06-14T14:41:56.342Z</time>
      </trkpt>
      <trkpt lat="47.91028" lon="-3.78709">
        <ele>65.8</ele>
        <time>2019-06-14T14:41:52.789Z</time>
      </trkpt>
      <trkpt lat="47.9102" lon="-3.78703">
        <ele>65.4</ele>
        <time>2019-06-14T14:41:51.758Z</time>
      </trkpt>
      <trkpt lat="47.91004" lon="-3.78683">
        <ele>65.3</ele>
        <time>2019-06-14T14:41:49.452Z</time>
      </trkpt>
      <trkpt lat="47.90975" lon="-3.78641">
        <ele>63</ele>
        <time>2019-06-14T14:41:44.960Z</time>
      </trkpt>
      <trkpt lat="47.90959" lon="-3.78627">
        <ele>61.5</ele>
        <time>2019-06-14T14:41:42.903Z</time>
      </trkpt>
      <trkpt lat="47.90935" lon="-3.78607">
        <ele>59.7</ele>
        <time>2019-06-14T14:41:39.813Z</time>
      </trkpt>
      <trkpt lat="47.90912" lon="-3.78593">
        <ele>58.4</ele>
        <time>2019-06-14T14:41:37.068Z</time>
      </trkpt>
      <trkpt lat="47.90892" lon="-3.78583">
        <ele>57.6</ele>
        <time>2019-06-14T14:41:34.798Z</time>
      </trkpt>
      <trkpt lat="47.90867" lon="-3.78563">
        <ele>56.1</ele>
        <time>2019-06-14T14:41:31.603Z</time>
      </trkpt>
      <trkpt lat="47.90859" lon="-3.78554">
        <ele>55.7</ele>
        <time>2019-06-14T14:41:30.457Z</time>
      </trkpt>
      <trkpt lat="47.90856" lon="-3.78533">
        <ele>55.5</ele>
        <time>2019-06-14T14:41:28.856Z</time>
      </trkpt>
      <trkpt lat="47.9084" lon="-3.78537">
        <ele>54.4</ele>
        <time>2019-06-14T14:41:27.053Z</time>
      </trkpt>
      <trkpt lat="47.90797" lon="-3.78556">
        <ele>51.2</ele>
        <time>2019-06-14T14:41:22.049Z</time>
      </trkpt>
      <trkpt lat="47.90783" lon="-3.78562">
        <ele>50.1</ele>
        <time>2019-06-14T14:41:20.420Z</time>
      </trkpt>
      <trkpt lat="47.90775" lon="-3.78573">
        <ele>49.3</ele>
        <time>2019-06-14T14:41:19.248Z</time>
      </trkpt>
      <trkpt lat="47.90769" lon="-3.78589">
        <ele>48.4</ele>
        <time>2019-06-14T14:41:17.912Z</time>
      </trkpt>
      <trkpt lat="47.90754" lon="-3.78603">
        <ele>46.4</ele>
        <time>2019-06-14T14:41:15.932Z</time>
      </trkpt>
      <trkpt lat="47.90724" lon="-3.78617">
        <ele>44.7</ele>
        <time>2019-06-14T14:41:12.379Z</time>
      </trkpt>
      <trkpt lat="47.90705" lon="-3.7863">
        <ele>43.7</ele>
        <time>2019-06-14T14:41:10.091Z</time>
      </trkpt>
      <trkpt lat="47.90682" lon="-3.78658">
        <ele>41.7</ele>
        <time>2019-06-14T14:41:06.762Z</time>
      </trkpt>
      <trkpt lat="47.90656" lon="-3.78685">
        <ele>40.9</ele>
        <time>2019-06-14T14:41:03.223Z</time>
      </trkpt>
      <trkpt lat="47.90618" lon="-3.78708">
        <ele>41.4</ele>
        <time>2019-06-14T14:40:58.686Z</time>
      </trkpt>
      <trkpt lat="47.90591" lon="-3.78751">
        <ele>41.9</ele>
        <time>2019-06-14T14:40:54.270Z</time>
      </trkpt>
      <trkpt lat="47.90576" lon="-3.78771">
        <ele>43.2</ele>
        <time>2019-06-14T14:40:52.009Z</time>
      </trkpt>
      <trkpt lat="47.90569" lon="-3.78788">
        <ele>44.2</ele>
        <time>2019-06-14T14:40:50.508Z</time>
      </trkpt>
      <trkpt lat="47.90568" lon="-3.78825">
        <ele>46</ele>
        <time>2019-06-14T14:40:47.750Z</time>
      </trkpt>
      <trkpt lat="47.90565" lon="-3.78874">
        <ele>50.7</ele>
        <time>2019-06-14T14:40:44.088Z</time>
      </trkpt>
      <trkpt lat="47.90564" lon="-3.78922">
        <ele>55.6</ele>
        <time>2019-06-14T14:40:40.480Z</time>
      </trkpt>
      <trkpt lat="47.90563" lon="-3.78997">
        <ele>60.8</ele>
        <time>2019-06-14T14:40:34.842Z</time>
      </trkpt>
      <trkpt lat="47.9056" lon="-3.79072">
        <ele>64.2</ele>
        <time>2019-06-14T14:40:29.247Z</time>
      </trkpt>
      <trkpt lat="47.9055" lon="-3.79166">
        <ele>67</ele>
        <time>2019-06-14T14:40:22.100Z</time>
      </trkpt>
      <trkpt lat="47.90541" lon="-3.7923">
        <ele>68.9</ele>
        <time>2019-06-14T14:40:17.252Z</time>
      </trkpt>
      <trkpt lat="47.90528" lon="-3.79308">
        <ele>69.8</ele>
        <time>2019-06-14T14:40:11.271Z</time>
      </trkpt>
      <trkpt lat="47.90522" lon="-3.79353">
        <ele>70</ele>
        <time>2019-06-14T14:40:07.815Z</time>
      </trkpt>
      <trkpt lat="47.9052" lon="-3.79419">
        <ele>70</ele>
        <time>2019-06-14T14:40:02.935Z</time>
      </trkpt>
      <trkpt lat="47.90521" lon="-3.79515">
        <ele>71.4</ele>
        <time>2019-06-14T14:39:55.791Z</time>
      </trkpt>
      <trkpt lat="47.90503" lon="-3.79671">
        <ele>70.1</ele>
        <time>2019-06-14T14:39:43.974Z</time>
      </trkpt>
      <trkpt lat="47.90483" lon="-3.79828">
        <ele>69.2</ele>
        <time>2019-06-14T14:39:32.006Z</time>
      </trkpt>
      <trkpt lat="47.90478" lon="-3.7986">
        <ele>69.6</ele>
        <time>2019-06-14T14:39:29.610Z</time>
      </trkpt>
      <trkpt lat="47.90464" lon="-3.79932">
        <ele>70.7</ele>
        <time>2019-06-14T14:39:24.009Z</time>
      </trkpt>
      <trkpt lat="47.90454" lon="-3.79963">
        <ele>71.1</ele>
        <time>2019-06-14T14:39:21.415Z</time>
      </trkpt>
      <trkpt lat="47.90435" lon="-3.8006">
        <ele>74.6</ele>
        <time>2019-06-14T14:39:13.876Z</time>
      </trkpt>
      <trkpt lat="47.90411" lon="-3.80166">
        <ele>78.1</ele>
        <time>2019-06-14T14:39:05.541Z</time>
      </trkpt>
      <trkpt lat="47.90397" lon="-3.8023">
        <ele>79.2</ele>
        <time>2019-06-14T14:39:00.549Z</time>
      </trkpt>
      <trkpt lat="47.90389" lon="-3.80265">
        <ele>79.9</ele>
        <time>2019-06-14T14:38:57.727Z</time>
      </trkpt>
      <trkpt lat="47.90374" lon="-3.80316">
        <ele>80.8</ele>
        <time>2019-06-14T14:38:53.599Z</time>
      </trkpt>
      <trkpt lat="47.90372" lon="-3.80341">
        <ele>81.1</ele>
        <time>2019-06-14T14:38:51.771Z</time>
      </trkpt>
      <trkpt lat="47.90366" lon="-3.8038">
        <ele>81.6</ele>
        <time>2019-06-14T14:38:48.769Z</time>
      </trkpt>
      <trkpt lat="47.90337" lon="-3.8047">
        <ele>83.6</ele>
        <time>2019-06-14T14:38:41.351Z</time>
      </trkpt>
      <trkpt lat="47.9031" lon="-3.80559">
        <ele>86.3</ele>
        <time>2019-06-14T14:38:33.988Z</time>
      </trkpt>
      <trkpt lat="47.903" lon="-3.80597">
        <ele>87.1</ele>
        <time>2019-06-14T14:38:30.998Z</time>
      </trkpt>
      <trkpt lat="47.90266" lon="-3.80757">
        <ele>89.2</ele>
        <time>2019-06-14T14:38:18.476Z</time>
      </trkpt>
      <trkpt lat="47.90258" lon="-3.80849">
        <ele>90.7</ele>
        <time>2019-06-14T14:38:11.546Z</time>
      </trkpt>
      <trkpt lat="47.90257" lon="-3.80873">
        <ele>90.5</ele>
        <time>2019-06-14T14:38:09.751Z</time>
      </trkpt>
      <trkpt lat="47.90242" lon="-3.81112">
        <ele>85.6</ele>
        <time>2019-06-14T14:37:51.862Z</time>
      </trkpt>
      <trkpt lat="47.90238" lon="-3.81171">
        <ele>84.5</ele>
        <time>2019-06-14T14:37:47.474Z</time>
      </trkpt>
      <trkpt lat="47.90233" lon="-3.8119">
        <ele>84.5</ele>
        <time>2019-06-14T14:37:45.872Z</time>
      </trkpt>
      <trkpt lat="47.90161" lon="-3.81336">
        <ele>89.1</ele>
        <time>2019-06-14T14:37:32.387Z</time>
      </trkpt>
      <trkpt lat="47.90121" lon="-3.81418">
        <ele>89.1</ele>
        <time>2019-06-14T14:37:24.848Z</time>
      </trkpt>
      <trkpt lat="47.90106" lon="-3.81452">
        <ele>90</ele>
        <time>2019-06-14T14:37:21.813Z</time>
      </trkpt>
      <trkpt lat="47.901" lon="-3.81469">
        <ele>90.3</ele>
        <time>2019-06-14T14:37:20.379Z</time>
      </trkpt>
      <trkpt lat="47.90094" lon="-3.81492">
        <ele>90.8</ele>
        <time>2019-06-14T14:37:18.541Z</time>
      </trkpt>
      <trkpt lat="47.90074" lon="-3.8156">
        <ele>91</ele>
        <time>2019-06-14T14:37:13.032Z</time>
      </trkpt>
      <trkpt lat="47.90065" lon="-3.81605">
        <ele>90.9</ele>
        <time>2019-06-14T14:37:09.515Z</time>
      </trkpt>
      <trkpt lat="47.90054" lon="-3.81639">
        <ele>90.8</ele>
        <time>2019-06-14T14:37:06.698Z</time>
      </trkpt>
      <trkpt lat="47.9003" lon="-3.81686">
        <ele>89.7</ele>
        <time>2019-06-14T14:37:02.275Z</time>
      </trkpt>
      <trkpt lat="47.89992" lon="-3.81765">
        <ele>86.5</ele>
        <time>2019-06-14T14:36:55.028Z</time>
      </trkpt>
      <trkpt lat="47.89981" lon="-3.81778">
        <ele>86</ele>
        <time>2019-06-14T14:36:53.435Z</time>
      </trkpt>
      <trkpt lat="47.89931" lon="-3.81784">
        <ele>84.1</ele>
        <time>2019-06-14T14:36:47.873Z</time>
      </trkpt>
      <trkpt lat="47.89914" lon="-3.81793">
        <ele>83.3</ele>
        <time>2019-06-14T14:36:45.880Z</time>
      </trkpt>
      <trkpt lat="47.89914" lon="-3.81885">
        <ele>79.1</ele>
        <time>2019-06-14T14:36:39.067Z</time>
      </trkpt>
      <trkpt lat="47.89917" lon="-3.81982">
        <ele>74.6</ele>
        <time>2019-06-14T14:36:31.772Z</time>
      </trkpt>
      <trkpt lat="47.89915" lon="-3.82021">
        <ele>73.7</ele>
        <time>2019-06-14T14:36:28.897Z</time>
      </trkpt>
      <trkpt lat="47.89906" lon="-3.82053">
        <ele>73</ele>
        <time>2019-06-14T14:36:26.302Z</time>
      </trkpt>
      <trkpt lat="47.89875" lon="-3.82094">
        <ele>71.8</ele>
        <time>2019-06-14T14:36:21.698Z</time>
      </trkpt>
      <trkpt lat="47.89873" lon="-3.82098">
        <ele>71.7</ele>
        <time>2019-06-14T14:36:21.245Z</time>
      </trkpt>
      <trkpt lat="47.89861" lon="-3.82119">
        <ele>71.2</ele>
        <time>2019-06-14T14:36:19.271Z</time>
      </trkpt>
      <trkpt lat="47.8985" lon="-3.82118">
        <ele>71.1</ele>
        <time>2019-06-14T14:36:17.992Z</time>
      </trkpt>
      <trkpt lat="47.89842" lon="-3.82131">
        <ele>71</ele>
        <time>2019-06-14T14:36:16.738Z</time>
      </trkpt>
      <trkpt lat="47.89835" lon="-3.82159">
        <ele>71</ele>
        <time>2019-06-14T14:36:14.457Z</time>
      </trkpt>
      <trkpt lat="47.89839" lon="-3.82204">
        <ele>73.2</ele>
        <time>2019-06-14T14:36:11.060Z</time>
      </trkpt>
      <trkpt lat="47.89838" lon="-3.8223">
        <ele>74.8</ele>
        <time>2019-06-14T14:36:09.135Z</time>
      </trkpt>
      <trkpt lat="47.89829" lon="-3.82279">
        <ele>77.4</ele>
        <time>2019-06-14T14:36:05.296Z</time>
      </trkpt>
      <trkpt lat="47.89823" lon="-3.82316">
        <ele>78.8</ele>
        <time>2019-06-14T14:36:02.491Z</time>
      </trkpt>
      <trkpt lat="47.89805" lon="-3.82369">
        <ele>79.2</ele>
        <time>2019-06-14T14:35:58.076Z</time>
      </trkpt>
      <trkpt lat="47.89802" lon="-3.82392">
        <ele>79.4</ele>
        <time>2019-06-14T14:35:56.344Z</time>
      </trkpt>
      <trkpt lat="47.89789" lon="-3.82422">
        <ele>78.8</ele>
        <time>2019-06-14T14:35:53.660Z</time>
      </trkpt>
      <trkpt lat="47.89787" lon="-3.82473">
        <ele>78.6</ele>
        <time>2019-06-14T14:35:49.817Z</time>
      </trkpt>
      <trkpt lat="47.89783" lon="-3.82486">
        <ele>78.4</ele>
        <time>2019-06-14T14:35:48.783Z</time>
      </trkpt>
      <trkpt lat="47.89751" lon="-3.82551">
        <ele>76.7</ele>
        <time>2019-06-14T14:35:42.797Z</time>
      </trkpt>
      <trkpt lat="47.89785" lon="-3.82739">
        <ele>79.4</ele>
        <time>2019-06-14T14:35:28.251Z</time>
      </trkpt>
      <trkpt lat="47.89822" lon="-3.8294">
        <ele>82.9</ele>
        <time>2019-06-14T14:35:12.708Z</time>
      </trkpt>
      <trkpt lat="47.89831" lon="-3.8298">
        <ele>84.3</ele>
        <time>2019-06-14T14:35:09.564Z</time>
      </trkpt>
      <trkpt lat="47.89839" lon="-3.82993">
        <ele>84.8</ele>
        <time>2019-06-14T14:35:08.208Z</time>
      </trkpt>
      <trkpt lat="47.89873" lon="-3.83004">
        <ele>85.1</ele>
        <time>2019-06-14T14:35:04.393Z</time>
      </trkpt>
      <trkpt lat="47.89902" lon="-3.83013">
        <ele>85.5</ele>
        <time>2019-06-14T14:35:01.018Z</time>
      </trkpt>
      <trkpt lat="47.89938" lon="-3.83041">
        <ele>86.6</ele>
        <time>2019-06-14T14:34:56.528Z</time>
      </trkpt>
      <trkpt lat="47.89973" lon="-3.83082">
        <ele>88.6</ele>
        <time>2019-06-14T14:34:51.568Z</time>
      </trkpt>
      <trkpt lat="47.89991" lon="-3.8311">
        <ele>90.2</ele>
        <time>2019-06-14T14:34:48.689Z</time>
      </trkpt>
      <trkpt lat="47.90007" lon="-3.83144">
        <ele>92</ele>
        <time>2019-06-14T14:34:45.626Z</time>
      </trkpt>
      <trkpt lat="47.90028" lon="-3.83196">
        <ele>93.5</ele>
        <time>2019-06-14T14:34:41.029Z</time>
      </trkpt>
      <trkpt lat="47.90027" lon="-3.83217">
        <ele>93.8</ele>
        <time>2019-06-14T14:34:39.486Z</time>
      </trkpt>
      <trkpt lat="47.90043" lon="-3.83242">
        <ele>94.4</ele>
        <time>2019-06-14T14:34:36.881Z</time>
      </trkpt>
      <trkpt lat="47.90064" lon="-3.83263">
        <ele>94.9</ele>
        <time>2019-06-14T14:34:34.056Z</time>
      </trkpt>
      <trkpt lat="47.90075" lon="-3.83275">
        <ele>95.2</ele>
        <time>2019-06-14T14:34:32.570Z</time>
      </trkpt>
      <trkpt lat="47.90132" lon="-3.83311">
        <ele>97.3</ele>
        <time>2019-06-14T14:34:25.715Z</time>
      </trkpt>
      <trkpt lat="47.90174" lon="-3.83342">
        <ele>98.8</ele>
        <time>2019-06-14T14:34:20.436Z</time>
      </trkpt>
      <trkpt lat="47.90224" lon="-3.83376">
        <ele>98.1</ele>
        <time>2019-06-14T14:34:14.323Z</time>
      </trkpt>
      <trkpt lat="47.9026" lon="-3.83396">
        <ele>97.6</ele>
        <time>2019-06-14T14:34:10.126Z</time>
      </trkpt>
      <trkpt lat="47.90305" lon="-3.83419">
        <ele>96.1</ele>
        <time>2019-06-14T14:34:04.829Z</time>
      </trkpt>
      <trkpt lat="47.90336" lon="-3.83439">
        <ele>95.8</ele>
        <time>2019-06-14T14:34:01.011Z</time>
      </trkpt>
      <trkpt lat="47.90378" lon="-3.83452">
        <ele>95</ele>
        <time>2019-06-14T14:33:56.286Z</time>
      </trkpt>
      <trkpt lat="47.90433" lon="-3.83465">
        <ele>94.4</ele>
        <time>2019-06-14T14:33:50.108Z</time>
      </trkpt>
      <trkpt lat="47.90496" lon="-3.8348">
        <ele>95.7</ele>
        <time>2019-06-14T14:33:43.008Z</time>
      </trkpt>
      <trkpt lat="47.90513" lon="-3.83486">
        <ele>95.8</ele>
        <time>2019-06-14T14:33:41.057Z</time>
      </trkpt>
      <trkpt lat="47.9056" lon="-3.83502">
        <ele>96</ele>
        <time>2019-06-14T14:33:35.668Z</time>
      </trkpt>
      <trkpt lat="47.90574" lon="-3.83501">
        <ele>96</ele>
        <time>2019-06-14T14:33:34.143Z</time>
      </trkpt>
      <trkpt lat="47.90587" lon="-3.83498">
        <ele>95.8</ele>
        <time>2019-06-14T14:33:32.636Z</time>
      </trkpt>
      <trkpt lat="47.90602" lon="-3.83491">
        <ele>95.1</ele>
        <time>2019-06-14T14:33:30.899Z</time>
      </trkpt>
      <trkpt lat="47.90617" lon="-3.83483">
        <ele>94.5</ele>
        <time>2019-06-14T14:33:29.110Z</time>
      </trkpt>
      <trkpt lat="47.90641" lon="-3.83476">
        <ele>93.6</ele>
        <time>2019-06-14T14:33:26.465Z</time>
      </trkpt>
      <trkpt lat="47.90646" lon="-3.83499">
        <ele>93.7</ele>
        <time>2019-06-14T14:33:24.675Z</time>
      </trkpt>
      <trkpt lat="47.90645" lon="-3.83605">
        <ele>94.5</ele>
        <time>2019-06-14T14:33:16.795Z</time>
      </trkpt>
      <trkpt lat="47.90645" lon="-3.83655">
        <ele>94.5</ele>
        <time>2019-06-14T14:33:13.039Z</time>
      </trkpt>
      <trkpt lat="47.90658" lon="-3.83657">
        <ele>94.2</ele>
        <time>2019-06-14T14:33:11.508Z</time>
      </trkpt>
      <trkpt lat="47.90698" lon="-3.83643">
        <ele>93.7</ele>
        <time>2019-06-14T14:33:06.938Z</time>
      </trkpt>
      <trkpt lat="47.90699" lon="-3.83643">
        <ele>93.7</ele>
        <time>2019-06-14T14:33:06.904Z</time>
      </trkpt>
      <trkpt lat="47.90714" lon="-3.8365">
        <ele>93.7</ele>
        <time>2019-06-14T14:33:05.062Z</time>
      </trkpt>
      <trkpt lat="47.90731" lon="-3.83664">
        <ele>93.9</ele>
        <time>2019-06-14T14:33:02.989Z</time>
      </trkpt>
      <trkpt lat="47.9073" lon="-3.83664">
        <ele>93.9</ele>
        <time>2019-06-14T14:33:02.970Z</time>
      </trkpt>
      <trkpt lat="47.90724" lon="-3.8368">
        <ele>94.1</ele>
        <time>2019-06-14T14:33:01.563Z</time>
      </trkpt>
      <trkpt lat="47.90709" lon="-3.83715">
        <ele>94.6</ele>
        <time>2019-06-14T14:32:58.460Z</time>
      </trkpt>
      <trkpt lat="47.90698" lon="-3.83753">
        <ele>95.2</ele>
        <time>2019-06-14T14:32:55.423Z</time>
      </trkpt>
      <trkpt lat="47.90689" lon="-3.83801">
        <ele>94.7</ele>
        <time>2019-06-14T14:32:51.685Z</time>
      </trkpt>
      <trkpt lat="47.90684" lon="-3.8382">
        <ele>94.6</ele>
        <time>2019-06-14T14:32:50.179Z</time>
      </trkpt>
      <trkpt lat="47.90678" lon="-3.83837">
        <ele>94.6</ele>
        <time>2019-06-14T14:32:48.685Z</time>
      </trkpt>
      <trkpt lat="47.90677" lon="-3.83873">
        <ele>95.1</ele>
        <time>2019-06-14T14:32:46.015Z</time>
      </trkpt>
      <trkpt lat="47.90679" lon="-3.83889">
        <ele>95.2</ele>
        <time>2019-06-14T14:32:44.839Z</time>
      </trkpt>
      <trkpt lat="47.90687" lon="-3.83894">
        <ele>95</ele>
        <time>2019-06-14T14:32:43.830Z</time>
      </trkpt>
      <trkpt lat="47.90697" lon="-3.83898">
        <ele>94.7</ele>
        <time>2019-06-14T14:32:42.738Z</time>
      </trkpt>
      <trkpt lat="47.90713" lon="-3.83897">
        <ele>94.1</ele>
        <time>2019-06-14T14:32:40.969Z</time>
      </trkpt>
      <trkpt lat="47.90731" lon="-3.83897">
        <ele>93.5</ele>
        <time>2019-06-14T14:32:39.000Z</time>
      </trkpt>
    </trkseg>
  </trk>
</gpx>